[[{"header":{"parameterUnit":"m.s-1","parameterCategory":1,"la1":30.6,"la2":29.2853,"lo1":-89.7004,"lo2":-87.6739,"dy":0.0162,"dx":0.0183,"nx":112,"ny":82,"refTime":"2024-05-22T06:00:00:Z","depth":0,"parameterNumber":2,"parameterNumberName":"U-component_of_WINDS"},"data":[0.0,0.0,0.0,0.0,0.0,0.0,0.0,0.0,0.0,0.0,0.0,0.0,0.0,0.0,0.0,0.0,0.0,0.0,0.0,0.0,0.0,0.0,0.0,0.0,0.0,0.0,0.0,0.0,0.0,0.0,0.0,0.0,0.0,0.0,0.0,0.0,0.0,0.0,0.0,0.0,0.0,0.0,0.0,0.0,0.0,0.0,0.0,0.0,0.0,0.0,0.0,0.0,0.0,0.0,0.0,0.0,0.0,0.0,0.0,0.0,0.0,0.0,0.0,0.0,0.0,0.0,0.0,0.0,0.0,0.0,0.0,0.0,0.0,0.0,0.0,0.0,0.0,0.0,0.0,0.0,0.0,0.0,0.0,0.0,0.0,0.0,0.0,0.0,0.0,0.0,-4.5326,-4.8031,-4.9334,-4.9941,-4.9805,-4.8348,-4.6683,-4.4902,0.0,0.0,0.0,0.0,0.0,0.0,0.0,0.0,0.0,0.0,0.0,0.0,0.0,0.0,0.0,0.0,0.0,0.0,0.0,0.0,0.0,0.0,0.0,0.0,0.0,0.0,0.0,0.0,0.0,0.0,0.0,0.0,0.0,0.0,0.0,0.0,0.0,0.0,0.0,0.0,0.0,0.0,0.0,0.0,0.0,0.0,0.0,0.0,0.0,0.0,0.0,0.0,0.0,0.0,0.0,0.0,0.0,0.0,0.0,0.0,0.0,0.0,0.0,0.0,0.0,0.0,0.0,0.0,0.0,0.0,0.0,0.0,0.0,0.0,0.0,0.0,0.0,0.0,0.0,0.0,0.0,0.0,0.0,0.0,0.0,0.0,0.0,0.0,0.0,0.0,0.0,0.0,0.0,0.0,0.0,0.0,0.0,0.0,0.0,0.0,0.0,0.0,0.0,0.0,-4.4471,-4.7276,-4.8488,-4.8808,-4.8066,-4.7734,-4.6523,-4.4043,0.0,0.0,0.0,0.0,0.0,0.0,0.0,0.0,0.0,0.0,0.0,0.0,0.0,0.0,0.0,0.0,0.0,0.0,0.0,0.0,0.0,0.0,0.0,0.0,0.0,0.0,0.0,0.0,0.0,0.0,0.0,0.0,0.0,0.0,0.0,0.0,0.0,0.0,0.0,0.0,0.0,0.0,0.0,0.0,0.0,0.0,0.0,0.0,0.0,0.0,0.0,0.0,0.0,0.0,0.0,0.0,0.0,0.0,0.0,0.0,0.0,0.0,0.0,0.0,0.0,0.0,0.0,0.0,0.0,0.0,0.0,0.0,0.0,0.0,0.0,0.0,0.0,0.0,0.0,0.0,0.0,0.0,0.0,0.0,0.0,0.0,0.0,0.0,0.0,0.0,0.0,0.0,0.0,0.0,0.0,0.0,0.0,0.0,0.0,0.0,0.0,0.0,0.0,-4.4018,-4.5276,-4.7052,-4.7757,-4.7937,-4.7526,-4.7127,-4.5976,-4.3848,-4.2438,0.0,0.0,0.0,0.0,0.0,0.0,0.0,0.0,0.0,0.0,0.0,0.0,0.0,0.0,0.0,0.0,0.0,0.0,0.0,0.0,0.0,0.0,0.0,0.0,0.0,0.0,0.0,0.0,0.0,0.0,0.0,0.0,0.0,0.0,0.0,0.0,0.0,0.0,0.0,0.0,0.0,0.0,0.0,0.0,0.0,0.0,0.0,0.0,0.0,0.0,0.0,0.0,0.0,0.0,0.0,0.0,0.0,0.0,0.0,0.0,0.0,0.0,0.0,0.0,0.0,0.0,0.0,0.0,0.0,0.0,0.0,0.0,0.0,0.0,0.0,0.0,0.0,0.0,0.0,0.0,0.0,0.0,0.0,0.0,0.0,0.0,0.0,0.0,0.0,0.0,0.0,0.0,0.0,0.0,0.0,0.0,0.0,0.0,0.0,0.0,0.0,0.0,-4.4885,-4.6048,-4.6726,-4.6947,-4.7045,-4.7045,-4.6194,-4.5017,-4.3474,-4.1621,0.0,0.0,0.0,0.0,0.0,0.0,0.0,0.0,0.0,0.0,0.0,0.0,0.0,0.0,0.0,0.0,0.0,0.0,0.0,0.0,0.0,0.0,0.0,0.0,0.0,0.0,0.0,0.0,0.0,0.0,0.0,0.0,0.0,0.0,0.0,0.0,0.0,0.0,0.0,0.0,0.0,0.0,0.0,0.0,0.0,0.0,0.0,0.0,0.0,0.0,0.0,0.0,0.0,0.0,0.0,0.0,0.0,0.0,0.0,0.0,0.0,0.0,0.0,0.0,0.0,0.0,0.0,0.0,0.0,0.0,0.0,0.0,0.0,0.0,0.0,0.0,0.0,0.0,0.0,0.0,0.0,0.0,0.0,0.0,0.0,0.0,0.0,0.0,0.0,0.0,0.0,0.0,0.0,0.0,0.0,0.0,0.0,0.0,0.0,0.0,0.0,0.0,-4.4048,-4.5822,-4.588,-4.5968,-4.6009,-4.6009,-4.4649,-4.3398,-4.2459,-4.0111,0.0,0.0,0.0,0.0,0.0,0.0,0.0,0.0,0.0,0.0,0.0,0.0,0.0,0.0,0.0,0.0,0.0,0.0,0.0,0.0,0.0,0.0,0.0,0.0,0.0,0.0,0.0,0.0,0.0,0.0,0.0,0.0,0.0,0.0,0.0,0.0,0.0,0.0,0.0,0.0,0.0,0.0,0.0,0.0,0.0,0.0,0.0,0.0,0.0,0.0,0.0,0.0,0.0,0.0,0.0,0.0,0.0,0.0,0.0,0.0,0.0,0.0,0.0,0.0,0.0,0.0,0.0,0.0,0.0,0.0,0.0,0.0,0.0,0.0,0.0,0.0,0.0,0.0,0.0,0.0,0.0,0.0,0.0,0.0,0.0,0.0,0.0,0.0,0.0,0.0,0.0,0.0,0.0,0.0,0.0,0.0,0.0,0.0,0.0,0.0,0.0,0.0,-4.3436,-4.5063,0.0,-4.5777,-4.5836,-4.5836,-4.4887,-4.3679,-4.2257,0.0,0.0,0.0,0.0,0.0,0.0,0.0,0.0,0.0,0.0,0.0,0.0,0.0,0.0,0.0,0.0,0.0,0.0,0.0,0.0,0.0,0.0,0.0,0.0,0.0,0.0,0.0,0.0,0.0,0.0,0.0,0.0,0.0,0.0,0.0,0.0,0.0,0.0,0.0,0.0,0.0,0.0,0.0,0.0,0.0,0.0,0.0,0.0,0.0,0.0,0.0,0.0,0.0,0.0,0.0,0.0,0.0,0.0,0.0,0.0,0.0,0.0,0.0,0.0,0.0,0.0,0.0,0.0,0.0,0.0,0.0,0.0,0.0,0.0,0.0,0.0,0.0,0.0,0.0,0.0,0.0,0.0,0.0,0.0,0.0,0.0,0.0,0.0,0.0,0.0,0.0,0.0,0.0,0.0,0.0,0.0,0.0,0.0,0.0,0.0,0.0,0.0,-4.0649,-4.3119,-4.4932,0.0,-4.5688,-4.5617,-4.5346,-4.4397,-4.2966,-4.0969,0.0,0.0,0.0,0.0,0.0,0.0,0.0,0.0,0.0,0.0,0.0,0.0,0.0,0.0,0.0,0.0,0.0,0.0,0.0,0.0,0.0,0.0,0.0,0.0,0.0,0.0,0.0,0.0,0.0,0.0,0.0,0.0,0.0,0.0,0.0,0.0,0.0,0.0,0.0,0.0,0.0,0.0,0.0,0.0,0.0,0.0,0.0,0.0,0.0,0.0,0.0,0.0,0.0,0.0,0.0,0.0,0.0,0.0,0.0,0.0,0.0,0.0,0.0,0.0,0.0,0.0,0.0,0.0,0.0,0.0,0.0,0.0,0.0,0.0,0.0,0.0,0.0,0.0,0.0,0.0,0.0,0.0,0.0,0.0,0.0,0.0,0.0,0.0,0.0,0.0,0.0,0.0,0.0,0.0,0.0,0.0,0.0,0.0,0.0,0.0,0.0,0.0,-3.9599,-4.3149,-4.5594,-4.5594,-4.5594,-4.5248,-4.4374,-4.2816,-4.0809,0.0,0.0,0.0,0.0,0.0,0.0,0.0,0.0,0.0,0.0,0.0,0.0,0.0,0.0,0.0,0.0,0.0,0.0,0.0,0.0,0.0,0.0,0.0,0.0,0.0,0.0,0.0,0.0,0.0,0.0,0.0,0.0,0.0,0.0,0.0,0.0,0.0,0.0,0.0,0.0,0.0,0.0,0.0,0.0,0.0,0.0,0.0,0.0,0.0,0.0,0.0,0.0,0.0,0.0,0.0,0.0,0.0,0.0,0.0,0.0,0.0,0.0,0.0,0.0,0.0,0.0,0.0,0.0,0.0,0.0,0.0,0.0,0.0,0.0,0.0,0.0,0.0,0.0,0.0,0.0,0.0,0.0,0.0,0.0,0.0,0.0,0.0,0.0,0.0,0.0,0.0,0.0,0.0,0.0,0.0,0.0,0.0,0.0,0.0,0.0,0.0,0.0,0.0,-3.949,-4.2463,-4.471,-4.5519,-4.5594,-4.5248,-4.4374,-4.2787,-4.0737,-3.8181,0.0,0.0,0.0,0.0,0.0,0.0,0.0,0.0,0.0,0.0,0.0,0.0,0.0,0.0,0.0,0.0,0.0,0.0,0.0,0.0,0.0,0.0,0.0,0.0,0.0,0.0,0.0,0.0,0.0,0.0,0.0,0.0,0.0,0.0,0.0,0.0,0.0,0.0,0.0,0.0,0.0,0.0,0.0,0.0,0.0,0.0,0.0,0.0,0.0,0.0,0.0,0.0,0.0,0.0,0.0,0.0,0.0,0.0,0.0,0.0,0.0,0.0,0.0,0.0,0.0,0.0,0.0,0.0,0.0,0.0,0.0,0.0,0.0,0.0,0.0,0.0,0.0,0.0,0.0,0.0,0.0,0.0,0.0,0.0,0.0,0.0,0.0,0.0,0.0,0.0,0.0,0.0,0.0,0.0,0.0,0.0,0.0,0.0,0.0,0.0,0.0,0.0,-3.8797,-4.1461,-4.3493,-4.4327,-4.4403,-4.4094,-4.3365,-4.2393,-4.0423,-3.7219,0.0,0.0,0.0,0.0,0.0,0.0,0.0,0.0,0.0,0.0,0.0,0.0,0.0,0.0,0.0,0.0,0.0,0.0,0.0,0.0,0.0,0.0,0.0,0.0,0.0,0.0,0.0,0.0,0.0,0.0,0.0,0.0,0.0,0.0,0.0,0.0,0.0,0.0,0.0,0.0,0.0,0.0,0.0,0.0,0.0,0.0,0.0,0.0,0.0,0.0,0.0,0.0,0.0,0.0,0.0,0.0,0.0,0.0,0.0,0.0,0.0,0.0,0.0,0.0,0.0,0.0,0.0,0.0,0.0,0.0,0.0,0.0,0.0,0.0,0.0,0.0,0.0,0.0,0.0,0.0,0.0,0.0,0.0,0.0,0.0,0.0,0.0,0.0,0.0,0.0,0.0,0.0,0.0,0.0,0.0,0.0,0.0,0.0,0.0,0.0,0.0,0.0,-3.7779,-4.0309,-4.2096,-4.251,-4.255,-4.2335,-4.1752,-4.1635,-3.9868,-3.5789,0.0,0.0,0.0,0.0,0.0,0.0,0.0,0.0,0.0,0.0,0.0,0.0,0.0,0.0,0.0,0.0,0.0,0.0,0.0,0.0,0.0,0.0,0.0,0.0,0.0,0.0,0.0,0.0,0.0,0.0,0.0,0.0,0.0,0.0,0.0,0.0,0.0,0.0,0.0,0.0,0.0,0.0,0.0,0.0,0.0,0.0,0.0,0.0,0.0,0.0,0.0,0.0,0.0,0.0,0.0,0.0,0.0,0.0,0.0,0.0,-4.1088,0.0,0.0,0.0,0.0,0.0,0.0,0.0,0.0,0.0,0.0,0.0,0.0,0.0,0.0,0.0,0.0,0.0,0.0,0.0,0.0,0.0,0.0,0.0,0.0,0.0,0.0,0.0,0.0,0.0,0.0,0.0,0.0,0.0,0.0,0.0,0.0,0.0,0.0,0.0,0.0,0.0,-3.7666,-3.9623,-4.1128,-4.2103,-4.2214,-4.1897,-4.1157,-4.0463,-3.886,-3.5997,-3.4747,0.0,0.0,0.0,0.0,0.0,0.0,0.0,0.0,0.0,0.0,0.0,0.0,0.0,0.0,0.0,0.0,0.0,0.0,0.0,0.0,0.0,0.0,0.0,0.0,0.0,0.0,0.0,0.0,0.0,0.0,0.0,0.0,0.0,0.0,0.0,0.0,0.0,0.0,0.0,0.0,0.0,0.0,0.0,0.0,0.0,0.0,0.0,0.0,0.0,0.0,0.0,0.0,0.0,0.0,0.0,0.0,0.0,0.0,0.0,0.0,-4.1158,0.0,0.0,0.0,0.0,0.0,0.0,0.0,0.0,0.0,0.0,0.0,0.0,0.0,0.0,0.0,0.0,0.0,0.0,0.0,0.0,0.0,0.0,0.0,0.0,0.0,0.0,0.0,0.0,0.0,0.0,0.0,0.0,0.0,0.0,0.0,0.0,0.0,0.0,0.0,0.0,-3.6901,-3.8586,-3.9858,-4.059,-4.0666,-4.056,-4.0309,-3.9856,-3.8543,-3.605,-3.5078,0.0,0.0,0.0,0.0,0.0,0.0,0.0,0.0,0.0,0.0,0.0,0.0,0.0,0.0,0.0,0.0,0.0,0.0,0.0,0.0,0.0,0.0,0.0,0.0,0.0,0.0,0.0,0.0,0.0,0.0,0.0,0.0,0.0,0.0,0.0,0.0,0.0,0.0,0.0,0.0,0.0,0.0,0.0,0.0,0.0,0.0,0.0,0.0,0.0,0.0,0.0,0.0,0.0,-4.2422,-4.2117,-4.1416,-4.19,-4.1698,-4.0953,-4.0787,-4.0999,-4.1459,0.0,0.0,0.0,0.0,0.0,0.0,0.0,0.0,0.0,0.0,0.0,0.0,0.0,0.0,0.0,0.0,0.0,0.0,0.0,0.0,0.0,0.0,0.0,0.0,0.0,-3.9625,-3.9375,0.0,0.0,0.0,0.0,0.0,0.0,0.0,0.0,0.0,0.0,0.0,0.0,-3.6101,-3.7698,-3.8773,-3.9013,-3.9036,-3.9144,-3.9408,-3.9432,-3.8512,-3.6329,-3.5897,-3.4132,0.0,0.0,0.0,0.0,0.0,0.0,0.0,0.0,0.0,0.0,0.0,0.0,0.0,0.0,0.0,0.0,0.0,0.0,0.0,0.0,0.0,0.0,0.0,0.0,0.0,0.0,0.0,0.0,0.0,0.0,0.0,0.0,-4.1785,-4.1324,0.0,0.0,0.0,0.0,0.0,0.0,0.0,0.0,0.0,0.0,0.0,0.0,0.0,-4.2151,-4.2151,-4.2895,-4.2929,-4.2303,-4.2963,-4.2878,-4.2151,-4.224,-4.1859,-4.1163,-4.1121,0.0,-4.1703,-4.0988,0.0,0.0,0.0,0.0,0.0,0.0,0.0,0.0,0.0,0.0,0.0,0.0,0.0,0.0,0.0,0.0,0.0,0.0,0.0,0.0,0.0,0.0,-4.0783,-4.0783,-4.0857,-4.0634,0.0,-3.8213,-3.6757,-3.5096,0.0,0.0,0.0,0.0,0.0,0.0,0.0,0.0,-3.6174,-3.7698,-3.8704,-3.8747,-3.8747,-3.8777,-3.8803,-3.8822,-3.8379,-3.7362,-3.5929,-3.467,-3.3636,-3.0998,0.0,0.0,0.0,0.0,0.0,0.0,0.0,0.0,0.0,0.0,0.0,0.0,0.0,0.0,0.0,0.0,0.0,0.0,0.0,0.0,0.0,0.0,0.0,0.0,0.0,0.0,0.0,0.0,0.0,-4.158,-4.1963,-4.128,-4.1801,-4.1793,0.0,0.0,0.0,0.0,0.0,0.0,0.0,0.0,0.0,-4.3582,-4.3995,-4.4215,-4.4215,-4.4536,-4.4536,-4.4215,-4.4113,-4.3673,-4.2929,-4.2929,-4.2303,-4.1221,-4.1644,-4.1452,-4.0827,-4.0784,-4.0691,-4.0562,0.0,0.0,0.0,0.0,0.0,-3.9376,-3.9128,-3.8775,0.0,0.0,0.0,0.0,0.0,0.0,0.0,0.0,0.0,0.0,0.0,0.0,0.0,-4.1687,-4.188,-4.1552,-4.0763,-4.0029,-3.8909,0.0,-3.6119,-3.5312,-3.3587,0.0,0.0,0.0,0.0,-3.6028,-3.6868,-3.7973,-3.8707,-3.8707,-3.8707,-3.8707,-3.8707,-3.8707,-3.8358,-3.7547,-3.6395,-3.5202,-3.4022,-3.23,-3.078,0.0,0.0,0.0,0.0,0.0,0.0,0.0,0.0,0.0,0.0,0.0,0.0,0.0,0.0,0.0,0.0,0.0,0.0,0.0,0.0,0.0,0.0,0.0,0.0,0.0,0.0,0.0,0.0,-4.1999,-4.2388,-4.1847,-4.2591,-4.2574,0.0,0.0,0.0,0.0,0.0,0.0,-4.3933,-4.3984,-4.435,-4.5156,-4.5686,-4.5974,-4.5974,-4.5788,-4.5703,-4.5703,-4.4942,-4.4282,-4.3724,-4.3724,-4.3014,-4.1796,-4.2337,-4.1728,-4.0409,-4.0796,-4.0782,-4.0469,-4.0469,-4.0119,-3.959,-3.959,-3.959,-3.9643,-4.0049,-3.9804,-3.9206,-3.8646,0.0,-3.7238,-3.5962,0.0,0.0,0.0,0.0,-3.6974,-3.8978,0.0,-3.9714,-4.1707,-4.2029,-4.1722,-4.1104,-4.0935,-4.0284,0.0,-3.7639,-3.6905,-3.5055,0.0,0.0,0.0,0.0,-3.6831,-3.7419,-3.8193,-3.8707,-3.8707,-3.8707,-3.8707,-3.8707,-3.8707,-3.8358,-3.7547,-3.6725,-3.5642,-3.4174,-3.3333,-3.2036,-3.018,0.0,0.0,0.0,0.0,0.0,0.0,0.0,0.0,0.0,0.0,0.0,0.0,0.0,0.0,0.0,0.0,0.0,0.0,0.0,0.0,0.0,0.0,0.0,0.0,0.0,0.0,0.0,0.0,0.0,-4.3291,-4.4621,0.0,0.0,0.0,0.0,-4.3341,-4.4028,-4.479,-4.5551,-4.5585,-4.5923,-4.6667,-4.6718,-4.6735,-4.6735,-4.6058,-4.5703,-4.5703,-4.4942,-4.4581,-4.4547,-4.4547,-4.4079,-4.3291,-4.3325,-4.2523,-4.1153,-4.1162,-4.0773,-4.0145,-4.0145,-4.0111,-4.0052,-4.0052,-4.0052,-3.9968,-3.9306,-3.9052,-3.9018,-3.8984,-3.8721,-3.8391,-3.8114,-3.8007,0.0,0.0,-3.8137,-3.839,-3.9279,-3.9476,-3.9711,-4.058,-4.078,-4.0748,-4.0648,-4.0478,-4.0001,0.0,-3.801,-3.7456,-3.7345,0.0,-3.6211,-3.6174,-3.6905,-3.7456,-3.7492,-3.8193,-3.8707,-3.8707,-3.8707,-3.8707,-3.8707,-3.8707,-3.8358,-3.7547,-3.6725,-3.5899,-3.4986,-3.344,-3.2572,-3.2443,-3.0148,0.0,0.0,0.0,0.0,0.0,0.0,0.0,0.0,0.0,0.0,0.0,0.0,0.0,0.0,0.0,0.0,0.0,0.0,0.0,0.0,0.0,0.0,0.0,0.0,0.0,0.0,0.0,0.0,-4.4818,-4.5788,0.0,-4.4316,-4.4857,-4.5196,-4.4908,-4.5585,-4.6329,-4.709,-4.7111,-4.7462,-4.8189,-4.8223,-4.8223,-4.8223,-4.7496,-4.6887,-4.6397,-4.5652,-4.5043,-4.4615,-4.4615,-4.4147,-4.3426,-4.3944,-4.3031,-4.1238,-4.1711,-4.1187,-4.0096,-4.0096,-4.0096,-4.0096,-4.0096,-4.0096,-4.0062,-3.9808,-3.9723,-3.9639,-3.914,-3.8601,-3.8093,-3.8025,-3.8007,-3.8007,-3.8007,-3.803,-3.8224,-3.8986,-3.9054,-3.9229,-4.0507,-4.0721,-4.0639,-4.0598,-4.0532,-4.0091,-3.8706,-3.8779,-3.8723,-3.7676,-3.7679,-3.7661,-3.7162,-3.7768,-3.8267,-3.8267,-3.8524,-3.8707,-3.8707,-3.8707,-3.8487,-3.7955,-3.7933,-3.7584,-3.6795,-3.5936,-3.5316,-3.5023,-3.394,-3.2889,-3.1843,-3.098,-2.9384,0.0,0.0,0.0,0.0,0.0,0.0,0.0,0.0,0.0,0.0,0.0,0.0,0.0,0.0,0.0,0.0,0.0,0.0,0.0,0.0,0.0,0.0,0.0,0.0,0.0,0.0,-4.4598,-4.5507,-4.6468,-4.6606,-4.5466,-4.6227,-4.6718,-4.6464,-4.7124,-4.775,-4.8257,-4.8291,-4.8511,-4.8984,-4.9001,-4.9001,-4.9001,-4.8291,-4.753,-4.6786,-4.6058,-4.5314,-4.4615,-4.4615,-4.4327,-4.3842,-4.4378,-4.3572,-4.1965,-4.2202,-4.1576,-4.0468,-4.0197,-4.0096,-4.0096,-4.0096,-4.0096,-4.0096,-4.0096,-4.0096,-4.0028,-3.9537,-3.9039,-3.8633,-3.8633,-3.8633,-3.8633,-3.8633,-3.8464,-3.8379,-3.887,-3.8877,-3.8986,-4.0006,-4.0152,-4.0193,-4.0595,-4.0309,-3.9705,-3.8883,-3.9194,-3.9181,-3.7865,-3.823,-3.8524,-3.7988,-3.8358,-3.8707,-3.8707,-3.8707,-3.8707,-3.8707,-3.8707,-3.8377,-3.7566,-3.7492,-3.7033,-3.5936,-3.5184,-3.4749,-3.4601,-3.3684,-3.277,-3.1825,-3.0881,-2.9277,-2.6994,0.0,0.0,0.0,0.0,0.0,0.0,0.0,0.0,0.0,0.0,0.0,0.0,0.0,0.0,0.0,0.0,0.0,0.0,0.0,0.0,0.0,0.0,0.0,-4.1964,-4.3129,-4.4327,-4.5306,-4.6716,-4.7419,-4.6903,-4.8206,-4.8781,-4.8041,-4.8663,-4.9069,-4.9069,-4.9052,-4.9035,-4.9035,-4.9018,-4.9001,-4.9001,-4.8308,-4.7564,-4.6786,-4.6075,-4.5331,-4.4615,-4.4615,-4.4615,-4.4615,-4.4615,-4.413,-4.3325,-4.2591,-4.1863,-4.1136,-4.04,-4.0096,-4.0096,-4.0096,-4.0096,-4.0096,-4.0096,-4.0096,-4.0096,-4.0096,-4.0096,-4.0096,-4.0096,-4.0096,-4.0096,-4.0096,-3.9605,-3.9022,-3.9022,-3.9022,-3.9022,-3.9022,-3.9022,-3.9387,-4.0584,-3.9725,-3.8864,-3.9315,-3.9185,-3.8725,-3.8003,-3.83,-3.8676,-3.8658,-3.8692,0.0,-3.8707,-3.8707,-3.8707,-3.8707,-3.8707,-3.8377,-3.7551,-3.7459,-3.6729,-3.5054,-3.4573,-3.418,-3.3785,-3.2635,-3.219,-3.2562,-2.9805,-2.8197,-2.7847,0.0,0.0,0.0,0.0,0.0,0.0,0.0,0.0,0.0,0.0,0.0,0.0,0.0,0.0,0.0,0.0,0.0,0.0,0.0,0.0,0.0,0.0,-4.3146,-4.3397,-4.3668,-4.4374,-4.5826,-4.74,-4.8332,-4.8182,-4.9617,-5.0492,-5.0289,-5.049,-5.0608,-5.0608,-5.0084,-4.9796,-4.9796,-4.9272,-4.9001,-4.9001,-4.8798,-4.8054,-4.6786,-4.6583,-4.5821,-4.4615,-4.4615,-4.4615,-4.4615,-4.4615,-4.413,-4.3325,-4.2591,-4.1863,-4.1136,-4.04,-4.0096,-4.0096,-4.0096,-4.0096,-4.0096,-4.0096,-4.0096,-4.0096,-4.0096,-4.0096,-4.0096,-4.0096,-4.0096,-4.0096,-4.0096,-3.996,-3.9808,-3.9808,-3.9808,-3.9808,-3.9808,-3.9808,-3.9756,-3.9572,-3.9211,-3.8645,-3.7734,-3.7745,-3.7802,-3.7447,-3.7524,-3.7738,-3.8065,-3.8115,0.0,-3.8643,-3.8707,-3.8707,-3.8707,-3.8707,-3.8217,-3.7025,-3.6427,-3.5503,-3.4072,-3.3369,-3.2977,-3.2856,-3.2549,-3.2157,-3.1739,-2.9255,-2.8206,0.0,0.0,0.0,0.0,0.0,0.0,0.0,0.0,0.0,0.0,0.0,0.0,0.0,0.0,0.0,0.0,0.0,0.0,0.0,0.0,0.0,0.0,-4.3101,-4.4112,-4.4468,-4.4249,-4.4594,-4.6207,-4.7005,-4.7877,-4.9002,-4.9992,-5.0742,-5.1185,-5.1185,-5.1185,-5.1185,-5.0794,-5.0422,-5.0101,-4.9678,-4.9306,-4.9001,-4.9001,-4.8257,-4.6786,-4.6786,-4.6036,-4.4615,-4.4615,-4.4615,0.0,-4.4615,-4.413,-4.3325,-4.2591,-4.1863,0.0,0.0,0.0,0.0,0.0,-4.0096,-4.0096,-4.0096,-4.0096,-4.0096,-4.0096,-4.0096,-4.0096,-4.0096,-4.0096,-4.0096,-4.0096,-4.0096,-4.0096,-4.0096,-4.0096,-4.0096,-4.0096,-3.9859,-3.9595,-3.9385,-3.8656,-3.7899,-3.7257,0.0,0.0,-3.655,-3.6904,-3.7285,-3.756,-3.7614,-3.772,0.0,-3.8234,-3.8366,-3.8366,-3.8091,-3.7449,-3.6322,-3.5364,0.0,0.0,0.0,-3.2055,-3.1705,-3.189,0.0,0.0,0.0,0.0,0.0,0.0,0.0,0.0,-2.9772,-2.9871,0.0,0.0,0.0,0.0,0.0,0.0,0.0,0.0,0.0,0.0,0.0,0.0,0.0,0.0,0.0,0.0,-4.4302,-4.4962,-4.5503,-4.4982,-4.5016,-4.6379,-4.6159,-4.6931,-4.9412,-4.9857,-5.0372,-5.1373,-5.1438,-5.1438,-5.1438,0.0,0.0,0.0,0.0,-4.9746,-4.9018,-4.9001,-4.8257,-4.6786,-4.6786,-4.6036,-4.4615,-4.4615,-4.4615,-4.4615,-4.4615,-4.413,-4.3325,-4.2591,-4.1813,-4.1018,-4.0367,-4.0096,-4.0096,-4.0096,-4.0096,0.0,0.0,0.0,0.0,-4.0096,-4.0096,-4.0096,-4.0096,-4.0096,-4.0096,-4.0096,-4.0096,-4.0096,-4.0096,-4.0096,-4.0096,-4.0096,-3.9605,-3.921,-3.9537,-3.8191,-3.7007,-3.7327,-3.6407,-3.56,-3.56,-3.6378,-3.7039,-3.7097,-3.7097,0.0,-3.7173,-3.756,-3.7825,-3.7825,0.0,0.0,-3.563,-3.4369,-3.3299,-3.2526,-3.202,-3.1405,-3.0696,-3.1078,-3.0745,-2.9592,-2.9558,-2.9744,-3.0108,-3.0108,-3.0142,-3.0192,-2.9485,-2.9651,0.0,0.0,0.0,0.0,0.0,0.0,0.0,0.0,0.0,0.0,0.0,0.0,0.0,0.0,0.0,-4.4306,-4.5361,-4.6267,-4.7119,-4.649,-4.581,-4.5608,-4.6624,-4.7958,-4.9325,-5.07,-5.1933,-5.2994,-5.3061,-5.3061,-5.3061,-5.2452,0.0,-5.1014,-5.0405,-4.9746,-4.9018,-4.9001,-4.8257,-4.6786,0.0,0.0,-4.4615,-4.4615,-4.4615,-4.4615,-4.4615,-4.413,-4.3325,-4.2591,-4.1491,-4.0316,-4.0163,-4.0096,-4.0096,-4.0096,-4.0096,-4.0096,-4.0096,-4.0096,-4.0096,-4.0096,-4.0096,-4.0096,-4.0096,-4.0096,0.0,-4.0096,-4.0096,-4.0096,-4.0096,-4.0096,-4.0096,-4.0096,-3.9994,-3.9596,-3.8513,-3.7967,-3.7337,-3.622,-3.5774,-3.56,-3.56,-3.5783,-3.6054,-3.6498,-3.6542,-3.6704,-3.7135,-3.7267,-3.7341,-3.7341,-3.663,-3.5934,-3.54,-3.403,-3.2971,-3.2374,-3.1711,-3.1261,-3.1089,-3.1168,-3.0827,-2.9983,-2.9966,-3.0014,-3.0108,-3.0108,-3.0412,-3.097,-3.0838,-3.0553,0.0,0.0,0.0,0.0,0.0,0.0,0.0,0.0,0.0,0.0,0.0,-4.0801,-4.2117,0.0,-4.3818,-4.5318,-4.5981,-4.6581,-4.7399,-4.7111,-4.6696,-4.6337,-4.6766,-4.7569,-4.897,-5.0326,-5.1594,-5.2627,-5.3195,-5.3501,-5.3501,-5.3129,-5.2384,-5.1251,-5.0845,-5.0118,-4.9018,-4.9001,-4.804,-4.6163,-4.6591,-4.5786,-4.3977,-4.4412,-4.4615,-4.4615,-4.4615,-4.413,-4.3308,-4.2219,-4.1085,-4.0096,-4.0096,-4.0096,-4.0096,-4.0096,-4.0096,-4.0096,-4.0096,-4.0096,-4.0096,-4.0096,-4.0096,-4.0096,-4.0096,-4.0096,-4.0096,-4.0096,-4.0096,-4.0096,-4.0096,-4.0096,-4.0096,-4.0096,-3.9825,-3.9266,-3.8142,-3.7618,-3.6992,-3.5819,-3.56,-3.56,-3.56,-3.56,-3.5694,-3.5963,-3.6006,-3.6097,-3.6357,-3.6643,-3.6646,-3.628,-3.5563,-3.4855,-3.4241,-3.2936,-3.2032,-3.1772,-3.1393,-3.119,-3.119,-3.119,-3.1021,-3.0666,-3.0649,-3.0649,-3.0649,-3.0649,-3.0835,-3.119,-3.119,-3.1004,0.0,0.0,0.0,0.0,0.0,0.0,0.0,-3.6844,-3.8237,-3.998,-4.1292,-4.2671,-4.4392,-4.4706,-4.5053,-4.6322,-4.6474,-4.6696,-4.7234,-4.7309,-4.7309,-4.7309,-4.683,-4.7105,-4.8656,-4.9773,-5.0817,-5.1832,-5.2714,-5.3196,-5.3281,-5.3078,-5.2354,-5.1016,-5.0997,-5.0355,-4.9018,-4.9001,-4.7821,-4.5509,-4.6193,-4.5427,-4.3306,-4.4035,-4.444,-4.4581,-4.4293,-4.3775,-4.3054,-4.1593,-4.0629,-4.0096,-4.0096,-4.0096,-4.0096,-4.0096,-4.0096,-4.0096,-4.0096,-4.0096,-4.0096,-4.0096,-4.0096,-4.0096,-4.0096,-4.0096,-4.0096,-4.0096,-4.0096,-4.0096,-4.0096,-4.0096,-4.0096,-4.0096,-3.9656,-3.8954,-3.8091,-3.7432,-3.6721,-3.5769,-3.56,-3.56,-3.56,-3.56,-3.56,-3.56,-3.56,-3.56,-3.56,-3.5985,-3.5956,-3.5218,-3.4478,-3.3703,-3.2807,-3.1786,-3.119,-3.119,-3.119,-3.119,-3.119,-3.119,-3.119,-3.119,-3.119,-3.119,-3.119,-3.119,-3.119,-3.119,-3.119,-3.119,-3.7479,-3.5963,-3.4689,-3.5248,-3.5067,-3.5398,0.0,-3.982,-4.1443,-4.2725,-4.3992,-4.511,-4.5948,-4.6055,-4.6337,-4.707,-4.7189,-4.7219,-4.7294,-4.7309,-4.7309,-4.7309,-4.7234,-4.7603,-4.8702,-4.9773,-5.0817,-5.1832,-5.1993,-5.2171,-5.2436,-5.1576,-5.0825,-5.0221,-5.0219,-4.983,-4.9018,-4.9001,-4.7821,-4.5509,-4.5619,-4.4814,-4.3306,-4.3396,-4.3873,-4.453,-4.3159,-4.2506,-4.2303,-4.084,-4.018,-4.0096,-4.0096,-4.0096,-4.0096,-4.0096,-4.0096,-4.0096,-4.0096,-4.0096,-4.0096,-4.0096,-4.0096,-4.0096,-4.0096,-4.0096,-4.0096,-4.0096,-4.0096,-4.0096,-4.0096,-4.0096,-4.0096,-4.0096,-4.0045,-3.9605,-3.821,-3.7838,-3.7364,-3.587,-3.56,-3.56,-3.56,-3.56,-3.56,-3.56,-3.56,-3.56,-3.56,-3.5667,-3.5406,-3.4665,-3.3935,-3.2934,-3.1526,-3.128,-3.119,-3.119,-3.119,-3.119,-3.119,-3.119,-3.119,-3.119,-3.119,-3.119,-3.119,-3.119,-3.119,-3.119,-3.119,-3.119,-3.7768,-3.7517,-3.7102,-3.5835,-3.5851,-3.6323,-3.6785,-3.8553,-4.0548,-4.2139,-4.3963,-4.5618,-4.6696,-4.689,-4.698,-4.7249,-4.7309,-4.7309,-4.7309,-4.7309,-4.716,-4.677,-4.6741,-4.7031,-4.7831,-4.9432,-5.0589,-5.1021,-5.1205,-5.1359,-5.1493,-5.0143,-4.9137,-4.8488,-4.8995,-4.8926,-4.8193,-4.8719,-4.7821,-4.5509,-4.5509,-4.4735,-4.3306,-4.3306,-4.3785,-4.4547,-4.342,-4.2692,-4.2202,-4.1153,-4.0476,-4.0096,-4.0096,-4.0096,-4.0096,-4.0096,-4.0096,-4.0096,-4.0096,-4.0096,-4.0096,-4.0096,-4.0096,-4.0096,-4.0096,-4.0096,-4.0096,-4.0096,-4.0096,-4.0096,-4.0096,-4.0096,-4.0096,-4.0096,-4.0096,-3.9706,-3.8227,-3.7905,-3.7449,-3.5904,-3.56,-3.56,-3.56,-3.56,-3.56,-3.56,-3.56,-3.56,-3.56,-3.56,-3.5143,-3.3981,-3.2814,-3.1867,-3.1241,-3.119,-3.119,-3.119,-3.119,-3.119,-3.119,-3.119,-3.119,-3.119,-3.119,-3.119,-3.119,-3.119,-3.119,-3.119,-3.119,-3.119,-3.8545,-3.8958,-3.8976,-3.7304,-3.7338,-3.7626,-3.7053,-3.8543,-4.0433,-4.1931,-4.4022,-4.5873,-4.686,-4.7189,-4.7309,-4.7309,-4.7309,-4.7309,-4.7309,-4.7309,-4.713,-4.6651,-4.6591,-4.6785,-4.7249,-4.8596,-4.9633,-5.0055,-4.9923,-4.9929,-5.0259,-4.8619,-4.7442,-4.7009,-4.7663,-4.7728,-4.7205,-4.7702,-4.6877,-4.474,-4.4578,-4.3814,-4.2583,-4.2816,-4.3426,-4.4202,-4.3172,-4.2587,-4.2219,-4.1271,-4.0578,-4.0096,-4.0096,-4.0096,-4.0096,-4.0096,-4.0096,-4.0096,-4.0096,-4.0096,-4.0096,-4.0096,-4.0096,-4.0096,-4.0096,-4.0096,-4.0096,-4.0096,-4.0096,-4.0096,-4.0096,-4.0096,-4.0096,-4.0096,-3.9943,-3.9453,-3.8176,-3.7736,-3.7212,-3.5853,-3.56,-3.56,-3.56,-3.56,-3.56,-3.56,-3.56,-3.56,-3.56,-3.5245,-3.4568,-3.3525,-3.2087,-3.119,-3.119,-3.119,-3.119,-3.119,-3.119,-3.119,-3.119,-3.119,-3.119,-3.119,-3.119,-3.119,-3.119,-3.119,-3.119,-3.119,-3.119,-3.119,-4.0151,-3.9589,-3.9096,-4.017,-3.9689,-3.9207,-4.0291,-4.1535,-4.2653,-4.3243,-4.4905,-4.6264,-4.6309,-4.6875,-4.7309,-4.7309,-4.7309,-4.7309,-4.7309,-4.7309,-4.7294,-4.7279,-4.7279,-4.7279,0.0,-4.713,-4.7667,-4.9212,-4.79,-4.7547,-4.8707,-4.6861,-4.5915,-4.6221,-4.624,-4.6276,-4.6244,-4.564,-4.4487,-4.2863,-4.2229,-4.151,-4.0811,-4.1658,-4.252,-4.3254,-4.1729,-4.1527,-4.2185,-4.0739,-4.013,-4.0096,-4.0096,-4.0096,-4.0096,-4.0096,-4.0096,-4.0096,-4.0096,-4.0096,-4.0096,-4.0096,-4.0096,-4.0096,-4.0096,-4.0096,-4.0096,-4.0096,-4.0096,-4.0096,-4.0096,-4.0096,-4.0096,-4.0096,-3.9554,-3.8819,-3.8075,-3.733,-3.6586,-3.5752,-3.56,-3.56,-3.56,-3.56,-3.56,-3.56,-3.56,-3.56,-3.56,-3.4349,-3.3457,-3.3406,-3.2087,-3.119,-3.119,-3.119,-3.119,-3.119,-3.119,-3.119,-3.119,-3.119,-3.119,-3.119,-3.119,-3.119,-3.119,-3.119,-3.119,-3.119,-3.119,-3.119,-4.0217,-4.0784,-4.1087,-4.0712,-4.0666,-4.0619,-4.0253,-4.1085,-4.2119,-4.2767,-4.3978,-4.5125,-4.5559,-4.6202,-4.6651,-4.6651,-4.7025,-4.7309,-4.7309,-4.7309,-4.7145,-4.6711,-4.6651,0.0,0.0,0.0,0.0,-4.8247,-4.7037,-4.6403,-4.6824,-4.5087,-4.4163,-4.4266,-4.4915,-4.5248,-4.5248,-4.5206,-4.4678,-4.3651,-4.2479,-4.15,-4.0724,-4.1593,-4.19,-4.1729,-4.0728,-4.0487,-4.0756,-3.9731,-3.961,-4.0096,-4.0096,-4.0096,-4.0096,-4.0096,-4.0096,-4.0096,-4.0096,-4.0096,-4.0096,-4.0096,-4.0096,-4.0096,-4.0096,-4.0096,-4.0096,-4.0096,-4.0096,-4.0096,-4.0096,-4.0096,-3.9977,-3.9503,-3.9174,-3.865,-3.7432,-3.6981,-3.6575,-3.5752,-3.56,-3.56,-3.56,-3.56,-3.56,-3.56,-3.56,-3.56,-3.56,-3.4298,-3.3406,-3.3406,-3.2087,-3.119,-3.119,-3.119,-3.119,-3.119,-3.119,-3.119,-3.119,-3.119,-3.119,-3.119,-3.119,-3.119,-3.119,-3.119,-3.119,-3.119,-3.119,-3.119,-4.0973,-4.2053,-4.2765,-4.2248,-4.2406,-4.2475,-4.1337,-4.1511,-4.2015,-4.2424,-4.3127,-4.3808,-4.4466,-4.514,-4.5726,-4.6204,-4.6681,-4.704,-4.7279,-4.7309,-4.7145,-4.6726,-4.6681,-4.6891,0.0,0.0,0.0,-4.7919,-4.6346,-4.5403,-4.5485,-4.4116,-4.329,-4.329,-4.3927,-4.4259,-4.4259,-4.3998,-4.3369,-4.241,-4.1484,-4.0774,-4.0239,-4.0808,-4.1011,-4.0848,-3.9882,-3.966,-3.9969,-3.921,-3.9193,-3.9705,-3.9995,-4.0096,-4.0096,-4.0096,-4.0096,-4.0096,-4.0096,-4.0096,-4.0096,-4.0096,-4.0096,-4.0096,-4.0096,-4.0096,-4.0096,-4.0096,-4.0096,-4.0096,-4.0096,-4.0096,-3.9977,-3.952,-3.8988,-3.8413,-3.7743,-3.6941,-3.6299,-3.6079,-3.5785,-3.56,-3.56,-3.56,-3.56,-3.56,-3.56,-3.56,-3.56,-3.4539,-3.3694,-3.344,-3.2324,-3.1478,-3.1207,-3.119,-3.119,-3.119,-3.119,-3.119,-3.119,-3.119,-3.119,-3.119,-3.119,-3.119,-3.119,-3.119,-3.119,-3.119,-3.119,-3.119,-4.2376,-4.3278,-4.3997,-4.4642,-4.4812,-4.4548,-4.3545,-4.2845,-4.2396,-4.2351,-4.2351,-4.253,-4.308,-4.3783,-4.4736,-4.5965,-4.6264,-4.6591,-4.7219,-4.7309,-4.7309,-4.7309,-4.7309,-4.7309,-4.7381,-4.6741,0.0,-4.8174,0.0,-4.4488,-4.4754,-4.3871,-4.3334,-4.329,-4.329,-4.329,-4.329,-4.2043,-4.0726,-3.9388,-3.9388,-3.9388,-3.9388,-3.9388,-3.9819,-4.0452,-3.9117,-3.8998,-3.9662,-3.9035,-3.8827,-3.8962,-3.9756,-4.007,-4.0096,-4.0096,-4.0096,-4.0096,-4.0096,-4.0096,-4.0096,-4.0096,-4.0096,-4.0096,-4.0096,-4.0096,-4.0096,-4.0096,-4.0096,-4.0096,-4.0096,-4.0096,-4.0096,-4.0045,-3.8971,-3.8142,-3.8802,-3.7246,-3.5943,-3.666,-3.6146,-3.56,-3.56,-3.56,-3.56,-3.56,-3.56,-3.56,-3.56,-3.4962,-3.4218,-3.3491,-3.273,-3.2005,-3.1258,-3.119,-3.119,-3.119,-3.119,-3.119,-3.119,-3.119,-3.119,-3.119,-3.119,-3.119,-3.119,-3.119,-3.119,-3.119,-3.119,-3.119,-4.2236,-4.3516,-4.4595,-4.4765,-4.4812,-4.4598,-4.3848,-4.3008,-4.2261,-4.1767,-4.1662,-4.1722,-4.1848,-4.321,-4.4421,-4.4766,-4.6082,-4.7115,-4.7279,-4.7309,-4.7309,-4.7309,-4.7309,-4.7609,-4.8335,-4.757,0.0,0.0,-4.6128,-4.4873,-4.4438,-4.4168,-4.3838,-4.3305,-4.329,-4.329,-4.329,-4.2043,-4.0726,-3.9388,-3.9388,-3.9388,-3.9388,-3.9388,-3.8962,-3.8213,-3.788,-3.7619,-3.7434,-3.724,-3.7873,-3.8908,-3.9139,-3.9584,-4.0096,-4.0096,-4.0096,-4.0096,-4.0096,-4.0096,-4.0096,-4.0096,-4.0096,-4.0096,-4.0096,-4.0096,-4.0096,-4.0096,-4.0096,-4.0096,-4.0096,-4.0096,-3.996,-3.9419,-3.8988,-3.8616,-3.8261,-3.7736,-3.7212,-3.688,-3.6146,-3.56,-3.56,-3.56,-3.56,-3.56,-3.56,-3.56,-3.56,-3.4962,-3.4218,-3.3491,-3.273,-3.2005,-3.1258,-3.119,-3.119,-3.119,-3.119,-3.119,-3.119,-3.119,-3.119,-3.119,-3.119,-3.119,-3.119,-3.119,-3.119,-3.119,-3.119,-3.119,-4.2781,-4.4195,-4.5431,-4.5431,-4.5195,-4.4757,-4.3982,-4.2604,-4.1437,-4.1025,-4.0726,-4.0606,-4.0905,-4.2087,-4.3314,-4.4167,-4.5499,-4.6636,-4.7219,-4.7309,-4.7309,-4.7309,-4.7309,-4.7538,-4.8115,-4.7651,-4.7372,0.0,-4.6418,-4.5334,-4.4362,-4.4317,-4.4003,-4.3319,-4.329,-4.3021,-4.2476,-4.1459,-4.0442,-3.9388,-3.9388,-3.9388,-3.9388,-3.9388,-3.8841,-3.7823,0.0,-3.7074,-3.6561,-3.6585,-3.7306,-3.8442,-3.8772,-3.9394,-4.0096,-4.0096,-4.0096,-4.0096,-4.0096,-4.0096,-4.0096,-4.0096,-4.0096,-4.0096,-4.0096,-4.0096,-4.0096,-4.0096,-4.0096,-4.0096,-4.0096,-4.0096,-3.9994,-3.9588,-3.9225,-3.8971,-3.887,-3.8362,-3.7787,-3.7347,-3.6654,-3.6129,-3.6129,-3.5819,-3.56,-3.56,-3.56,-3.56,-3.56,-3.525,-3.4709,-3.3964,-3.322,-3.2476,-3.1752,-3.1396,-3.119,-3.119,-3.119,-3.119,-3.119,-3.119,-3.119,-3.119,-3.119,-3.119,-3.119,-3.119,-3.119,-3.119,-3.119,-3.119,-4.3506,-4.4851,-4.6032,-4.6173,-4.568,-4.4928,-4.4053,-4.2153,-4.0514,-4.0329,-3.9813,-3.9589,-4.0172,-4.0876,-4.1998,-4.3883,-4.4811,-4.5768,-4.7115,-4.7309,-4.7309,-4.7309,-4.7309,-4.7309,-4.7309,-4.7309,-4.7309,-4.7309,-4.6696,-4.5768,-4.4511,-4.4362,-4.3973,-4.3185,-4.317,-4.2566,-4.1265,-4.0681,-4.0068,-3.9388,-3.9388,-3.9388,-3.9388,-3.9388,-3.9035,-3.8347,0.0,0.0,-3.6634,-3.6503,-3.698,-3.7835,-3.8386,-3.9139,-3.9927,-3.9927,-4.002,-4.0096,-4.0096,-4.0096,-4.0096,-4.0096,-4.0096,-4.007,-3.9978,-3.9927,-3.9927,-3.9825,-3.9876,-3.9927,-3.9825,-3.9876,-3.9927,-3.9825,-3.9312,-3.9001,-3.9664,-3.879,-3.7887,-3.7898,-3.7297,-3.6778,-3.666,-3.6062,-3.5577,-3.547,-3.547,-3.547,-3.547,-3.5538,-3.5312,-3.4573,-3.3931,-3.3254,-3.2513,-3.187,-3.1444,-3.1343,-3.1343,-3.1292,-3.119,-3.1131,-3.1131,-3.119,-3.1131,-3.1131,-3.119,-3.119,-3.119,-3.119,-3.119,-3.119,-4.3332,-4.419,-4.5227,-4.6012,-4.5661,-4.492,-4.4261,-4.2742,-4.1112,-3.9839,-3.9499,-3.9454,-3.9574,-4.0561,-4.1848,-4.323,-4.4511,-4.5768,-4.7115,-4.7309,-4.7309,-4.7309,-4.7309,-4.7309,-4.7309,-4.7309,0.0,0.0,0.0,-4.5978,-4.517,-4.4601,-4.3763,-4.2605,-4.2575,-4.1908,-4.0591,-4.0457,-4.0068,-3.9388,-3.9388,-3.9388,-3.9388,-3.9388,-3.9035,-3.8347,0.0,0.0,-3.7306,-3.6167,-3.6508,-3.7764,-3.7203,-3.7873,-3.9113,-3.9113,-3.9516,-4.0096,-4.0096,-4.0096,-4.0096,-4.0096,-4.0096,-3.9995,-3.9315,-3.9113,-3.8978,-3.8374,-3.8652,-3.8978,-3.8346,-3.8652,-3.8951,-3.8346,-3.8096,-3.8032,-3.8161,-3.7997,-3.7834,-3.7887,-3.7297,-3.6592,-3.5926,-3.5684,-3.5407,-3.4871,-3.4759,-3.4759,-3.4759,-3.5253,-3.5312,-3.4573,-3.4387,-3.4015,-3.3271,-3.3085,-3.2763,-3.2158,-3.2107,-3.1853,-3.1224,-3.072,-3.0679,-3.119,-3.0699,-3.0699,-3.119,-3.119,-3.119,-3.119,-3.119,-3.119,-4.329,-4.4028,-4.4909,-4.5358,-4.4665,-4.3835,-4.3558,-4.1945,-4.0294,-3.9541,-3.9388,-3.9388,-3.9388,-4.0217,-4.119,-4.2162,-4.3135,-4.4347,-4.6022,-4.6262,-4.6516,-4.7219,-4.7309,-4.7309,-4.7309,-4.7309,-4.716,-4.6815,0.0,-4.5648,-4.5319,-4.4347,-4.3359,-4.2425,-4.2066,-4.1422,-4.0412,-4.0053,-3.9723,-3.9388,-3.9388,-3.9388,-3.9388,-3.9388,-3.8856,-3.7853,-3.7539,0.0,-3.6447,-3.5771,-3.6164,-3.7144,-3.6752,-3.7306,-3.833,-3.833,-3.8569,-3.8968,-3.9358,-3.9489,-3.9489,-3.9489,-3.9756,-3.9952,-3.9139,-3.8908,-3.8745,-3.8007,-3.8064,-3.8262,-3.7892,-3.8064,-3.8246,-3.7892,-3.7793,-3.7793,-3.7793,-3.7794,-3.7807,-3.7844,-3.7278,-3.6544,-3.5773,-3.5325,-3.4847,-3.4186,-3.4087,-3.4087,-3.4087,-3.4374,-3.4691,-3.5048,-3.4726,-3.4228,-3.3506,-3.31,-3.2436,-3.1391,-3.1618,-3.1307,-3.0305,-3.0293,-3.0435,-3.072,-3.0456,-3.0456,-3.072,-3.072,-3.0559,-3.0272,-3.0597,-3.072,-4.3245,-4.3888,-4.451,-4.4737,-4.3758,-4.2771,-4.2807,-4.1184,-3.9646,-3.9445,-3.9388,-3.9388,-3.9388,-3.9843,-4.0442,-4.1287,-4.1976,-4.3084,-4.502,-4.5424,-4.5963,-4.716,-4.7309,-4.7309,-4.7309,-4.7174,0.0,-4.6324,0.0,0.0,-4.4885,-4.3858,-4.297,-4.2216,-4.1692,-4.0995,-4.0187,-3.9679,-3.9388,-3.9388,-3.9388,-3.9388,-3.9388,-3.9388,-3.8766,-3.7614,-3.7464,0.0,0.0,-3.5614,-3.5911,-3.6569,-3.6415,-3.6828,-3.7544,-3.7544,-3.7661,-3.7892,-3.8469,-3.8663,-3.8663,-3.8663,-3.9209,-3.9662,-3.8701,-3.8425,-3.8258,-3.7515,-3.7427,-3.7515,-3.7354,-3.7427,-3.7515,-3.7354,-3.7294,-3.7354,-3.7515,-3.7556,-3.7514,-3.7382,-3.6911,-3.6295,-3.5399,-3.4759,-3.4161,-3.3495,-3.3391,-3.3391,-3.3391,-3.3391,-3.3836,-3.5028,-3.4666,-3.4093,-3.3563,-3.2985,-3.2073,-3.0718,-3.1063,-3.0758,-2.9438,-2.9739,-2.9995,-3.0086,-2.9978,-2.9995,-3.0102,-3.0102,-2.9848,-2.9406,-2.9908,-3.0102,-4.3125,-4.3369,-4.3669,-4.4586,-4.3737,-4.2731,-4.2771,-4.1647,-4.0378,-3.9574,-3.9388,-3.9388,-3.9388,-3.9433,-3.9918,-4.1175,-4.1976,-4.3084,-4.502,-4.5828,-4.6501,-4.7219,-4.7309,-4.7309,-4.7309,-4.677,-4.6396,-4.6279,0.0,0.0,-4.3499,-4.3364,-4.2761,-4.1504,-4.1414,-4.0786,-3.9514,-3.9454,-3.9388,-3.9388,-3.9388,-3.9388,-3.9388,-3.9388,-3.9005,-3.8257,0.0,0.0,0.0,-3.6023,-3.5911,-3.6523,-3.5863,-3.607,-3.6691,-3.6691,-3.7174,-3.7822,-3.7863,-3.7892,-3.7892,-3.7892,-3.8386,-3.8745,-3.7277,-3.6813,-3.6676,-3.5926,-3.6196,-3.6569,-3.5878,-3.6212,-3.6538,-3.5878,-3.5716,-3.5894,-3.6569,-3.6705,-3.6554,-3.6018,-3.583,-3.5385,-3.4031,-3.3732,-3.3453,-3.2788,-3.2695,-3.2695,-3.2695,-3.2695,-3.296,-3.3726,-3.3721,-3.3664,-3.3588,-3.354,-3.2889,-3.1494,-3.1446,-3.0869,-2.9454,-2.8943,-2.8919,-2.9473,-2.8943,-2.8943,-2.9473,-2.9473,-2.9451,-2.9406,-2.9451,-2.9473,-4.2671,-4.303,-4.3409,-4.381,-4.2887,-4.1938,-4.196,-4.0891,-3.9829,-3.9481,-3.9388,-3.9388,-3.9388,-3.9388,-3.9553,-4.0113,-4.0427,-4.128,-4.3294,-4.3763,-4.4481,-4.5918,-4.6097,-4.6097,-4.6097,0.0,-4.5544,-4.514,0.0,0.0,-4.3305,-4.329,-4.2731,-4.1429,-4.1422,-4.0756,-3.9388,-3.9388,-3.9388,-3.9388,-3.9388,-3.9388,-3.9373,-3.899,-3.8437,-3.7764,0.0,0.0,0.0,-3.5724,-3.5668,-3.5926,-3.5619,-3.5668,-3.5943,-3.5943,-3.6133,-3.6492,-3.6919,-3.7084,-3.7084,-3.7084,-3.7293,-3.7408,-3.6783,-3.6615,-3.6446,-3.5701,-3.5701,-3.5863,-3.5587,-3.5733,-3.5863,-3.5554,-3.5504,-3.5587,-3.5863,-3.5937,-3.5886,-3.5636,-3.5288,-3.4717,-3.3716,-3.3253,-3.2761,-3.2035,-3.1923,-3.1923,-3.1923,-3.1923,-3.2035,-3.2312,-3.3103,-3.3443,-3.3039,-3.2986,-3.2248,-3.0479,-3.0703,-3.0129,-2.8389,-2.8439,-2.8606,-2.885,-2.863,-2.863,-2.885,-2.885,-2.8662,-2.8328,-2.8685,-2.885,-4.2246,-4.2551,-4.2806,-4.2985,-4.2058,-4.1085,-4.1085,-4.0232,-3.9388,-3.9388,-3.9388,-3.9388,-3.9388,-3.9388,-3.9388,-3.9388,-3.9589,-4.0337,-4.2156,-4.256,-4.3299,-4.508,-4.5289,-4.5289,-4.5289,-4.5125,-4.4736,0.0,0.0,0.0,0.0,-4.3045,-4.2536,-4.1414,-4.119,-4.0546,-3.9388,-3.9388,-3.9388,-3.9388,-3.9388,-3.932,-3.9095,-3.8616,-3.7928,-3.7105,0.0,0.0,0.0,-3.5504,-3.5504,-3.5504,-3.5504,-3.5504,-3.5504,-3.5504,-3.5504,-3.5554,-3.6086,-3.6275,-3.6275,-3.6275,-3.6275,-3.6275,-3.6275,-3.6275,-3.6165,-3.5636,-3.5504,-3.5504,-3.5504,-3.5504,-3.5504,-3.5504,-3.5504,-3.5504,-3.5504,-3.5499,-3.5447,-3.5233,-3.4707,-3.4048,-3.3326,-3.2673,-3.2092,-3.1582,-3.1511,-3.1511,-3.1511,-3.1511,-3.1511,-3.1511,-3.2379,-3.2799,-3.2327,-3.2272,-3.1528,-2.9708,-2.9989,-2.9444,-2.767,-2.7993,-2.8222,-2.8222,-2.8222,-2.833,-2.852,-2.833,-2.8124,-2.7899,-2.8149,-2.8222,-4.1871,-4.1931,-4.1602,-4.2246,-4.1422,-4.0412,-4.0412,-3.9903,-3.9388,-3.9388,-3.9388,-3.9388,-3.9388,-3.9388,-3.9388,-3.9388,-3.9963,-4.0846,-4.2216,-4.291,-4.3768,-4.514,-4.5289,-4.5289,-4.5289,-4.4706,-4.4007,0.0,0.0,0.0,0.0,-4.241,-4.2111,-4.1399,-4.0756,-4.0098,-3.9388,-3.9388,-3.9388,-3.9388,-3.9388,-3.9065,-3.8407,-3.8392,-3.7704,0.0,0.0,0.0,0.0,-3.5504,-3.5504,-3.5504,-3.5504,-3.5504,-3.5504,-3.5504,-3.5504,-3.5504,-3.5504,-3.5504,-3.5504,-3.5504,-3.5504,-3.5504,-3.5504,-3.5504,-3.5504,-3.5504,-3.5504,-3.5504,-3.5504,-3.5504,-3.5504,-3.5504,-3.5504,-3.5504,-3.5504,-3.5504,-3.5295,-3.4638,-3.3964,-3.3305,-3.2632,-3.1929,-3.1511,-3.1511,-3.1511,-3.1511,-3.1511,-3.1511,-3.1511,-3.1511,-3.1496,-3.1524,-3.1496,-3.1496,-3.0971,-2.9696,-2.9606,-2.9007,-2.766,-2.7625,-2.7625,-2.7625,-2.7625,-2.7929,-2.8592,-2.7929,-2.7944,-2.8577,-2.7914,-2.7625,-3.9604,-4.0172,-4.0651,-4.0412,-4.0038,-3.9723,-3.9723,-3.9574,-3.9388,-3.9388,-3.9388,-3.9388,-3.9388,-3.9388,-3.9574,-4.0023,-4.0262,-4.0861,-4.2216,-4.2575,-4.2985,-4.3813,-4.3917,-4.3917,0.0,0.0,0.0,0.0,0.0,0.0,0.0,-4.1542,-4.0935,-4.0711,-4.0502,-4.0083,-3.9388,-3.9388,-3.9388,-3.9373,-3.8945,-3.8601,-3.8362,-3.7494,0.0,0.0,0.0,0.0,0.0,-3.5504,-3.5504,-3.5504,-3.5504,-3.5504,-3.5504,-3.5504,-3.5504,-3.5504,-3.5504,-3.5504,-3.5504,-3.5504,-3.5504,-3.5504,-3.5504,-3.5504,-3.5504,-3.5504,-3.5504,-3.5504,-3.5504,-3.5504,-3.5504,-3.5504,-3.5504,-3.5504,-3.5504,-3.5504,-3.5444,-3.522,-3.4622,-3.3963,-3.3305,-3.2647,-3.2019,-3.157,-3.1511,-3.1511,-3.1511,-3.1511,-3.1511,-3.1511,-3.1511,-3.1511,-3.1511,-3.1511,-3.0943,-2.9696,-2.9606,-2.9007,-2.766,-2.76,-2.7824,-2.8263,-2.8278,-2.8607,-2.9265,-2.8607,-2.8169,-2.7914,-2.7705,-2.76,-3.8377,-3.8811,-3.923,-3.9065,-3.8841,-3.8661,-3.8661,-3.8856,-3.896,-3.8706,-3.9065,-3.9298,-3.908,-3.9245,-3.9559,-3.9963,-4.0023,-4.0487,-4.1841,-4.2036,-4.2327,-4.3185,-4.329,0.0,0.0,-4.329,0.0,0.0,0.0,0.0,0.0,-4.0846,-4.0292,-4.0038,-4.0023,-3.9828,-3.9388,-3.9388,-3.9254,-3.9035,-3.8601,-3.8138,-3.7644,-3.6851,0.0,0.0,0.0,0.0,0.0,-3.5504,-3.5504,-3.5504,-3.5504,-3.5504,-3.5504,-3.5504,-3.5504,-3.5504,-3.5504,-3.5504,-3.5504,-3.5504,-3.5504,-3.5504,-3.5504,-3.5504,-3.5504,-3.5504,-3.5504,-3.5504,-3.5504,-3.5504,-3.5504,-3.5504,-3.5504,-3.5504,-3.5504,-3.5504,-3.5504,-3.5504,-3.4951,-3.4384,-3.3933,-3.311,-3.2348,-3.1929,-3.166,-3.1511,-3.1511,-3.1511,-3.1511,-3.1511,-3.1511,-3.1511,-3.1511,-3.1511,-3.1047,-2.9998,-2.9741,-2.9232,-2.8393,-2.8124,-2.8304,-2.8951,-2.8966,-2.928,-2.9924,-2.928,-2.8622,-2.7974,-2.772,-2.76,0.0,-3.7764,-3.7479,-3.8048,-3.7764,-3.7345,-3.7345,-3.7853,0.0,-3.7539,-3.8407,-3.9095,-3.8497,-3.8916,-3.9379,-3.9469,-3.9493,-3.9993,-4.1205,-4.1452,-4.1923,-4.314,-4.329,0.0,-4.329,0.0,0.0,0.0,0.0,0.0,0.0,-4.0352,-4.0053,-3.9403,-3.9328,-3.9313,-3.9313,-3.9313,-3.9005,-3.8317,-3.8272,-3.7629,-3.6492,-3.6432,0.0,0.0,0.0,0.0,0.0,-3.5504,-3.5504,-3.5504,-3.5504,-3.5504,-3.5504,-3.5504,-3.5504,-3.5504,-3.5504,-3.5504,-3.5504,-3.5504,-3.5504,-3.5504,-3.5504,-3.5504,-3.5504,-3.5504,-3.5504,-3.5504,-3.5504,-3.5504,-3.5504,-3.5504,-3.5504,-3.5504,-3.5504,-3.5504,-3.5504,-3.5504,-3.4996,-3.4548,-3.4459,-3.3395,-3.2557,-3.2452,-3.1899,-3.1511,-3.1511,-3.1511,-3.1511,-3.1511,-3.1511,-3.1511,-3.1511,-3.1511,-3.1212,-3.0552,-2.9968,-2.9651,-2.9606,-2.8996,-2.8981,-2.9666,-2.9726,-2.9968,-3.0432,-2.9864,-2.922,-2.8502,-2.7899,-2.76,-3.6103,0.0,-3.6626,-3.6267,-3.6447,-3.6701,0.0,-3.718,-3.7599,-3.7434,-3.7659,-3.7988,-3.8317,-3.8527,-3.8975,-4.0008,-4.0591,-4.1025,-4.1377,-4.1856,-4.247,-4.32,-4.329,-4.329,-4.329,0.0,0.0,0.0,0.0,0.0,0.0,-3.9918,-3.9574,-3.9388,-3.8901,-3.8631,-3.8631,-3.8631,-3.8302,-3.7629,-3.7165,-3.6776,-3.6477,-3.5968,0.0,0.0,0.0,0.0,-3.5504,-3.5504,-3.5504,-3.5504,-3.5504,-3.5504,-3.5504,-3.5504,-3.5504,-3.5504,-3.5504,-3.5504,-3.5504,-3.5504,-3.5504,-3.5504,-3.5504,-3.5504,-3.5504,-3.5504,-3.5504,-3.5504,-3.5504,-3.5504,-3.5504,-3.5504,-3.5504,-3.5504,-3.5504,-3.5504,-3.5504,-3.5504,-3.537,-3.4936,-3.3903,-3.3469,-3.2916,-3.1884,-3.16,-3.1511,-3.1511,-3.1511,-3.1511,-3.1511,-3.1511,-3.1511,-3.1511,-3.1511,-3.1212,-3.0552,-3.0372,-3.0073,-2.9636,-2.9457,-2.9666,-3.0283,-3.0778,-3.0657,-2.9804,-2.9681,-2.8992,-2.7839,-2.7675,-2.76,-3.5504,-3.5983,-3.6402,-3.6043,-3.6222,-3.6492,-3.6492,-3.6746,-3.6896,-3.6596,-3.7,-3.7524,-3.7868,-3.8182,-3.8736,-3.9783,-4.0247,-4.0696,-4.1294,-4.1991,-4.2635,-4.3215,-4.329,-4.317,0.0,0.0,0.0,0.0,0.0,0.0,0.0,-3.9619,-3.9388,-3.9388,-3.8751,-3.8392,-3.8392,-3.8093,-3.7614,-3.6985,-3.6656,-3.6327,-3.6028,-3.5669,0.0,0.0,0.0,0.0,-3.5504,-3.5504,-3.5504,-3.5504,-3.5504,-3.5504,-3.5504,-3.5504,-3.5504,-3.5504,-3.5504,-3.5504,-3.5504,-3.5504,-3.5504,-3.5504,-3.5504,-3.5504,-3.5504,-3.5504,-3.5504,-3.5504,-3.5504,-3.5504,-3.5504,-3.5504,-3.5504,-3.5504,-3.5504,-3.5504,-3.5504,-3.5504,-3.525,-3.4801,-3.4068,-3.344,-3.2796,-3.2064,-3.1705,-3.1511,-3.1511,-3.1511,-3.1511,-3.1511,-3.1511,-3.1511,-3.1511,-3.1511,-3.1346,-3.0972,-3.0672,-3.0492,-3.0477,-3.0178,-3.0313,-3.0943,-3.1316,-3.1002,-2.9998,-2.9756,-2.9082,-2.8064,-2.775,-2.76,-3.5624,-3.6133,-3.6582,-3.6387,-3.6417,-3.6462,-3.6357,-3.6342,-3.6178,-3.5624,-3.6372,-3.718,-3.7375,-3.7943,-3.8646,-3.9439,-3.9649,-4.0172,-4.1489,-4.2111,-4.2605,-4.312,-4.314,0.0,0.0,0.0,0.0,0.0,0.0,0.0,0.0,-3.9388,-3.9328,-3.9275,-3.8601,-3.8197,-3.8108,-3.7539,-3.6956,-3.6342,-3.6342,-3.6043,-3.5504,-3.5504,-3.5504,0.0,0.0,0.0,-3.5504,-3.5504,-3.5504,-3.5504,-3.5504,-3.5504,-3.5504,-3.5504,-3.5504,-3.5504,-3.5504,-3.5504,-3.5504,-3.5504,-3.5504,-3.5504,-3.5504,-3.5504,-3.5504,-3.5504,-3.5504,-3.5504,-3.5504,-3.5504,-3.5504,-3.5504,-3.5504,-3.5504,-3.5504,-3.5504,-3.5504,-3.5504,-3.504,-3.4593,-3.4399,-3.341,-3.2572,-3.2392,-3.1854,-3.1511,-3.1511,-3.1511,-3.1511,-3.1511,-3.1511,-3.1511,-3.1511,-3.1511,-3.1511,-3.1511,-3.0957,-3.0898,-3.1481,-3.0943,-3.0913,-3.1496,-3.1511,-3.1167,-3.0507,-2.9879,-2.9295,-2.8727,-2.7959,-2.7645,-3.6178,-3.6791,-3.7,-3.5923,-3.6073,-3.6342,-3.5789,-3.5654,-3.5624,-3.5534,-3.5669,-3.6133,-3.721,-3.7943,-3.8796,-4.0053,-4.0711,-4.1534,-4.2811,0.0,-4.2425,-4.2545,0.0,0.0,0.0,0.0,0.0,0.0,0.0,0.0,0.0,-3.9388,-3.9155,-3.8556,-3.7898,-3.73,-3.6791,-3.6671,-3.6297,-3.5654,-3.5654,-3.5609,-3.5504,-3.5504,-3.5504,0.0,0.0,-3.5504,-3.5504,-3.5504,-3.5504,-3.5504,-3.5504,-3.5504,-3.5504,-3.5504,-3.5504,-3.5504,-3.5504,-3.5504,-3.5504,-3.5504,-3.5504,-3.5504,-3.5504,-3.5504,-3.5504,-3.5504,-3.5504,-3.5504,-3.5504,-3.5504,-3.5504,-3.5504,-3.5504,-3.5504,-3.5504,-3.5504,-3.5504,-3.5504,-3.5429,-3.4996,-3.3844,-3.3484,-3.2961,-3.1824,-3.157,-3.1511,-3.1511,-3.1511,-3.1511,-3.1511,-3.1511,-3.1511,-3.1511,-3.1511,-3.1511,-3.1511,-3.1406,-3.1391,-3.1511,-3.1406,-3.1391,-3.1511,-3.1511,-3.1167,-3.0507,-2.9879,-2.9562,-2.9427,-2.8184,-2.7899,-3.5192,-3.5619,-3.5804,-3.4655,-3.5952,-3.7434,-3.7135,-3.6791,-3.6537,-3.6537,-3.6537,-3.6821,-3.7764,-3.8182,-3.8826,-4.0172,-4.095,-4.1713,-4.2671,-4.2252,-4.2006,0.0,0.0,0.0,0.0,0.0,0.0,0.0,0.0,0.0,0.0,0.0,-3.8556,-3.7883,-3.724,-3.6776,-3.6492,-3.6133,-3.5804,-3.5504,-3.5504,-3.5504,-3.5504,-3.5504,-3.5504,-3.5504,0.0,-3.5504,-3.5504,-3.5504,-3.5504,-3.5504,-3.5504,-3.5504,-3.5504,-3.5504,-3.5504,-3.5504,-3.5504,-3.5504,-3.5504,-3.5504,-3.5504,-3.5504,-3.5504,-3.5504,-3.5504,-3.5504,-3.5504,-3.5504,-3.5504,-3.5504,-3.5504,-3.5504,-3.5504,-3.5504,-3.5504,-3.5504,-3.5504,-3.5504,-3.5205,-3.4756,-3.4159,-3.344,-3.2766,-3.2123,-3.1735,-3.1511,-3.1511,-3.1511,-3.1511,-3.1511,-3.1511,-3.1511,-3.1511,-3.1511,-3.1511,-3.1511,-3.1511,-3.1511,-3.1511,-3.1511,-3.1511,-3.1511,-3.1511,-3.1167,-3.0507,-3.0223,-2.9909,-2.9592,-2.8618,-2.8293,-3.4467,-3.479,-3.5076,-3.394,-3.5496,-3.7396,-3.7899,-3.7421,-3.7,-3.7535,-3.7524,-3.7599,-3.8272,-3.8646,-3.9245,-4.0442,-4.1055,-4.1587,-4.2096,-4.1737,-4.1504,0.0,0.0,0.0,0.0,0.0,0.0,0.0,0.0,0.0,0.0,0.0,-3.7868,-3.721,-3.6731,-3.6417,-3.6252,-3.5759,-3.5504,-3.5504,-3.5504,-3.5504,-3.5504,-3.5504,-3.5504,-3.5504,-3.5504,-3.5504,-3.5504,-3.5504,-3.5504,-3.5504,-3.5504,-3.5504,-3.5504,-3.5504,-3.5504,-3.5504,-3.5504,-3.5504,-3.5504,-3.5504,-3.5504,-3.5504,-3.5504,-3.5504,-3.5504,-3.5504,-3.5504,-3.5504,-3.5504,-3.5504,-3.5504,-3.5504,-3.5504,-3.5504,-3.5504,-3.5504,-3.5504,-3.5504,-3.5085,-3.4622,-3.4339,-3.341,-3.2647,-3.2303,-3.1824,-3.1511,-3.1511,-3.1511,-3.1511,-3.1511,-3.1511,-3.1511,-3.1511,-3.1511,-3.1511,-3.1511,-3.1511,-3.1511,-3.1511,-3.1511,-3.1511,-3.1511,-3.1511,-3.1241,-3.0746,-3.0582,-3.0342,-3.0013,-2.9041,-2.8682,-3.5038,-3.5649,-3.6074,-3.4843,-3.4224,-3.4483,-3.6466,-3.6021,-3.5767,-3.7873,-3.7838,-3.7599,-3.8272,-3.9409,-4.0487,-4.119,-4.1392,-4.1437,-4.1482,0.0,0.0,0.0,0.0,0.0,0.0,0.0,0.0,0.0,0.0,0.0,0.0,0.0,0.0,-3.6567,-3.6507,-3.6193,-3.5579,-3.5534,-3.5504,-3.5504,-3.5504,-3.5504,-3.5504,-3.5504,-3.5504,-3.5504,-3.5504,-3.5504,-3.5504,-3.5504,-3.5504,-3.5504,-3.5504,-3.5504,-3.5504,-3.5504,-3.5504,-3.5504,-3.5504,-3.5504,-3.5504,-3.5504,-3.5504,-3.5504,-3.5504,-3.5504,-3.5504,-3.5504,-3.5504,-3.5504,-3.5504,-3.5504,-3.5504,-3.5504,-3.5504,-3.5504,-3.5504,-3.5504,-3.5504,-3.5504,-3.5459,-3.504,-3.3784,-3.3484,-3.3006,-3.1765,-3.1525,-3.1511,-3.1511,-3.1511,-3.1511,-3.1511,-3.1511,-3.1511,-3.1511,-3.1511,-3.1511,-3.1511,-3.1511,-3.1511,-3.1511,-3.1511,-3.1511,-3.1511,-3.1511,-3.1481,-3.1436,-3.0806,-3.0806,-3.1316,-2.9475,-2.8921,-3.2847,-3.3156,-3.3427,-3.2393,-3.1902,-3.2576,-3.57,-3.6641,-3.7178,-3.8308,-3.8907,-3.9215,-3.905,-3.9783,-4.0487,-4.0726,-4.1115,-4.1422,-4.1422,0.0,0.0,0.0,0.0,0.0,0.0,0.0,0.0,0.0,0.0,0.0,0.0,0.0,0.0,-3.5893,-3.5878,-3.5759,-3.5504,-3.5504,-3.5504,-3.5504,-3.5504,-3.5504,-3.5504,-3.5504,-3.5504,-3.5504,-3.5504,-3.5504,-3.5504,-3.5504,-3.5504,-3.5504,-3.5504,-3.5504,-3.5504,-3.5504,-3.5504,-3.5504,-3.5504,-3.5504,-3.5504,-3.5504,-3.5504,-3.5504,-3.5504,-3.5504,-3.5504,-3.5504,-3.5504,-3.5504,-3.5504,-3.5504,-3.5504,-3.5504,-3.5504,-3.5504,-3.5504,-3.5504,-3.5504,-3.5504,-3.5504,-3.5205,-3.4262,-3.3769,-3.3185,-3.2243,-3.1765,-3.1511,-3.1511,-3.1511,-3.1511,-3.1511,-3.1511,-3.1511,-3.1511,-3.1511,-3.1511,-3.1511,-3.1511,-3.1511,-3.1511,-3.1511,-3.1511,-3.1511,-3.1511,-3.1511,-3.1511,-3.1241,-3.1032,-3.0838,-2.9744,-2.9131,-3.1462,-3.1681,-3.1874,-3.0646,-3.0694,-3.1731,-3.4353,-3.5953,-3.7173,-3.8001,-3.8754,-3.9173,-3.8951,-3.9099,-3.9432,-3.9979,-4.0181,-4.0388,-4.0719,0.0,0.0,0.0,0.0,0.0,0.0,0.0,0.0,0.0,0.0,0.0,0.0,0.0,0.0,0.0,-3.5504,-3.5504,-3.5504,-3.5504,-3.5504,-3.5504,-3.5504,-3.5504,-3.5504,-3.5504,-3.5504,-3.5504,-3.5504,-3.5504,-3.5504,-3.5504,-3.5504,-3.5504,-3.5504,-3.5504,-3.5504,-3.5504,-3.5504,-3.5504,-3.5504,-3.5504,-3.5504,-3.5504,-3.5504,-3.5504,-3.5504,-3.5504,-3.5504,-3.5504,-3.5504,-3.5504,-3.5504,-3.5504,-3.5504,-3.5504,-3.5504,-3.5504,-3.5504,-3.5504,-3.5504,-3.5504,-3.5504,-3.522,-3.4354,-3.3784,-3.32,-3.2303,-3.1795,-3.1511,-3.1511,-3.1511,-3.1511,-3.1511,-3.1511,-3.1511,-3.1511,-3.1511,-3.1511,-3.1511,-3.1511,-3.1511,-3.1511,-3.1511,-3.1511,-3.1511,-3.1511,-3.1511,-3.1511,-3.1286,-3.0943,-3.0477,-2.9421,-2.8824,-3.1426,-3.1852,-3.2119,-3.0254,-3.092,-3.2045,-3.2146,-3.3463,-3.5097,-3.6818,-3.6989,-3.7014,-3.7661,-3.7258,-3.7375,-3.9073,-3.8457,-3.8182,0.0,0.0,0.0,0.0,0.0,0.0,0.0,0.0,0.0,0.0,0.0,0.0,0.0,0.0,0.0,0.0,-3.5504,-3.5504,-3.5504,-3.5504,-3.5504,-3.5504,-3.5504,-3.5504,-3.5504,-3.5504,-3.5504,-3.5504,-3.5504,-3.5504,-3.5504,-3.5504,-3.5504,-3.5504,-3.5504,-3.5504,-3.5504,-3.5504,-3.5504,-3.5504,-3.5504,-3.5504,-3.5504,-3.5504,-3.5504,-3.5504,-3.5504,-3.5504,-3.5504,-3.5504,-3.5504,-3.5504,-3.5504,-3.5504,-3.5504,-3.5504,-3.5504,-3.5504,-3.5504,-3.5504,-3.5504,-3.5504,-3.5504,-3.5085,-3.3739,-3.3499,-3.3051,-3.1705,-3.1511,-3.1511,-3.1511,-3.1511,-3.1511,-3.1511,-3.1511,-3.1511,-3.1511,-3.1511,-3.1511,-3.1511,-3.1511,-3.1511,-3.1511,-3.1511,-3.1511,-3.1511,-3.1511,-3.1511,-3.1511,-3.0823,-3.0507,-3.0434,-2.844,-2.7898,-3.0279,-3.0676,-3.0958,-3.0035,-3.0694,-3.1574,-3.1631,-3.3257,-3.521,-3.6863,-3.6779,-3.642,-3.6654,-3.649,-3.655,-3.7056,-3.711,0.0,0.0,0.0,0.0,0.0,0.0,0.0,0.0,0.0,0.0,0.0,0.0,0.0,0.0,0.0,0.0,0.0,-3.5504,-3.5504,-3.5504,-3.5504,-3.5504,-3.5504,-3.5504,-3.5504,-3.5504,-3.5504,-3.5504,-3.5504,-3.5504,-3.5504,-3.5504,-3.5504,-3.5504,-3.5504,-3.5504,-3.5504,-3.5504,-3.5504,-3.5504,-3.5504,-3.5504,-3.5504,-3.5504,-3.5504,-3.5504,-3.5504,-3.5504,-3.5504,-3.5504,-3.5504,-3.5504,-3.5504,-3.5504,-3.5504,-3.5504,-3.5504,-3.5504,-3.5504,-3.5504,-3.5504,-3.5504,-3.5504,-3.5504,-3.522,-3.4369,-3.3799,-3.32,-3.2318,-3.1795,-3.1511,-3.1511,-3.1511,-3.1511,-3.1511,-3.1511,-3.1511,-3.1511,-3.1511,-3.1511,-3.1511,-3.1511,-3.1511,-3.1511,-3.1511,-3.1511,-3.1511,-3.1511,-3.1511,-3.1511,-3.1301,-3.0462,-2.9011,-2.8842,-2.791,-2.9792,-3.003,-3.0269,-3.0143,-3.0758,-3.1512,-3.1951,-3.3142,-3.4533,-3.5913,-3.5465,-3.4936,-3.522,-3.4828,0.0,-3.5466,-3.5395,0.0,0.0,0.0,0.0,0.0,0.0,0.0,0.0,0.0,0.0,0.0,0.0,0.0,0.0,0.0,0.0,0.0,-3.5504,-3.5504,-3.5504,-3.5504,-3.5504,-3.5504,-3.5504,-3.5504,-3.5504,-3.5504,-3.5504,-3.5504,-3.5504,-3.5504,-3.5504,-3.5504,-3.5504,-3.5504,-3.5504,-3.5504,-3.5504,-3.5504,-3.5504,-3.5504,-3.5504,-3.5504,-3.5504,-3.5504,-3.5504,-3.5504,-3.5504,-3.5504,-3.5504,-3.5504,-3.5504,-3.5504,-3.5504,-3.5504,-3.5504,-3.5504,-3.5504,-3.5504,-3.5504,-3.5504,-3.5504,-3.5504,-3.5504,-3.5295,-3.4623,-3.4174,-3.3574,-3.2647,-3.1929,-3.1511,-3.1511,-3.1511,-3.1511,-3.1511,-3.1511,-3.1511,-3.1511,-3.1511,-3.1511,-3.1511,-3.1511,-3.1511,-3.1511,-3.1511,-3.1511,-3.1511,-3.1511,-3.1511,-3.1511,-3.0657,-2.9621,-2.8396,-2.7878,-2.6952,-2.9818,-2.9792,-2.9917,-3.0419,-3.0934,-3.1599,-3.2679,-3.2973,-3.3259,-3.4254,-3.3526,-3.287,-3.3461,-3.2673,-3.2442,-3.4046,0.0,0.0,0.0,0.0,0.0,0.0,0.0,0.0,0.0,0.0,0.0,0.0,0.0,0.0,0.0,0.0,0.0,0.0,-3.5504,-3.5504,-3.5504,-3.5504,-3.5504,0.0,-3.5504,-3.5504,-3.5504,-3.5504,-3.5504,-3.5504,-3.5504,-3.5504,-3.5504,-3.5504,-3.5504,-3.5504,-3.5504,-3.5424,-3.5359,-3.5359,-3.5359,-3.5359,-3.5359,-3.5424,-3.5504,-3.5504,-3.5504,-3.5504,-3.5504,-3.5504,-3.5504,-3.5504,-3.5504,-3.5504,-3.5504,-3.5504,-3.5504,-3.5504,-3.5504,-3.5504,-3.5504,-3.5504,-3.5504,-3.5504,-3.5504,-3.531,-3.4713,-3.4548,-3.4023,-3.2706,-3.1974,-3.157,-3.1511,-3.1511,-3.1511,-3.1511,-3.1511,-3.1511,-3.1511,-3.1511,-3.1467,-3.1409,-3.1467,-3.1467,-3.138,-3.1467,-3.1511,-3.1511,-3.1511,-3.1467,-3.138,-2.9477,-2.8483,-2.8211,-2.6264,-2.5591,-2.9846,-2.9792,-2.9817,-2.9942,-3.0382,-3.0947,-3.1599,-3.175,-3.1946,-3.2625,-3.2168,-3.1764,-3.1891,-3.1714,-3.1667,0.0,0.0,0.0,0.0,0.0,0.0,0.0,0.0,0.0,0.0,0.0,0.0,0.0,0.0,0.0,0.0,0.0,0.0,-3.5504,-3.5504,-3.5504,-3.5504,-3.5504,-3.5504,0.0,-3.5504,-3.5504,-3.5504,-3.5504,-3.5504,-3.5504,-3.5504,-3.5504,-3.5504,-3.5504,-3.5504,-3.5504,-3.5504,-3.5019,-3.4312,-3.4312,-3.4312,-3.4312,-3.4312,-3.4839,-3.5504,-3.5504,-3.5504,-3.5504,-3.5504,-3.5504,-3.5504,-3.5504,-3.5504,-3.5504,-3.5504,-3.5504,-3.5504,-3.5504,-3.5504,-3.5504,-3.5504,-3.5504,-3.5504,-3.5504,-3.5504,-3.5459,-3.531,-3.4863,-3.4023,-3.2706,-3.2392,-3.2093,-3.157,-3.1511,-3.1511,-3.1511,-3.1511,-3.1511,-3.1511,-3.1511,-3.1219,-3.0614,-3.1161,-3.1219,-3.0584,-3.1161,-3.1511,-3.1511,-3.1511,-3.119,-3.0554,-3.0115,-2.8979,-2.7234,-2.7184,-2.6419,-3.0128,-2.991,-2.9854,-3.0118,-3.0595,-3.106,-3.1336,-3.1198,-3.1097,-3.1386,-3.1223,-3.1022,-3.1022,-3.0809,-3.062,0.0,0.0,0.0,0.0,0.0,0.0,0.0,0.0,0.0,0.0,0.0,0.0,0.0,0.0,0.0,0.0,-3.5504,-3.5504,-3.5504,-3.5504,-3.5504,-3.5504,-3.5504,-3.5504,-3.5504,-3.5504,-3.5504,-3.5504,-3.5504,-3.5504,-3.5504,-3.5504,-3.5504,-3.5504,-3.5504,-3.5504,-3.5457,-3.4986,-3.4461,-3.3959,-3.3484,-3.3345,-3.338,-3.3842,-3.4361,-3.4872,-3.5359,-3.5504,-3.5504,-3.5504,-3.5504,-3.5504,-3.5504,-3.5504,-3.5504,-3.5504,-3.5504,-3.5504,-3.5504,-3.5504,-3.5504,-3.5504,-3.5504,-3.5504,-3.5504,-3.5504,-3.5504,-3.5504,-3.4936,-3.4159,-3.314,-3.2721,-3.2243,-3.1585,-3.1511,-3.1511,-3.1511,-3.1161,-3.1087,-3.1467,-3.0777,-3.0299,-3.0299,-3.0299,-3.0299,-3.0299,-3.0703,-3.1117,-3.1511,-3.1117,-3.0718,-3.0299,-2.9209,-2.8066,-2.691,-2.6759,-2.6143,-3.0613,-3.0283,-3.0216,-3.0581,-3.105,-3.1339,-3.115,-3.0783,-3.047,-3.047,-3.047,-3.047,-3.047,-3.0093,-2.9792,0.0,0.0,0.0,0.0,0.0,0.0,0.0,0.0,0.0,0.0,0.0,0.0,0.0,0.0,0.0,-3.5504,-3.5504,-3.5504,-3.5504,-3.5504,-3.5504,-3.5504,-3.5504,-3.5504,-3.5504,-3.5504,-3.5504,-3.5504,-3.5504,-3.5504,-3.5504,-3.5504,-3.5504,-3.5504,-3.5504,-3.5392,-3.518,-3.4509,-3.3959,-3.3449,-3.282,-3.25,-3.2464,-3.3241,-3.3739,-3.4129,-3.4986,-3.5359,-3.5504,-3.5504,-3.5504,-3.5504,-3.5504,-3.5504,-3.5504,-3.5504,-3.5504,-3.5504,-3.5504,-3.5504,-3.5504,-3.5504,-3.5504,-3.5504,-3.5504,-3.5504,-3.5474,-3.5355,-3.475,-3.4077,-3.3409,-3.2721,-3.208,-3.1556,-3.138,-3.1351,-3.1511,-3.0644,-3.0419,-3.1219,-2.9889,-2.9254,-2.9827,-2.9317,-2.9254,-2.9827,-3.0011,-3.0389,-3.1058,-3.0554,-3.0238,-3.0072,-2.8035,-2.6959,-2.6811,-2.6103,-2.5749,-3.1589,-3.1451,-3.1302,-3.1154,-3.1164,-3.1017,-3.0187,-2.9955,-2.9905,-2.9905,-2.9905,-2.9905,-2.9905,-2.9842,0.0,0.0,0.0,0.0,0.0,0.0,0.0,0.0,0.0,0.0,0.0,0.0,0.0,0.0,0.0,0.0,-3.5504,-3.5504,-3.5504,-3.5504,-3.5504,-3.5504,-3.5504,-3.5504,-3.5504,-3.5504,-3.5504,-3.5504,-3.5504,-3.5504,-3.5504,-3.5504,-3.5504,-3.5504,-3.5504,-3.5504,-3.4986,-3.4279,-3.5019,-3.3768,-3.1669,-3.2357,-3.2105,-3.1389,-3.1536,-3.2629,-3.4027,-3.4177,-3.4791,-3.5504,-3.5504,-3.5504,-3.5504,-3.5504,-3.5504,-3.5504,-3.5504,-3.5504,-3.5504,-3.5504,-3.5504,-3.5504,-3.5504,-3.5504,-3.5504,-3.5504,-3.5504,-3.531,-3.4711,-3.3944,-3.3203,-3.2706,-3.1925,-3.1389,-3.1498,-3.0896,-3.0748,-3.1438,-3.0103,-2.9504,-3.0389,-2.9566,-2.8716,-2.8084,-2.8652,-2.8716,-2.8084,-2.878,-2.9223,-2.9317,-2.9981,-2.9919,-2.916,-2.8101,-2.7233,-2.6544,-2.6442,-2.6386,-3.2443,-3.1949,-3.1673,-3.192,-3.1609,-3.1068,-3.0696,-3.0177,-2.9792,-2.9792,-2.9792,-2.9792,-2.9792,-2.9792,0.0,0.0,0.0,0.0,0.0,0.0,0.0,0.0,0.0,0.0,0.0,0.0,0.0,0.0,0.0,-3.5504,-3.5504,-3.5504,-3.5504,-3.5504,-3.5504,-3.5504,-3.5504,-3.5504,-3.5504,-3.5504,-3.5504,-3.5504,-3.5504,-3.5504,-3.5504,-3.5504,-3.5504,-3.5504,-3.5504,-3.5504,-3.5246,-3.4773,-3.4124,-3.3115,-3.1888,-3.1267,-3.0771,-3.0482,-3.1007,-3.1742,-3.2522,-3.3031,-3.3856,-3.4658,-3.4658,-3.5052,-3.5504,-3.5504,-3.5504,-3.5504,-3.5504,-3.5504,-3.5504,-3.5504,-3.5504,-3.5504,-3.5504,-3.5504,-3.5385,-3.4996,-3.4936,-3.4569,-3.3427,-3.2896,-3.2449,-3.1876,-3.1051,-3.0603,-3.0791,-3.0072,-2.969,-3.0042,-2.9442,-2.916,-2.9535,-2.878,-2.8117,-2.7736,-2.7637,-2.7637,-2.7703,-2.8084,-2.8492,-2.9002,-2.8907,-2.8652,-2.8266,-2.7417,-2.685,-2.6499,-2.6499,-2.6499,-3.3106,-3.249,-3.2203,-3.2611,-3.2209,-3.1676,-3.1569,-3.0833,-3.0139,-3.0139,-2.9972,-2.9792,-2.9792,0.0,0.0,0.0,0.0,0.0,0.0,0.0,0.0,0.0,0.0,0.0,0.0,0.0,0.0,0.0,0.0,-3.5133,-3.5133,-3.5359,-3.5504,-3.5504,-3.5504,-3.5504,-3.5504,-3.5504,-3.5504,-3.5504,-3.5504,-3.5504,-3.5504,-3.5504,-3.5504,-3.5504,-3.5504,-3.5504,-3.5504,-3.5504,-3.5359,-3.4986,-3.3788,-3.289,-3.2105,-3.0959,-3.0216,-2.9895,-3.0582,-3.1007,-3.1315,-3.2033,-3.289,-3.3636,-3.3636,-3.4327,-3.5133,-3.5133,-3.5311,-3.5504,-3.5504,-3.5504,-3.5439,-3.518,-3.5133,-3.518,-3.5424,-3.5504,-3.529,-3.4513,-3.4275,-3.3679,-3.2112,-3.1545,-3.1154,-3.0706,-2.9941,-2.9546,-2.9915,-2.9223,-2.8748,-2.8971,-2.862,-2.846,-2.8652,-2.7887,-2.7384,-2.7384,-2.685,-2.6782,-2.7384,-2.7384,-2.7703,-2.833,-2.7736,-2.7517,-2.7703,-2.6871,-2.6499,-2.6499,-2.6499,-2.6499,-3.3474,-3.3442,-3.3344,-3.314,-3.3044,-3.2905,-3.261,-3.1815,-3.1143,-3.1143,-3.0419,-2.9792,-2.9792,0.0,0.0,0.0,0.0,0.0,0.0,0.0,0.0,0.0,0.0,0.0,0.0,0.0,0.0,0.0,0.0,-3.4061,-3.4061,-3.4986,-3.5504,-3.5504,-3.5504,-3.5504,-3.5504,-3.5504,-3.5504,-3.5504,-3.5504,-3.5504,-3.5504,-3.5504,-3.5504,-3.5504,-3.5504,-3.5504,-3.5504,-3.5504,-3.4953,-3.4177,-3.5034,-3.3665,-3.1352,-3.2177,-3.1341,-2.9792,-2.9869,-3.0457,-3.1217,-3.1241,-3.1924,-3.2664,-3.2664,-3.3345,-3.4061,-3.4061,-3.4758,-3.5504,-3.5504,-3.5504,-3.5246,-3.4279,-3.4061,-3.4361,-3.5279,-3.5504,-3.5198,-3.4235,-3.3642,-3.2743,-3.1143,-2.9774,-2.8926,-2.9109,-2.8384,-2.8111,-2.8971,-2.8298,-2.8084,-2.8907,-2.7571,-2.6939,-2.7703,-2.704,-2.6555,-2.6555,-2.6521,-2.6521,-2.6555,-2.6555,-2.6589,-2.6624,-2.6589,-2.6939,-2.7703,-2.6871,-2.6499,-2.6499,-2.6499,-2.6499,-3.3451,-3.3461,-3.3473,-3.332,-3.3206,-3.3059,-3.2956,-3.2471,-3.1924,-3.1315,-3.0932,-3.052,-2.9895,0.0,0.0,0.0,0.0,0.0,0.0,0.0,0.0,0.0,0.0,0.0,0.0,0.0,0.0,0.0,0.0,0.0,-3.3993,-3.4953,-3.5504,-3.5504,-3.5504,-3.5504,-3.5504,-3.5504,-3.5504,-3.5504,-3.5504,-3.5504,-3.5504,-3.5504,-3.5504,-3.5504,-3.5504,-3.5504,-3.5504,-3.5504,-3.5279,-3.4872,-3.3973,-3.2996,-3.1997,-3.1132,-3.0394,-2.9792,-2.9792,-3.0037,-3.0317,-3.0317,-3.0945,-3.1706,-3.1706,-3.2784,-3.3993,-3.3993,-3.4725,-3.5504,-3.5504,-3.5019,-3.4293,-3.331,-3.2827,-3.2684,-3.3052,-3.4028,-3.4339,-3.255,-3.206,-3.1254,-2.9158,-2.8405,-2.8073,-2.8143,-2.7451,-2.7229,-2.8051,-2.7451,-2.704,-2.7351,-2.7317,-2.7196,-2.6939,-2.7129,-2.704,-2.6521,-2.6499,-2.6499,-2.6499,-2.6499,-2.6499,-2.6499,-2.6499,-2.6658,-2.6939,-2.6658,-2.6499,-2.6499,-2.6499,-2.6499,-3.3146,-3.3264,-3.3475,-3.3426,-3.3141,-3.2998,-3.3448,-3.2982,-3.2333,-3.1921,-3.1315,-3.0734,-3.0342,0.0,0.0,0.0,0.0,0.0,0.0,0.0,0.0,0.0,0.0,0.0,0.0,0.0,0.0,0.0,0.0,0.0,-3.3518,-3.4476,-3.5133,-3.5504,-3.5504,-3.5504,-3.5504,-3.5504,-3.5504,-3.5504,-3.5504,-3.5504,-3.5504,-3.5504,-3.5504,-3.5504,-3.5504,-3.5504,-3.5504,-3.5504,-3.5504,-3.5326,-3.3719,-3.289,-3.2429,-3.0846,-3.0075,-2.9792,-2.9792,-2.9792,-2.9792,-2.9792,-3.0203,-3.0733,-3.0733,-3.1694,-3.2814,-3.301,-3.3645,-3.4295,-3.4466,-3.3788,-3.289,-3.2285,-3.1877,-3.1504,-3.1073,-3.2416,-3.3123,-3.1029,-3.0722,-3.0103,-2.7925,-2.7413,-2.7284,-2.7284,-2.685,-2.6679,-2.7229,-2.685,-2.6499,-2.6499,-2.6973,-2.7061,-2.6555,-2.7007,-2.7061,-2.6521,-2.6499,-2.6499,-2.6499,-2.6499,-2.6499,-2.6499,-2.6499,-2.6499,-2.6499,-2.6499,-2.6499,-2.6499,-2.6499,-2.6499,0.0,0.0,0.0,-3.3392,-3.2866,-3.2732,-3.415,-3.3248,-3.2331,-3.2961,-3.1592,-3.0454,-3.1022,0.0,0.0,0.0,0.0,0.0,0.0,0.0,0.0,0.0,0.0,0.0,0.0,0.0,0.0,0.0,0.0,-3.1646,-3.2558,-3.3518,-3.4495,-3.5472,-3.5504,-3.5504,-3.5504,-3.5504,-3.5504,-3.5504,-3.5504,-3.5504,-3.5504,-3.5489,-3.5489,-3.5504,-3.5489,-3.5474,-3.5474,-3.5489,-3.5457,-3.5329,-3.4346,-3.3366,-3.2437,-3.1486,-3.0595,-2.9792,-2.9792,-2.9792,-2.9792,-2.9779,-2.9779,-2.9792,-2.9779,-3.0071,-3.0517,-3.1059,-3.1505,-3.1903,-3.2441,-3.1888,-3.118,-3.118,-3.1167,-3.08,-2.9631,-3.0784,-3.1579,-2.9782,-2.972,-2.938,-2.7583,-2.6851,-2.6499,-2.6499,-2.6499,-2.6499,-2.6499,-2.6499,-2.6499,-2.6499,-2.6499,-2.6499,-2.6499,-2.6499,-2.6499,-2.6499,-2.6499,-2.6499,-2.6499,-2.6499,-2.6499,-2.6499,-2.6499,-2.6499,-2.6499,-2.6499,-2.6499,-2.6499,-2.6499,-2.6499,-3.2505,0.0,0.0,0.0,0.0,0.0,0.0,-3.3439,-3.3125,-3.31,-3.2669,-3.1792,-3.0192,0.0,0.0,0.0,0.0,0.0,0.0,0.0,0.0,0.0,0.0,0.0,0.0,0.0,0.0,0.0,-3.1304,-3.2321,-3.2593,-3.4192,-3.5213,-3.5504,-3.5504,-3.5504,-3.5504,-3.5504,-3.5504,-3.5504,-3.5504,-3.5504,-3.5489,-3.4996,-3.504,-3.5474,-3.4981,-3.4788,-3.4801,-3.5295,-3.4851,-3.3787,-3.321,-3.2168,-3.0952,-3.0378,-3.0037,-2.9792,-2.9792,-2.9792,-2.9729,-2.9302,-2.9453,-2.9716,-2.9289,-2.9736,-3.0517,-3.1059,-3.1505,-3.1764,-3.1631,-3.1389,-3.1044,-3.0343,-2.9846,-2.935,-2.8637,-2.9004,-2.9268,-2.8391,-2.8266,-2.8007,-2.692,-2.66,-2.6499,-2.6499,-2.6499,-2.6499,-2.6499,-2.6499,-2.6499,-2.6499,-2.6499,-2.6499,-2.6499,-2.6499,-2.6499,-2.6499,-2.6499,-2.6499,-2.6499,-2.6499,-2.6499,-2.6499,-2.6499,-2.6499,-2.6499,-2.6499,-2.6499,-2.6499,-2.6499,-2.6499,-3.2949,-3.3319,-3.3804,-3.339,0.0,0.0,-3.3639,-3.3493,-3.3205,0.0,-3.3169,-3.2336,-3.1157,0.0,0.0,0.0,0.0,0.0,0.0,0.0,0.0,0.0,0.0,0.0,0.0,0.0,0.0,-2.9792,-3.0809,-3.1586,-3.1997,-3.424,-3.5326,-3.4872,-3.5279,-3.5504,-3.5504,-3.51,-3.4872,-3.4872,-3.4247,-3.3949,-3.3954,-3.3686,-3.3758,-3.4112,-3.4107,-3.4068,-3.4098,-3.4122,-3.3729,-3.3087,-3.2199,-3.126,-3.0303,-2.9414,-2.9089,-2.9089,-2.9089,-2.9089,-2.9076,-2.8925,-2.9151,-2.9415,-2.9315,-2.935,-2.9598,-3.04,-3.0771,-3.0917,-3.068,-3.0633,-3.0482,-2.9934,-2.9528,-2.9139,-2.8574,-2.8369,-2.8105,-2.7351,-2.7667,-2.779,-2.6965,-2.6839,-2.6839,-2.6839,-2.6637,-2.6499,-2.6499,-2.6499,-2.6499,-2.6499,-2.6499,-2.6499,-2.6499,-2.6499,-2.6499,-2.6499,-2.6499,-2.6499,-2.6499,-2.6499,-2.6499,-2.6499,-2.6499,-2.6499,-2.6499,-2.6499,-2.6499,-2.6499,-2.6499,-2.6499,-3.3728,-3.3998,-3.4492,-3.4395,-3.3383,0.0,-3.4039,-3.3379,-3.2848,0.0,-3.3187,-3.2272,-3.2706,0.0,0.0,0.0,0.0,0.0,0.0,0.0,0.0,0.0,0.0,0.0,0.0,-2.9792,-2.9792,-2.9792,-2.9895,-3.0419,-3.1462,-3.3953,-3.4986,-3.4211,-3.5019,-3.5504,-3.5504,-3.4537,-3.4028,-3.3878,-3.2523,-3.1805,-3.1722,-3.189,-3.2019,-3.2108,-3.2809,-3.3119,-3.3043,-3.2278,-3.2256,-3.263,-3.1193,-3.0429,-2.9909,-2.8577,-2.8109,-2.8109,-2.8109,-2.8109,-2.8185,-2.8612,-2.8787,-2.8963,-2.9402,-2.8863,-2.8298,-2.9252,-2.9603,-2.9691,-2.9691,-2.9741,-2.9792,-2.9792,-2.9792,-2.9616,-2.8938,-2.8448,-2.777,-2.6713,-2.7499,-2.8135,-2.741,-2.7331,-2.7369,-2.7369,-2.6939,-2.6587,-2.6587,-2.6537,-2.6499,-2.6499,-2.6499,-2.6499,-2.6499,-2.6499,-2.6499,-2.6499,-2.6499,-2.6499,-2.6499,-2.6499,-2.6499,-2.6499,-2.6499,-2.6499,-2.6499,-2.6499,-2.6499,-2.6499,-2.6499,-2.6499,-3.4489,-3.4387,-3.4366,-3.3758,0.0,0.0,-3.271,-3.2608,-3.2548,0.0,-3.2616,-3.2075,-3.0966,0.0,0.0,0.0,0.0,0.0,0.0,0.0,0.0,0.0,0.0,0.0,0.0,-2.9792,-2.9792,-2.9792,-3.0482,-3.1683,-3.3345,-3.3993,-3.4576,-3.518,-3.5392,-3.5504,-3.5504,-3.4775,-3.403,-3.3363,-3.2532,-3.1792,-3.1118,-3.0652,-3.0704,-3.1203,-3.0843,-3.0664,-3.0664,-3.0503,-3.0508,-3.0564,-2.9997,-2.9009,-2.7919,-2.8044,-2.8109,-2.8109,-2.8109,-2.8109,-2.8047,-2.7708,-2.821,-2.875,-2.8009,-2.7921,-2.8059,-2.7833,-2.8411,-2.9063,-2.9063,-2.9453,-2.9792,-2.9792,-2.9792,-2.9515,-2.8486,-2.8185,-2.777,-2.6713,-2.7066,-2.7468,-2.7316,-2.7657,-2.7946,-2.7946,-2.7469,-2.7153,-2.7153,-2.6763,-2.6499,-2.6499,-2.6499,-2.6499,-2.6499,-2.6499,-2.6499,-2.6499,-2.6499,-2.6499,-2.6499,-2.6499,-2.6499,-2.6499,-2.6499,-2.6499,-2.6499,-2.6499,-2.6499,-2.6499,-2.6499,-2.6499,-3.5267,-3.5064,0.0,-3.4585,0.0,0.0,0.0,-3.3698,-3.3601,-3.3923,-3.3468,-3.2869,-3.2471,0.0,0.0,0.0,0.0,0.0,0.0,0.0,0.0,0.0,0.0,0.0,0.0,-2.9275,-2.9197,-2.9753,-3.0658,-3.1402,-3.1878,-3.3255,-3.4027,-3.4056,-3.5001,-3.513,-3.4353,-3.3561,-3.2554,-3.1342,-3.0276,-2.9564,-2.9141,-2.8946,-2.9037,-2.936,-2.9453,-2.9508,-2.9476,-2.9037,-2.8841,-2.8835,-2.8678,-2.8071,-2.7281,-2.7281,-2.7281,-2.7281,-2.7281,-2.7281,-2.7281,-2.7281,-2.7657,-2.8059,-2.777,-2.7883,-2.7996,-2.7444,-2.7871,-2.8549,-2.8813,-2.9101,-2.944,-2.9729,-2.9792,-2.9553,-2.8699,-2.8298,-2.7858,-2.7065,-2.7128,-2.7369,-2.7645,-2.7921,-2.8197,-2.8473,-2.8047,-2.7595,-2.7318,-2.7077,-2.6801,-2.6524,-2.6499,-2.6499,-2.6499,-2.6499,-2.6499,-2.6499,-2.6499,-2.6499,-2.6499,-2.6499,-2.6499,-2.6499,-2.6499,-2.6499,-2.6499,-2.6499,-2.6499,-2.6499,-2.6499,-2.6499,-3.6265,0.0,0.0,0.0,0.0,-3.4793,0.0,0.0,0.0,-3.5076,-3.4284,0.0,0.0,0.0,0.0,0.0,0.0,0.0,0.0,0.0,0.0,0.0,0.0,0.0,0.0,-2.8976,-2.8806,-2.974,-3.0482,-3.0696,-3.0113,-3.2407,-3.3449,-3.289,-3.4474,-3.4608,-3.319,-3.2187,-3.0897,-2.9315,-2.8013,-2.7293,-2.714,-2.7369,-2.7484,-2.7517,-2.8214,-2.8524,-2.846,-2.7769,-2.7484,-2.7484,-2.7484,-2.7344,-2.7102,-2.6663,-2.6499,-2.6499,-2.6499,-2.6499,-2.6562,-2.7014,-2.7165,-2.7266,-2.777,-2.7871,-2.7695,-2.7291,-2.7519,-2.8072,-2.8624,-2.8813,-2.9038,-2.9654,-2.9704,-2.9465,-2.885,-2.8335,-2.7821,-2.7369,-2.7281,-2.7419,-2.7871,-2.8034,-2.826,-2.8662,-2.8298,-2.7783,-2.7379,-2.7228,-2.6989,-2.6549,-2.6499,-2.6499,-2.6499,-2.6499,-2.6499,-2.6499,-2.6499,-2.6499,-2.6499,-2.6499,-2.6499,-2.6499,-2.6499,-2.6499,-2.6499,-2.6499,-2.6499,-2.6499,-2.6499,-2.6499,0.0,0.0,0.0,0.0,-3.5532,0.0,0.0,0.0,-3.4336,-3.3778,0.0,0.0,0.0,0.0,0.0,0.0,0.0,0.0,0.0,0.0,0.0,0.0,0.0,0.0,0.0,0.0,-2.9663,-2.9792,-2.9895,-3.0279,-3.1007,-3.2141,-3.3101,-3.3808,-3.433,-3.4167,-3.3223,-3.1907,-3.0429,-2.8788,-2.8005,-2.7286,-2.6587,-2.6615,-2.6658,-2.6658,-2.6748,-2.6782,-2.6782,-2.6692,-2.6658,-2.6658,-2.6658,-2.6627,-2.6575,-2.6512,-2.6499,-2.6499,-2.6499,-2.6499,-2.6499,-2.6562,-2.6587,-2.6688,-2.7241,-2.7065,-2.6663,-2.6612,-2.6989,-2.7507,-2.8059,-2.8561,-2.9038,-2.9654,-2.9402,-2.8838,-2.8323,-2.777,-2.7356,-2.7329,-2.7281,-2.7341,-2.7369,-2.7783,-2.8134,-2.8185,-2.772,-2.7356,-2.7329,-2.6889,-2.6562,-2.6499,-2.6499,-2.6499,-2.6499,-2.6499,-2.6499,-2.6499,-2.6499,-2.6499,-2.6499,-2.6499,-2.6499,-2.6499,-2.6499,-2.6499,-2.6499,-2.6499,-2.6499,-2.6499,-2.6499,-2.6499,0.0,0.0,0.0,0.0,0.0,0.0,-3.4822,0.0,-3.5064,0.0,0.0,0.0,0.0,0.0,0.0,0.0,0.0,0.0,0.0,0.0,0.0,0.0,0.0,0.0,0.0,0.0,0.0,0.0,0.0,-2.9972,-3.0381,-3.1792,-3.2784,-3.3171,-3.4046,-3.3662,-3.1924,-3.0983,-2.9479,-2.7421,-2.7143,-2.685,-2.6499,-2.6499,-2.6499,-2.6499,-2.6499,-2.6499,-2.6499,-2.6499,-2.6499,-2.6499,-2.6499,-2.6499,-2.6499,-2.6499,-2.6499,-2.6499,-2.6499,-2.6499,-2.6499,-2.6499,-2.6499,-2.6537,-2.6763,-2.6675,-2.6499,-2.6499,-2.6889,-2.7406,-2.7959,-2.8511,-2.9038,-2.9654,-2.9616,-2.9189,-2.8298,-2.8172,-2.8047,-2.7406,-2.7281,-2.7281,-2.7281,-2.7745,-2.8109,-2.8109,-2.7908,-2.7645,-2.7318,-2.7115,-2.6851,-2.6524,-2.6499,-2.6499,-2.6499,-2.6499,-2.6499,-2.6499,-2.6499,-2.6499,-2.6499,-2.6499,-2.6499,-2.6499,-2.6499,-2.6499,-2.6499,-2.6499,-2.6499,-2.6499,-2.6499,-2.6499,-3.8345,0.0,0.0,0.0,0.0,0.0,0.0,0.0,0.0,0.0,0.0,0.0,0.0,0.0,0.0,-3.5498,0.0,-3.4807,0.0,0.0,0.0,0.0,0.0,0.0,0.0,0.0,0.0,0.0,0.0,0.0,-3.0165,-3.1476,-3.2275,-3.2394,-3.3328,-3.2724,-3.0396,-2.9955,-2.863,-2.6499,-2.6499,-2.6499,-2.6499,-2.6499,-2.6499,-2.6499,-2.6499,-2.6499,-2.6499,-2.6499,-2.6499,-2.6499,-2.6499,-2.6499,-2.6499,-2.6499,-2.6499,-2.6499,-2.6499,-2.6499,-2.6499,-2.6499,-2.6499,-2.6499,-2.6499,-2.6499,-2.6499,-2.6499,-2.6889,-2.7406,-2.7959,-2.8511,-2.9001,-2.9453,-2.944,-2.9063,-2.8097,-2.8197,-2.8285,-2.7632,-2.7507,-2.7507,-2.7507,-2.7595,-2.7657,-2.7657,-2.7657,-2.7507,-2.714,-2.709,-2.6939,-2.6537,-2.6499,-2.6499,-2.6499,-2.6499,-2.6499,-2.6499,-2.6499,-2.6499,-2.6499,-2.6499,-2.6499,-2.6499,-2.6499,-2.6499,-2.6499,-2.6499,-2.6499,-2.6499,-2.6499,-2.6499,0.0,0.0,0.0,-3.7872,0.0,0.0,0.0,0.0,-3.56,0.0,0.0,0.0,0.0,0.0,-3.5566,-3.56,-3.5577,0.0,0.0,0.0,0.0,0.0,0.0,0.0,0.0,0.0,0.0,0.0,0.0,0.0,-3.1079,-3.1217,-3.1414,-3.182,-3.2061,-3.1078,-2.879,-2.8947,-2.8163,-2.6499,-2.6499,-2.6499,-2.6499,-2.6499,-2.6499,-2.6499,-2.6499,-2.6499,-2.6499,-2.6499,-2.6499,-2.6499,-2.6499,-2.6499,-2.6499,-2.6499,-2.6499,-2.6499,-2.6499,-2.6499,-2.6499,-2.6499,-2.6499,-2.6499,-2.6499,-2.6499,-2.6499,-2.6499,-2.6889,-2.7406,-2.7959,-2.8511,-2.89,-2.8913,-2.8512,-2.7996,-2.7431,-2.7318,-2.7482,-2.7984,-2.8084,-2.8084,-2.8084,-2.7241,-2.6549,-2.6549,-2.6549,-2.6549,-2.6524,-2.6524,-2.6512,-2.6499,-2.6499,-2.6499,-2.6499,-2.6499,-2.6499,-2.6499,-2.6499,-2.6499,-2.6499,-2.6499,-2.6499,-2.6499,-2.6499,-2.6499,-2.6499,-2.6499,-2.6499,-2.6499,-2.6499,-2.6499,0.0,0.0,-3.728,-3.7787,0.0,0.0,0.0,0.0,0.0,0.0,0.0,0.0,0.0,0.0,-3.56,-3.56,-3.56,-3.5515,0.0,0.0,0.0,0.0,0.0,0.0,0.0,0.0,0.0,0.0,0.0,0.0,0.0,-3.1379,-3.1812,-3.2638,-3.248,-3.1452,-2.9572,-2.9178,-2.8149,-2.6499,-2.6499,-2.6499,-2.6499,-2.6499,-2.6499,-2.6474,-2.6084,-2.6135,-2.6461,-2.6084,-2.6147,-2.6499,-2.6499,-2.6499,-2.6499,-2.6499,-2.6499,-2.6499,-2.6499,-2.6499,-2.6499,-2.6499,-2.6499,-2.6499,-2.6499,-2.6751,-2.704,-2.704,-2.7657,-2.8335,-2.816,-2.8511,-2.88,-2.8461,-2.8511,-2.8461,-2.7946,-2.8411,-2.8888,-2.8687,-2.8612,-2.8612,-2.8612,-2.8034,-2.7341,-2.66,-2.6801,-2.6901,-2.6549,-2.6499,-2.6499,-2.6499,-2.6499,-2.6499,-2.6499,-2.6499,-2.6499,-2.6499,-2.6499,-2.6499,-2.6499,-2.6499,-2.6499,-2.6499,-2.6499,-2.6499,-2.6499,-2.6499,-2.6499,-2.6499,-2.6499,-2.6499,-3.6329,-3.6405,0.0,-3.7317,-3.6755,0.0,-3.6315,0.0,0.0,0.0,0.0,0.0,0.0,0.0,-3.56,-3.56,-3.56,-3.56,0.0,-3.5028,0.0,0.0,0.0,0.0,0.0,0.0,-2.9473,-3.0474,0.0,0.0,0.0,0.0,-3.1613,-3.2756,-3.2284,-3.1089,-2.9193,-2.9068,-2.8149,-2.6499,-2.6499,-2.6499,-2.6487,-2.6285,-2.6185,-2.6172,-2.5762,-2.5812,-2.6172,-2.5975,-2.616,-2.6499,-2.6499,-2.6499,-2.6499,-2.6499,-2.6499,-2.6499,-2.6499,-2.6499,-2.6499,-2.6499,-2.6499,-2.6499,-2.6499,-2.6738,-2.7065,-2.7266,-2.7795,-2.831,-2.8147,-2.8373,-2.8512,-2.8185,-2.8373,-2.8499,-2.8185,-2.8837,-2.9377,-2.8963,-2.8888,-2.8888,-2.8888,-2.8599,-2.8097,-2.718,-2.7344,-2.7444,-2.7128,-2.7077,-2.7002,-2.6801,-2.6788,-2.6713,-2.6512,-2.6499,-2.6499,-2.6499,-2.6499,-2.6587,-2.6788,-2.6788,-2.6876,-2.7077,-2.6889,-2.6788,-2.6788,-2.6587,-2.6499,-2.6499,-2.6129,-2.6164]},{"header":{"parameterUnit":"m.s-1","parameterCategory":1,"la1":30.6,"la2":29.2853,"lo1":-89.7004,"lo2":-87.6739,"dy":0.0162,"dx":0.0183,"nx":112,"ny":82,"refTime":"2024-05-22T06:00:00:Z","depth":0,"parameterNumber":3,"parameterNumberName":"V-component_of_WINDS"},"data":[0.0,0.0,0.0,0.0,0.0,0.0,0.0,0.0,0.0,0.0,0.0,0.0,0.0,0.0,0.0,0.0,0.0,0.0,0.0,0.0,0.0,0.0,0.0,0.0,0.0,0.0,0.0,0.0,0.0,0.0,0.0,0.0,0.0,0.0,0.0,0.0,0.0,0.0,0.0,0.0,0.0,0.0,0.0,0.0,0.0,0.0,0.0,0.0,0.0,0.0,0.0,0.0,0.0,0.0,0.0,0.0,0.0,0.0,0.0,0.0,0.0,0.0,0.0,0.0,0.0,0.0,0.0,0.0,0.0,0.0,0.0,0.0,0.0,0.0,0.0,0.0,0.0,0.0,0.0,0.0,0.0,0.0,0.0,0.0,0.0,0.0,0.0,0.0,0.0,0.0,0.5214,0.3833,0.1453,0.0,0.0,-0.1055,-0.1222,-0.0049,0.0,0.0,0.0,0.0,0.0,0.0,0.0,0.0,0.0,0.0,0.0,0.0,0.0,0.0,0.0,0.0,0.0,0.0,0.0,0.0,0.0,0.0,0.0,0.0,0.0,0.0,0.0,0.0,0.0,0.0,0.0,0.0,0.0,0.0,0.0,0.0,0.0,0.0,0.0,0.0,0.0,0.0,0.0,0.0,0.0,0.0,0.0,0.0,0.0,0.0,0.0,0.0,0.0,0.0,0.0,0.0,0.0,0.0,0.0,0.0,0.0,0.0,0.0,0.0,0.0,0.0,0.0,0.0,0.0,0.0,0.0,0.0,0.0,0.0,0.0,0.0,0.0,0.0,0.0,0.0,0.0,0.0,0.0,0.0,0.0,0.0,0.0,0.0,0.0,0.0,0.0,0.0,0.0,0.0,0.0,0.0,0.0,0.0,0.0,0.0,0.0,0.0,0.0,0.0,0.4772,0.2529,0.0899,0.0,0.0,-0.0208,-0.0203,0.0,0.0,0.0,0.0,0.0,0.0,0.0,0.0,0.0,0.0,0.0,0.0,0.0,0.0,0.0,0.0,0.0,0.0,0.0,0.0,0.0,0.0,0.0,0.0,0.0,0.0,0.0,0.0,0.0,0.0,0.0,0.0,0.0,0.0,0.0,0.0,0.0,0.0,0.0,0.0,0.0,0.0,0.0,0.0,0.0,0.0,0.0,0.0,0.0,0.0,0.0,0.0,0.0,0.0,0.0,0.0,0.0,0.0,0.0,0.0,0.0,0.0,0.0,0.0,0.0,0.0,0.0,0.0,0.0,0.0,0.0,0.0,0.0,0.0,0.0,0.0,0.0,0.0,0.0,0.0,0.0,0.0,0.0,0.0,0.0,0.0,0.0,0.0,0.0,0.0,0.0,0.0,0.0,0.0,0.0,0.0,0.0,0.0,0.0,0.0,0.0,0.0,0.0,0.0,0.648,0.5309,0.4272,0.2294,0.1098,0.1089,0.0411,0.0,0.0,-0.0556,0.0,0.0,0.0,0.0,0.0,0.0,0.0,0.0,0.0,0.0,0.0,0.0,0.0,0.0,0.0,0.0,0.0,0.0,0.0,0.0,0.0,0.0,0.0,0.0,0.0,0.0,0.0,0.0,0.0,0.0,0.0,0.0,0.0,0.0,0.0,0.0,0.0,0.0,0.0,0.0,0.0,0.0,0.0,0.0,0.0,0.0,0.0,0.0,0.0,0.0,0.0,0.0,0.0,0.0,0.0,0.0,0.0,0.0,0.0,0.0,0.0,0.0,0.0,0.0,0.0,0.0,0.0,0.0,0.0,0.0,0.0,0.0,0.0,0.0,0.0,0.0,0.0,0.0,0.0,0.0,0.0,0.0,0.0,0.0,0.0,0.0,0.0,0.0,0.0,0.0,0.0,0.0,0.0,0.0,0.0,0.0,0.0,0.0,0.0,0.0,0.0,0.0,0.6758,0.5909,0.5996,0.3901,0.2466,0.2466,0.126,0.0491,0.0474,0.0182,0.0,0.0,0.0,0.0,0.0,0.0,0.0,0.0,0.0,0.0,0.0,0.0,0.0,0.0,0.0,0.0,0.0,0.0,0.0,0.0,0.0,0.0,0.0,0.0,0.0,0.0,0.0,0.0,0.0,0.0,0.0,0.0,0.0,0.0,0.0,0.0,0.0,0.0,0.0,0.0,0.0,0.0,0.0,0.0,0.0,0.0,0.0,0.0,0.0,0.0,0.0,0.0,0.0,0.0,0.0,0.0,0.0,0.0,0.0,0.0,0.0,0.0,0.0,0.0,0.0,0.0,0.0,0.0,0.0,0.0,0.0,0.0,0.0,0.0,0.0,0.0,0.0,0.0,0.0,0.0,0.0,0.0,0.0,0.0,0.0,0.0,0.0,0.0,0.0,0.0,0.0,0.0,0.0,0.0,0.0,0.0,0.0,0.0,0.0,0.0,0.0,0.0,0.7174,0.5982,0.5989,0.473,0.3874,0.3874,0.2633,0.1847,0.1854,0.07,0.0,0.0,0.0,0.0,0.0,0.0,0.0,0.0,0.0,0.0,0.0,0.0,0.0,0.0,0.0,0.0,0.0,0.0,0.0,0.0,0.0,0.0,0.0,0.0,0.0,0.0,0.0,0.0,0.0,0.0,0.0,0.0,0.0,0.0,0.0,0.0,0.0,0.0,0.0,0.0,0.0,0.0,0.0,0.0,0.0,0.0,0.0,0.0,0.0,0.0,0.0,0.0,0.0,0.0,0.0,0.0,0.0,0.0,0.0,0.0,0.0,0.0,0.0,0.0,0.0,0.0,0.0,0.0,0.0,0.0,0.0,0.0,0.0,0.0,0.0,0.0,0.0,0.0,0.0,0.0,0.0,0.0,0.0,0.0,0.0,0.0,0.0,0.0,0.0,0.0,0.0,0.0,0.0,0.0,0.0,0.0,0.0,0.0,0.0,0.0,0.0,0.0,0.7855,0.7137,0.0,0.6027,0.5222,0.5222,0.3927,0.3102,0.3001,0.0,0.0,0.0,0.0,0.0,0.0,0.0,0.0,0.0,0.0,0.0,0.0,0.0,0.0,0.0,0.0,0.0,0.0,0.0,0.0,0.0,0.0,0.0,0.0,0.0,0.0,0.0,0.0,0.0,0.0,0.0,0.0,0.0,0.0,0.0,0.0,0.0,0.0,0.0,0.0,0.0,0.0,0.0,0.0,0.0,0.0,0.0,0.0,0.0,0.0,0.0,0.0,0.0,0.0,0.0,0.0,0.0,0.0,0.0,0.0,0.0,0.0,0.0,0.0,0.0,0.0,0.0,0.0,0.0,0.0,0.0,0.0,0.0,0.0,0.0,0.0,0.0,0.0,0.0,0.0,0.0,0.0,0.0,0.0,0.0,0.0,0.0,0.0,0.0,0.0,0.0,0.0,0.0,0.0,0.0,0.0,0.0,0.0,0.0,0.0,0.0,0.0,0.9385,0.8479,0.7923,0.0,0.7185,0.6614,0.6575,0.5255,0.4326,0.408,0.0,0.0,0.0,0.0,0.0,0.0,0.0,0.0,0.0,0.0,0.0,0.0,0.0,0.0,0.0,0.0,0.0,0.0,0.0,0.0,0.0,0.0,0.0,0.0,0.0,0.0,0.0,0.0,0.0,0.0,0.0,0.0,0.0,0.0,0.0,0.0,0.0,0.0,0.0,0.0,0.0,0.0,0.0,0.0,0.0,0.0,0.0,0.0,0.0,0.0,0.0,0.0,0.0,0.0,0.0,0.0,0.0,0.0,0.0,0.0,0.0,0.0,0.0,0.0,0.0,0.0,0.0,0.0,0.0,0.0,0.0,0.0,0.0,0.0,0.0,0.0,0.0,0.0,0.0,0.0,0.0,0.0,0.0,0.0,0.0,0.0,0.0,0.0,0.0,0.0,0.0,0.0,0.0,0.0,0.0,0.0,0.0,0.0,0.0,0.0,0.0,0.0,1.0149,0.8926,0.7988,0.7988,0.7988,0.7928,0.7824,0.659,0.5599,0.0,0.0,0.0,0.0,0.0,0.0,0.0,0.0,0.0,0.0,0.0,0.0,0.0,0.0,0.0,0.0,0.0,0.0,0.0,0.0,0.0,0.0,0.0,0.0,0.0,0.0,0.0,0.0,0.0,0.0,0.0,0.0,0.0,0.0,0.0,0.0,0.0,0.0,0.0,0.0,0.0,0.0,0.0,0.0,0.0,0.0,0.0,0.0,0.0,0.0,0.0,0.0,0.0,0.0,0.0,0.0,0.0,0.0,0.0,0.0,0.0,0.0,0.0,0.0,0.0,0.0,0.0,0.0,0.0,0.0,0.0,0.0,0.0,0.0,0.0,0.0,0.0,0.0,0.0,0.0,0.0,0.0,0.0,0.0,0.0,0.0,0.0,0.0,0.0,0.0,0.0,0.0,0.0,0.0,0.0,0.0,0.0,0.0,0.0,0.0,0.0,0.0,0.0,1.0259,0.9511,0.8792,0.8077,0.7988,0.7928,0.7824,0.7256,0.6726,0.6261,0.0,0.0,0.0,0.0,0.0,0.0,0.0,0.0,0.0,0.0,0.0,0.0,0.0,0.0,0.0,0.0,0.0,0.0,0.0,0.0,0.0,0.0,0.0,0.0,0.0,0.0,0.0,0.0,0.0,0.0,0.0,0.0,0.0,0.0,0.0,0.0,0.0,0.0,0.0,0.0,0.0,0.0,0.0,0.0,0.0,0.0,0.0,0.0,0.0,0.0,0.0,0.0,0.0,0.0,0.0,0.0,0.0,0.0,0.0,0.0,0.0,0.0,0.0,0.0,0.0,0.0,0.0,0.0,0.0,0.0,0.0,0.0,0.0,0.0,0.0,0.0,0.0,0.0,0.0,0.0,0.0,0.0,0.0,0.0,0.0,0.0,0.0,0.0,0.0,0.0,0.0,0.0,0.0,0.0,0.0,0.0,0.0,0.0,0.0,0.0,0.0,0.0,1.0805,1.0434,0.9742,0.8616,0.8531,0.8272,0.7695,0.7475,0.7173,0.6563,0.0,0.0,0.0,0.0,0.0,0.0,0.0,0.0,0.0,0.0,0.0,0.0,0.0,0.0,0.0,0.0,0.0,0.0,0.0,0.0,0.0,0.0,0.0,0.0,0.0,0.0,0.0,0.0,0.0,0.0,0.0,0.0,0.0,0.0,0.0,0.0,0.0,0.0,0.0,0.0,0.0,0.0,0.0,0.0,0.0,0.0,0.0,0.0,0.0,0.0,0.0,0.0,0.0,0.0,0.0,0.0,0.0,0.0,0.0,0.0,0.0,0.0,0.0,0.0,0.0,0.0,0.0,0.0,0.0,0.0,0.0,0.0,0.0,0.0,0.0,0.0,0.0,0.0,0.0,0.0,0.0,0.0,0.0,0.0,0.0,0.0,0.0,0.0,0.0,0.0,0.0,0.0,0.0,0.0,0.0,0.0,0.0,0.0,0.0,0.0,0.0,0.0,1.164,1.1416,1.0789,0.957,0.9482,0.8999,0.7833,0.7717,0.7389,0.6674,0.0,0.0,0.0,0.0,0.0,0.0,0.0,0.0,0.0,0.0,0.0,0.0,0.0,0.0,0.0,0.0,0.0,0.0,0.0,0.0,0.0,0.0,0.0,0.0,0.0,0.0,0.0,0.0,0.0,0.0,0.0,0.0,0.0,0.0,0.0,0.0,0.0,0.0,0.0,0.0,0.0,0.0,0.0,0.0,0.0,0.0,0.0,0.0,0.0,0.0,0.0,0.0,0.0,0.0,0.0,0.0,0.0,0.0,0.0,0.0,1.4449,0.0,0.0,0.0,0.0,0.0,0.0,0.0,0.0,0.0,0.0,0.0,0.0,0.0,0.0,0.0,0.0,0.0,0.0,0.0,0.0,0.0,0.0,0.0,0.0,0.0,0.0,0.0,0.0,0.0,0.0,0.0,0.0,0.0,0.0,0.0,0.0,0.0,0.0,0.0,0.0,0.0,1.1741,1.202,1.189,1.084,1.0721,1.0543,1.0119,0.9995,0.9644,0.9017,0.8704,0.0,0.0,0.0,0.0,0.0,0.0,0.0,0.0,0.0,0.0,0.0,0.0,0.0,0.0,0.0,0.0,0.0,0.0,0.0,0.0,0.0,0.0,0.0,0.0,0.0,0.0,0.0,0.0,0.0,0.0,0.0,0.0,0.0,0.0,0.0,0.0,0.0,0.0,0.0,0.0,0.0,0.0,0.0,0.0,0.0,0.0,0.0,0.0,0.0,0.0,0.0,0.0,0.0,0.0,0.0,0.0,0.0,0.0,0.0,0.0,1.6057,0.0,0.0,0.0,0.0,0.0,0.0,0.0,0.0,0.0,0.0,0.0,0.0,0.0,0.0,0.0,0.0,0.0,0.0,0.0,0.0,0.0,0.0,0.0,0.0,0.0,0.0,0.0,0.0,0.0,0.0,0.0,0.0,0.0,0.0,0.0,0.0,0.0,0.0,0.0,0.0,1.2392,1.2957,1.2903,1.1783,1.1661,1.1391,1.0754,1.0633,1.0327,0.9744,0.9522,0.0,0.0,0.0,0.0,0.0,0.0,0.0,0.0,0.0,0.0,0.0,0.0,0.0,0.0,0.0,0.0,0.0,0.0,0.0,0.0,0.0,0.0,0.0,0.0,0.0,0.0,0.0,0.0,0.0,0.0,0.0,0.0,0.0,0.0,0.0,0.0,0.0,0.0,0.0,0.0,0.0,0.0,0.0,0.0,0.0,0.0,0.0,0.0,0.0,0.0,0.0,0.0,0.0,2.4492,2.4316,2.3851,2.2868,2.2171,2.166,2.0447,1.9064,1.7598,0.0,0.0,0.0,0.0,0.0,0.0,0.0,0.0,0.0,0.0,0.0,0.0,0.0,0.0,0.0,0.0,0.0,0.0,0.0,0.0,0.0,0.0,0.0,0.0,0.0,1.4422,1.4137,0.0,0.0,0.0,0.0,0.0,0.0,0.0,0.0,0.0,0.0,0.0,0.0,1.314,1.3721,1.373,1.2723,1.2589,1.2248,1.13,1.1214,1.0952,1.0417,1.0293,0.9787,0.0,0.0,0.0,0.0,0.0,0.0,0.0,0.0,0.0,0.0,0.0,0.0,0.0,0.0,0.0,0.0,0.0,0.0,0.0,0.0,0.0,0.0,0.0,0.0,0.0,0.0,0.0,0.0,0.0,0.0,0.0,0.0,2.2217,2.3143,0.0,0.0,0.0,0.0,0.0,0.0,0.0,0.0,0.0,0.0,0.0,0.0,0.0,2.4336,2.4336,2.4766,2.4785,2.4424,2.4805,2.4756,2.4336,2.4142,2.3864,2.3467,2.3265,0.0,1.917,1.895,0.0,0.0,0.0,0.0,0.0,0.0,0.0,0.0,0.0,0.0,0.0,0.0,0.0,0.0,0.0,0.0,0.0,0.0,0.0,0.0,0.0,0.0,1.4894,1.4894,1.4921,1.479,0.0,1.3673,1.3106,1.2471,0.0,0.0,0.0,0.0,0.0,0.0,0.0,0.0,1.3166,1.3721,1.4039,1.3864,1.3864,1.3779,1.3646,1.3652,1.3497,1.3093,1.2635,1.1853,1.0686,0.9699,0.0,0.0,0.0,0.0,0.0,0.0,0.0,0.0,0.0,0.0,0.0,0.0,0.0,0.0,0.0,0.0,0.0,0.0,0.0,0.0,0.0,0.0,0.0,0.0,0.0,0.0,0.0,0.0,0.0,2.3405,2.344,2.3773,2.353,2.3345,0.0,0.0,0.0,0.0,0.0,0.0,0.0,0.0,0.0,2.5099,2.54,2.5527,2.5527,2.5713,2.5713,2.5527,2.5469,2.5215,2.4785,2.4785,2.4424,2.3799,2.4043,2.3155,2.148,2.0669,1.9847,1.9076,0.0,0.0,0.0,0.0,0.0,1.8571,1.8454,1.8287,0.0,0.0,0.0,0.0,0.0,0.0,0.0,0.0,0.0,0.0,0.0,0.0,0.0,1.6368,1.5867,1.5124,1.4836,1.4569,1.4162,0.0,1.3146,1.2852,1.2225,0.0,0.0,0.0,0.0,1.3113,1.3373,1.3821,1.4088,1.4088,1.4088,1.4088,1.4088,1.4088,1.3961,1.362,1.3247,1.2639,1.1756,1.069,0.9742,0.0,0.0,0.0,0.0,0.0,0.0,0.0,0.0,0.0,0.0,0.0,0.0,0.0,0.0,0.0,0.0,0.0,0.0,0.0,0.0,0.0,0.0,0.0,0.0,0.0,0.0,0.0,0.0,2.4248,2.4473,2.416,2.459,2.458,0.0,0.0,0.0,0.0,0.0,0.0,2.5429,2.5458,2.5605,2.6005,2.6377,2.6543,2.6543,2.6435,2.6387,2.6387,2.5947,2.5566,2.5244,2.5244,2.4834,2.4131,2.4443,2.4092,2.3213,2.2323,2.123,2.0122,2.0122,1.9948,1.9739,1.9739,1.9739,1.9765,1.9913,1.9791,1.9547,1.9268,0.0,1.8062,1.7153,0.0,0.0,0.0,0.0,1.7389,1.8176,0.0,1.6909,1.7811,1.7141,1.6225,1.6088,1.5714,1.5062,0.0,1.3653,1.3387,1.2759,0.0,0.0,0.0,0.0,1.336,1.3573,1.3901,1.4088,1.4088,1.4088,1.4088,1.4088,1.4088,1.3961,1.362,1.3367,1.2973,1.2438,1.1478,1.068,1.0135,0.0,0.0,0.0,0.0,0.0,0.0,0.0,0.0,0.0,0.0,0.0,0.0,0.0,0.0,0.0,0.0,0.0,0.0,0.0,0.0,0.0,0.0,0.0,0.0,0.0,0.0,0.0,0.0,0.0,2.5057,2.5762,0.0,0.0,0.0,0.0,2.5086,2.542,2.5859,2.6299,2.6318,2.6514,2.6943,2.6973,2.6982,2.6982,2.6592,2.6387,2.6387,2.5947,2.5674,2.5654,2.5654,2.5449,2.5057,2.5077,2.4551,2.376,2.3705,2.3363,2.2887,2.2887,2.2867,2.2892,2.2892,2.2892,2.2843,2.2465,2.232,2.2301,2.2281,2.1353,1.9985,1.8538,1.8129,0.0,0.0,1.8037,1.8004,1.8316,1.8356,1.836,1.8761,1.8746,1.8677,1.8847,1.7653,1.6009,0.0,1.3834,1.3586,1.3547,0.0,1.318,1.3166,1.3387,1.3586,1.36,1.3901,1.4088,1.4088,1.4088,1.4088,1.4088,1.4088,1.3961,1.362,1.3367,1.3066,1.2777,1.2171,1.1815,1.1768,1.0936,0.0,0.0,0.0,0.0,0.0,0.0,0.0,0.0,0.0,0.0,0.0,0.0,0.0,0.0,0.0,0.0,0.0,0.0,0.0,0.0,0.0,0.0,0.0,0.0,0.0,0.0,0.0,0.0,2.6006,2.6435,0.0,2.5586,2.5898,2.6094,2.5928,2.6318,2.6748,2.7187,2.7268,2.7402,2.7822,2.7842,2.7842,2.7842,2.7422,2.707,2.6787,2.6357,2.6006,2.5693,2.5693,2.5488,2.5135,2.5371,2.4844,2.3809,2.4082,2.3779,2.3091,2.3091,2.3091,2.3091,2.3091,2.3091,2.3071,2.2925,2.2877,2.2828,2.2598,2.2007,2.1278,2.0754,2.0583,2.0583,2.0583,2.0541,2.0592,2.0948,2.0276,1.9719,2.0307,1.9696,1.9004,1.9093,1.8632,1.7902,1.683,1.5276,1.4046,1.3666,1.3714,1.3707,1.348,1.37,1.3928,1.3928,1.4021,1.4088,1.4088,1.4088,1.4008,1.3814,1.376,1.3633,1.3347,1.308,1.2898,1.279,1.2395,1.1971,1.159,1.1276,1.0695,0.0,0.0,0.0,0.0,0.0,0.0,0.0,0.0,0.0,0.0,0.0,0.0,0.0,0.0,0.0,0.0,0.0,0.0,0.0,0.0,0.0,0.0,0.0,0.0,0.0,0.0,2.8686,2.7411,2.7783,2.759,2.625,2.6689,2.6973,2.6826,2.7207,2.7568,2.7861,2.7881,2.8008,2.8281,2.8291,2.8291,2.8291,2.7881,2.7441,2.7012,2.6592,2.6162,2.5693,2.5693,2.5528,2.5312,2.5557,2.5156,2.4228,2.4365,2.4004,2.3305,2.3149,2.3091,2.3091,2.3091,2.3091,2.3091,2.3091,2.3091,2.3052,2.2769,2.2539,2.2305,2.2305,2.2305,2.2305,2.2305,2.2207,2.2158,2.2441,2.1716,2.1113,2.1609,2.0958,2.0149,1.9909,1.9606,1.9151,1.8287,1.6485,1.4942,1.4393,1.4198,1.4021,1.378,1.3961,1.4088,1.4088,1.4088,1.4088,1.4088,1.4088,1.3968,1.3626,1.36,1.3433,1.308,1.3198,1.3079,1.2636,1.2636,1.2293,1.1583,1.1546,1.1312,1.0872,0.0,0.0,0.0,0.0,0.0,0.0,0.0,0.0,0.0,0.0,0.0,0.0,0.0,0.0,0.0,0.0,0.0,0.0,0.0,0.0,0.0,0.0,0.0,2.9658,3.048,3.0607,2.9282,2.9833,2.9487,2.7353,2.7832,2.8164,2.7806,2.8096,2.833,2.833,2.832,2.831,2.831,2.8301,2.8291,2.8291,2.7891,2.7461,2.7012,2.6602,2.6172,2.5693,2.5693,2.5693,2.5693,2.5693,2.5478,2.5077,2.459,2.417,2.375,2.3266,2.3091,2.3091,2.3091,2.3091,2.3091,2.3091,2.3091,2.3091,2.3091,2.3091,2.3091,2.3091,2.3091,2.3091,2.3091,2.2808,2.2529,2.2529,2.2529,2.2529,2.2529,2.2529,2.2284,2.1522,2.0679,1.9749,1.8699,1.7344,1.6239,1.5839,1.4894,1.4173,1.4166,1.413,0.0,1.4088,1.4088,1.4088,1.4088,1.4088,1.3968,1.3667,1.3634,1.3414,1.2932,1.375,1.368,1.2422,1.302,1.2924,1.2013,1.1891,1.2297,1.3208,0.0,0.0,0.0,0.0,0.0,0.0,0.0,0.0,0.0,0.0,0.0,0.0,0.0,0.0,0.0,0.0,0.0,0.0,0.0,0.0,0.0,0.0,3.2218,3.0812,3.1872,3.2462,3.1495,3.1077,3.0569,2.9962,2.9519,2.9225,2.9108,2.915,2.9219,2.9219,2.8916,2.875,2.875,2.8447,2.8291,2.8291,2.8174,2.7744,2.7012,2.6894,2.6455,2.5693,2.5693,2.5693,2.5693,2.5693,2.5478,2.5077,2.459,2.417,2.375,2.3266,2.3091,2.3091,2.3091,2.3091,2.3091,2.3091,2.3091,2.3091,2.3091,2.3091,2.3091,2.3091,2.3091,2.3091,2.3091,2.3013,2.2925,2.2925,2.2925,2.2925,2.2925,2.2925,2.278,2.2275,2.1959,2.1531,2.0595,1.9492,1.8285,1.7066,1.6609,1.6165,1.5379,1.5255,0.0,1.4208,1.4088,1.4088,1.4088,1.4088,1.4289,1.4772,1.4533,1.4525,1.4948,1.4944,1.4768,1.4414,1.4577,1.4401,1.38,1.314,1.304,0.0,0.0,0.0,0.0,0.0,0.0,0.0,0.0,0.0,0.0,0.0,0.0,0.0,0.0,0.0,0.0,0.0,0.0,0.0,0.0,0.0,0.0,3.27,3.4078,3.3967,3.4571,3.4763,3.3958,3.322,3.237,3.1443,3.086,3.0264,2.9626,2.9626,2.9626,2.9626,2.9326,2.9111,2.8926,2.8682,2.8467,2.8291,2.8291,2.7861,2.7012,2.7012,2.6512,2.5693,2.5693,2.5693,0.0,2.5693,2.5478,2.5077,2.459,2.417,0.0,0.0,0.0,0.0,0.0,2.3091,2.3091,2.3091,2.3091,2.3091,2.3091,2.3091,2.3091,2.3091,2.3091,2.3091,2.3091,2.3091,2.3091,2.3091,2.3091,2.3091,2.3091,2.2955,2.263,2.1888,2.187,2.1661,2.0652,0.0,0.0,1.8825,1.79,1.709,1.6478,1.6355,1.6157,0.0,1.5061,1.4776,1.4776,1.4622,1.4657,1.4999,1.5011,0.0,0.0,0.0,1.5721,1.5592,1.5211,0.0,0.0,0.0,0.0,0.0,0.0,0.0,0.0,1.4521,1.4408,0.0,0.0,0.0,0.0,0.0,0.0,0.0,0.0,0.0,0.0,0.0,0.0,0.0,0.0,0.0,0.0,3.4534,3.5685,3.7593,3.7578,3.7109,3.6317,3.574,3.449,3.2319,3.1992,3.1323,2.9885,2.9773,2.9773,2.9773,0.0,0.0,0.0,0.0,2.8721,2.8301,2.8291,2.7861,2.7012,2.7012,2.6512,2.5693,2.5693,2.5693,2.5693,2.5693,2.5478,2.5077,2.459,2.4141,2.3682,2.3247,2.3091,2.3091,2.3091,2.3091,0.0,0.0,0.0,0.0,2.3091,2.3091,2.3091,2.3091,2.3091,2.3091,2.3091,2.3091,2.3091,2.3091,2.3091,2.3091,2.3091,2.2808,2.224,2.1078,2.1061,2.0938,1.9743,2.0129,2.0605,2.0605,1.8988,1.7617,1.7496,1.7496,0.0,1.7334,1.6478,1.5861,1.5861,0.0,0.0,1.5033,1.5482,1.5705,1.5601,1.6315,1.6611,1.6321,1.5495,1.5287,1.5693,1.5716,1.6276,1.7383,1.7383,1.7402,1.7432,1.5267,1.4986,0.0,0.0,0.0,0.0,0.0,0.0,0.0,0.0,0.0,0.0,0.0,0.0,0.0,0.0,0.0,3.4306,3.6406,3.7802,3.7146,3.7899,3.8354,3.768,3.6921,3.573,3.4059,3.324,3.2215,3.075,3.0635,3.0635,3.0635,3.0283,0.0,2.9453,2.9101,2.8721,2.8301,2.8291,2.7861,2.7012,0.0,0.0,2.5693,2.5693,2.5693,2.5693,2.5693,2.5478,2.5077,2.459,2.3955,2.3218,2.313,2.3091,2.3091,2.3091,2.3091,2.3091,2.3091,2.3091,2.3091,2.3091,2.3091,2.3091,2.3091,2.3091,0.0,2.3091,2.3091,2.3091,2.3091,2.3091,2.3091,2.3091,2.3033,2.2746,2.1845,2.17,2.1502,2.0544,2.0498,2.0605,2.0605,2.0245,1.9678,1.8798,1.8669,1.835,1.7415,1.7131,1.6968,1.6968,1.6645,1.6709,1.7506,1.7059,1.7072,1.7899,1.7804,1.7687,1.7634,1.7455,1.7264,1.705,1.7041,1.7154,1.7383,1.7383,1.7559,1.7881,1.7403,1.7154,0.0,0.0,0.0,0.0,0.0,0.0,0.0,0.0,0.0,0.0,0.0,3.4236,3.5341,0.0,3.6443,3.6616,3.7904,3.8741,3.8297,3.8835,3.9182,3.8881,3.8209,3.7332,3.607,3.4912,3.3586,3.2092,3.1334,3.0889,3.0889,3.0674,3.0244,2.959,2.9355,2.8935,2.8301,2.8291,2.8157,2.7875,2.7307,2.6903,2.662,2.5965,2.5693,2.5693,2.5693,2.5478,2.5067,2.4375,2.3721,2.3091,2.3091,2.3091,2.3091,2.3091,2.3091,2.3091,2.3091,2.3091,2.3091,2.3091,2.3091,2.3091,2.3091,2.3091,2.3091,2.3091,2.3091,2.3091,2.3091,2.3091,2.3091,2.3091,2.2935,2.2613,2.2021,2.1719,2.1357,2.0732,2.0605,2.0605,2.0605,2.0605,2.0401,1.9883,1.9805,1.9599,1.9027,1.847,1.8072,1.7842,1.7441,1.7331,1.7635,1.7559,1.771,1.8251,1.8125,1.8008,1.8008,1.8008,1.791,1.7705,1.7695,1.7695,1.7695,1.7695,1.7803,1.8008,1.8008,1.79,0.0,0.0,0.0,0.0,0.0,0.0,0.0,3.5736,3.5114,3.6796,3.6212,3.5805,3.7249,3.7513,3.7888,3.8868,3.9082,3.9182,3.9634,3.9697,3.9697,3.9697,3.9295,3.8658,3.7589,3.6162,3.4681,3.318,3.1988,3.1179,3.0762,3.1032,3.0685,2.9528,2.9443,2.9072,2.8301,2.8291,2.8451,2.8783,2.7824,2.743,2.7589,2.6524,2.5917,2.5674,2.5508,2.5273,2.492,2.4014,2.3457,2.3091,2.3091,2.3091,2.3091,2.3091,2.3091,2.3091,2.3091,2.3091,2.3091,2.3091,2.3091,2.3091,2.3091,2.3091,2.3091,2.3091,2.3091,2.3091,2.3091,2.3091,2.3091,2.3091,2.2838,2.249,2.1992,2.1611,2.1201,2.0703,2.0605,2.0605,2.0605,2.0605,2.0605,2.0605,2.0605,2.0605,2.0605,1.9844,1.9118,1.8676,1.8236,1.7779,1.726,1.771,1.8008,1.8008,1.8008,1.8008,1.8008,1.8008,1.8008,1.8008,1.8008,1.8008,1.8008,1.8008,1.8008,1.8008,1.8008,1.8008,3.1449,3.2738,3.4917,3.7634,3.7935,3.8294,0.0,3.9646,3.7975,3.9236,3.8495,3.7852,3.8555,3.873,3.8881,3.9496,3.9597,3.9622,3.9685,3.9697,3.9697,3.9697,3.9634,3.9067,3.7624,3.6162,3.4681,3.318,3.2964,3.2127,3.035,3.1528,3.1222,2.9068,2.8994,2.8769,2.8301,2.8291,2.8451,2.8783,2.8645,2.8275,2.7589,2.7447,2.6754,2.5645,2.4855,2.4541,2.4424,2.352,2.314,2.3091,2.3091,2.3091,2.3091,2.3091,2.3091,2.3091,2.3091,2.3091,2.3091,2.3091,2.3091,2.3091,2.3091,2.3091,2.3091,2.3091,2.3091,2.3091,2.3091,2.3091,2.3091,2.3091,2.3062,2.2808,2.206,2.1846,2.1572,2.0762,2.0605,2.0605,2.0605,2.0605,2.0605,2.0605,2.0605,2.0605,2.0605,2.0489,2.0236,1.9762,1.9346,1.8776,1.7973,1.7969,1.8008,1.8008,1.8008,1.8008,1.8008,1.8008,1.8008,1.8008,1.8008,1.8008,1.8008,1.8008,1.8008,1.8008,1.8008,1.8008,3.3122,3.4454,3.6143,3.8261,3.9125,3.9989,4.2037,4.0449,3.8986,4.0516,3.9325,3.8278,3.9182,3.9346,3.9421,3.9647,3.9697,3.9697,3.9697,3.9697,3.9572,3.9245,3.922,3.9116,3.8819,3.6661,3.5013,3.4414,3.3253,3.2249,3.1401,3.2485,3.2523,3.1339,3.0541,2.9909,2.946,2.8698,2.8451,2.8783,2.8783,2.8362,2.7589,2.7589,2.6897,2.5654,2.5068,2.4648,2.4365,2.376,2.3369,2.3091,2.3091,2.3091,2.3091,2.3091,2.3091,2.3091,2.3091,2.3091,2.3091,2.3091,2.3091,2.3091,2.3091,2.3091,2.3091,2.3091,2.3091,2.3091,2.3091,2.3091,2.3091,2.3091,2.3091,2.2867,2.207,2.1885,2.1621,2.0781,2.0605,2.0605,2.0605,2.0605,2.0605,2.0605,2.0605,2.0605,2.0605,2.0605,2.0341,1.9619,1.8945,1.8398,1.8037,1.8008,1.8008,1.8008,1.8008,1.8008,1.8008,1.8008,1.8008,1.8008,1.8008,1.8008,1.8008,1.8008,1.8008,1.8008,1.8008,1.8008,3.4102,3.5309,3.6585,3.8043,3.926,4.0437,4.1697,4.035,3.9302,4.0759,3.9551,3.8492,3.932,3.9597,3.9697,3.9697,3.9697,3.9697,3.9697,3.9697,3.9546,3.9145,3.9094,3.9258,3.9647,3.7121,3.5321,3.513,3.3912,3.2813,3.1942,3.3259,3.3684,3.284,3.1848,3.1218,3.0876,2.9735,2.9434,2.9894,2.9716,2.9276,2.8588,2.8272,2.74,2.6167,2.5684,2.5023,2.4375,2.3828,2.3428,2.3091,2.3091,2.3091,2.3091,2.3091,2.3091,2.3091,2.3091,2.3091,2.3091,2.3091,2.3091,2.3091,2.3091,2.3091,2.3091,2.3091,2.3091,2.3091,2.3091,2.3091,2.3091,2.3091,2.3003,2.2721,2.2041,2.1787,2.1484,2.0752,2.0605,2.0605,2.0605,2.0605,2.0605,2.0605,2.0605,2.0605,2.0605,2.04,2.0008,1.9355,1.8525,1.8008,1.8008,1.8008,1.8008,1.8008,1.8008,1.8008,1.8008,1.8008,1.8008,1.8008,1.8008,1.8008,1.8008,1.8008,1.8008,1.8008,1.8008,1.8008,3.3765,3.4719,3.5825,3.7052,3.816,3.9293,4.0556,3.9848,3.9084,3.9798,3.938,3.8906,3.8944,3.9333,3.9697,3.9697,3.9697,3.9697,3.9697,3.9697,3.9685,3.9672,3.9672,3.9672,0.0,3.7321,3.5433,3.4699,3.5283,3.4308,3.1179,3.3657,3.4287,3.2364,3.2303,3.2252,3.223,3.1661,3.1806,3.2594,3.2039,3.1565,3.1033,2.9852,2.868,2.7489,2.6648,2.5573,2.4355,2.3461,2.311,2.3091,2.3091,2.3091,2.3091,2.3091,2.3091,2.3091,2.3091,2.3091,2.3091,2.3091,2.3091,2.3091,2.3091,2.3091,2.3091,2.3091,2.3091,2.3091,2.3091,2.3091,2.3091,2.3091,2.2779,2.2412,2.1982,2.1553,2.1123,2.0693,2.0605,2.0605,2.0605,2.0605,2.0605,2.0605,2.0605,2.0605,2.0605,1.9881,1.9316,1.9287,1.8525,1.8008,1.8008,1.8008,1.8008,1.8008,1.8008,1.8008,1.8008,1.8008,1.8008,1.8008,1.8008,1.8008,1.8008,1.8008,1.8008,1.8008,1.8008,1.8008,3.3746,3.4679,3.5795,3.698,3.7838,3.8714,3.9903,3.9244,3.851,3.9103,3.8482,3.7864,3.8228,3.8768,3.9145,3.9145,3.9459,3.9697,3.9697,3.9697,3.9559,3.9195,3.9145,0.0,0.0,0.0,0.0,3.6028,3.5525,3.4809,3.3708,3.5147,3.5683,3.5054,3.4154,3.3712,3.3712,3.2245,3.1503,3.1497,3.0651,3.0568,3.1178,2.9943,2.9,2.8213,2.7601,2.6482,2.5037,2.4467,2.38,2.3091,2.3091,2.3091,2.3091,2.3091,2.3091,2.3091,2.3091,2.3091,2.3091,2.3091,2.3091,2.3091,2.3091,2.3091,2.3091,2.3091,2.3091,2.3091,2.3091,2.3091,2.3023,2.275,2.2617,2.2314,2.1611,2.1298,2.1064,2.0693,2.0605,2.0605,2.0605,2.0605,2.0605,2.0605,2.0605,2.0605,2.0605,1.9852,1.9287,1.9287,1.8525,1.8008,1.8008,1.8008,1.8008,1.8008,1.8008,1.8008,1.8008,1.8008,1.8008,1.8008,1.8008,1.8008,1.8008,1.8008,1.8008,1.8008,1.8008,1.8008,3.3476,3.413,3.5018,3.6003,3.6539,3.7086,3.8379,3.7872,3.7253,3.7616,3.7079,3.6759,3.7312,3.7877,3.8454,3.8856,3.917,3.9471,3.9672,3.9697,3.9559,3.9207,3.917,3.8826,0.0,0.0,0.0,3.5783,3.5723,3.5473,3.4823,3.5804,3.6405,3.6405,3.5571,3.5126,3.5126,3.3457,3.2311,3.1669,3.1048,3.1146,3.1865,3.1101,3.0277,2.9474,2.8843,2.7706,2.6205,2.5221,2.4372,2.3681,2.3266,2.3091,2.3091,2.3091,2.3091,2.3091,2.3091,2.3091,2.3091,2.3091,2.3091,2.3091,2.3091,2.3091,2.3091,2.3091,2.3091,2.3091,2.3091,2.3091,2.3023,2.276,2.251,2.2178,2.1736,2.1328,2.0957,2.083,2.0713,2.0605,2.0605,2.0605,2.0605,2.0605,2.0605,2.0605,2.0605,1.9941,1.9453,1.9307,1.8662,1.8174,1.8018,1.8008,1.8008,1.8008,1.8008,1.8008,1.8008,1.8008,1.8008,1.8008,1.8008,1.8008,1.8008,1.8008,1.8008,1.8008,1.8008,1.8008,3.3033,3.3208,3.3684,3.4255,3.4385,3.4727,3.5976,3.5871,3.5495,3.5458,3.5458,3.5608,3.6229,3.682,3.7538,3.8655,3.8906,3.9094,3.9622,3.9697,3.9697,3.9697,3.9697,3.9697,3.9581,3.922,0.0,3.4204,0.0,3.6429,3.4652,3.5764,3.6443,3.6405,3.6405,3.6405,3.6405,3.5278,3.4173,3.3124,3.3124,3.3124,3.3124,3.3124,3.2389,3.118,3.0288,2.9122,2.7771,2.5776,2.4914,2.4702,2.3594,2.3135,2.3091,2.3091,2.3091,2.3091,2.3091,2.3091,2.3091,2.3091,2.3091,2.3091,2.3091,2.3091,2.3091,2.3091,2.3091,2.3091,2.3091,2.3091,2.3091,2.3062,2.25,2.2021,2.2402,2.1504,2.0752,2.1112,2.0869,2.0605,2.0605,2.0605,2.0605,2.0605,2.0605,2.0605,2.0605,2.0185,1.9756,1.9336,1.8896,1.8432,1.8047,1.8008,1.8008,1.8008,1.8008,1.8008,1.8008,1.8008,1.8008,1.8008,1.8008,1.8008,1.8008,1.8008,1.8008,1.8008,1.8008,1.8008,3.4739,3.4459,3.4219,3.435,3.4385,3.4376,3.4258,3.4905,3.5382,3.4969,3.4881,3.4931,3.5115,3.6257,3.7274,3.7563,3.8668,3.9534,3.9672,3.9697,3.9697,3.9697,3.9697,3.9245,3.819,3.8953,0.0,0.0,3.7104,3.7404,3.6551,3.6816,3.6784,3.6417,3.6405,3.6405,3.6405,3.5278,3.4173,3.3124,3.3124,3.3124,3.3124,3.3124,3.2476,3.136,3.1088,2.9857,2.8017,2.7493,2.6273,2.4787,2.4457,2.3844,2.3091,2.3091,2.3091,2.3091,2.3091,2.3091,2.3091,2.3091,2.3091,2.3091,2.3091,2.3091,2.3091,2.3091,2.3091,2.3091,2.3091,2.3091,2.3013,2.2701,2.251,2.2295,2.209,2.1787,2.1484,2.1239,2.0869,2.0605,2.0605,2.0605,2.0605,2.0605,2.0605,2.0605,2.0605,2.0185,1.9756,1.9336,1.8896,1.8432,1.8047,1.8008,1.8008,1.8008,1.8008,1.8008,1.8008,1.8008,1.8008,1.8008,1.8008,1.8008,1.8008,1.8008,1.8008,1.8008,1.8008,1.8008,3.4721,3.4066,3.3464,3.3464,3.329,3.3194,3.3445,3.4193,3.4693,3.4424,3.4173,3.4073,3.4324,3.5316,3.6345,3.7061,3.8178,3.9132,3.9622,3.9697,3.9697,3.9697,3.9697,3.9362,3.853,3.9193,3.9225,0.0,3.8264,3.804,3.7224,3.7186,3.6923,3.643,3.6405,3.6179,3.5642,3.4788,3.3935,3.3124,3.3124,3.3124,3.3124,3.3124,3.2591,3.1738,0.0,3.0562,2.9147,2.8391,2.7105,2.5504,2.4999,2.4082,2.3091,2.3091,2.3091,2.3091,2.3091,2.3091,2.3091,2.3091,2.3091,2.3091,2.3091,2.3091,2.3091,2.3091,2.3091,2.3091,2.3091,2.3091,2.3033,2.2799,2.2646,2.25,2.2441,2.2148,2.1816,2.1562,2.1162,2.0859,2.0859,2.0732,2.0605,2.0605,2.0605,2.0605,2.0605,2.0352,2.0039,1.9609,1.918,1.875,1.8286,1.8081,1.8008,1.8008,1.8008,1.8008,1.8008,1.8008,1.8008,1.8008,1.8008,1.8008,1.8008,1.8008,1.8008,1.8008,1.8008,1.8008,3.422,3.3264,3.2532,3.2331,3.1911,3.1826,3.2896,3.338,3.3695,3.3765,3.3407,3.3219,3.3709,3.4299,3.524,3.6822,3.76,3.8404,3.9534,3.9697,3.9697,3.9697,3.9697,3.9697,3.9697,3.9697,3.9697,3.9697,3.9182,3.8404,3.7349,3.7224,3.6897,3.6317,3.6304,3.5717,3.4625,3.4135,3.3621,3.3124,3.3124,3.3124,3.3124,3.3124,3.2754,3.2177,0.0,0.0,3.0266,2.8906,2.7614,2.6431,2.5588,2.4457,2.3343,2.3343,2.3222,2.3091,2.3091,2.3091,2.3091,2.3091,2.3091,2.3135,2.3256,2.3343,2.3343,2.3517,2.343,2.3343,2.3517,2.343,2.3343,2.3517,2.3272,2.3145,2.3481,2.2849,2.215,2.1936,2.1533,2.1181,2.1112,2.082,2.0644,2.0789,2.0789,2.0789,2.0789,2.0673,2.0439,1.9961,1.959,1.9199,1.8724,1.8354,1.8154,1.8096,1.8096,1.8066,1.8008,1.811,1.811,1.8008,1.811,1.811,1.8008,1.8008,1.8008,1.8008,1.8008,1.8008,3.5959,3.4993,3.3773,3.2593,3.1972,3.16,3.1281,3.1844,3.2556,3.3133,3.3144,3.3106,3.3206,3.4035,3.5115,3.6355,3.7349,3.8404,3.9534,3.9697,3.9697,3.9697,3.9697,3.9697,3.9697,3.9697,0.0,0.0,0.0,3.858,3.7902,3.7425,3.6722,3.5671,3.5646,3.5165,3.406,3.3947,3.3621,3.3124,3.3124,3.3124,3.3124,3.3124,3.2754,3.2177,0.0,0.0,2.9212,2.9419,2.8331,2.6565,2.7279,2.6273,2.45,2.45,2.392,2.3091,2.3091,2.3091,2.3091,2.3091,2.3091,2.3266,2.4211,2.45,2.4713,2.5641,2.5221,2.4713,2.5683,2.5221,2.4755,2.5683,2.5878,2.5834,2.5922,2.4794,2.3412,2.215,2.1533,2.1073,2.0742,2.0654,2.0857,2.1631,2.1773,2.1773,2.1773,2.1078,2.0439,1.9961,1.9853,1.9639,1.9209,1.9102,1.8916,1.852,1.849,1.8344,1.8027,1.8687,1.8754,1.8008,1.8721,1.8721,1.8008,1.8008,1.8008,1.8008,1.8008,1.8008,3.6405,3.5415,3.4227,3.3563,3.2825,3.2141,3.1792,3.2186,3.2702,3.3032,3.3124,3.3124,3.3124,3.3746,3.4562,3.5378,3.6194,3.7211,3.8617,3.8818,3.9032,3.9622,3.9697,3.9697,3.9697,3.9697,3.9572,3.9283,0.0,3.8304,3.8027,3.7211,3.6383,3.552,3.5219,3.468,3.3909,3.3608,3.3332,3.3124,3.3124,3.3124,3.3124,3.3124,3.2604,3.1763,3.1499,0.0,2.9383,2.9685,2.8831,2.736,2.7884,2.7105,2.5672,2.5672,2.5347,2.4766,2.4178,2.3963,2.3963,2.3963,2.3594,2.3299,2.4457,2.4787,2.5041,2.6182,2.6099,2.5808,2.6348,2.6099,2.5797,2.6348,2.6524,2.6524,2.6524,2.5313,2.397,2.3248,2.2068,2.1312,2.1654,2.1489,2.1669,2.2627,2.2776,2.2776,2.2776,2.2376,2.1625,2.0388,2.0049,2.0011,2.0382,2.0185,2.0072,2.0047,1.9613,1.9373,1.9353,1.9299,1.911,1.8687,1.9077,1.9077,1.8687,1.8687,1.8911,1.9332,1.8888,1.8687,3.6367,3.5619,3.4775,3.4483,3.3577,3.2746,3.2699,3.2686,3.2754,3.3025,3.3124,3.3124,3.3124,3.3432,3.3935,3.4568,3.5144,3.6072,3.7776,3.8115,3.8567,3.9572,3.9697,3.9697,3.9697,3.9584,0.0,3.8957,0.0,0.0,3.7663,3.6883,3.6056,3.5345,3.4906,3.4399,3.3721,3.3294,3.3124,3.3124,3.3124,3.3124,3.3124,3.3124,3.2528,3.1562,3.1436,0.0,0.0,2.9752,2.9145,2.8124,2.8386,2.7815,2.6842,2.6842,2.6678,2.6348,2.5462,2.5168,2.5168,2.5168,2.4382,2.3714,2.5073,2.5493,2.5744,2.6883,2.7005,2.6883,2.7139,2.7005,2.6883,2.7139,2.7221,2.7139,2.6883,2.5872,2.4889,2.445,2.3121,2.2187,2.2769,2.2573,2.2664,2.3672,2.3818,2.3818,2.3818,2.3818,2.3147,2.1413,2.0881,2.0995,2.1796,2.1574,2.1431,2.1509,2.0903,2.0552,2.0613,2.0107,1.9759,1.9584,1.9748,1.9759,1.9595,1.9595,1.9944,2.059,1.989,1.9595,3.6267,3.631,3.5918,3.4678,3.3637,3.2863,3.2746,3.2029,3.1689,3.284,3.3124,3.3124,3.3124,3.3162,3.3495,3.455,3.5144,3.6072,3.7776,3.8454,3.9019,3.9622,3.9697,3.9697,3.9697,3.9245,3.8931,3.8919,0.0,0.0,3.6581,3.6468,3.5881,3.4826,3.4751,3.4223,3.3156,3.3106,3.3124,3.3124,3.3124,3.3124,3.3124,3.3124,3.2729,3.2102,0.0,0.0,0.0,2.9564,2.9145,2.8215,2.9236,2.8949,2.7964,2.7964,2.7319,2.6483,2.6389,2.6348,2.6348,2.6348,2.5588,2.5041,2.7145,2.7804,2.8016,2.9157,2.8727,2.8187,2.9248,2.874,2.8227,2.9248,2.9507,2.9197,2.8187,2.7848,2.7172,2.5279,2.4798,2.4376,2.3553,2.3401,2.3697,2.4707,2.4862,2.4862,2.4862,2.4862,2.4445,2.3342,2.3176,2.3191,2.3301,2.3267,2.2869,2.2001,2.1866,2.1464,2.0624,2.127,2.1302,2.0494,2.127,2.127,2.0494,2.0494,2.0526,2.059,2.0526,2.0494,3.5805,3.6107,3.6263,3.5715,3.4807,3.3961,3.3903,3.3113,3.2469,3.2982,3.3124,3.3124,3.3124,3.3124,3.3262,3.3658,3.3922,3.4638,3.6248,3.6722,3.7324,3.853,3.868,3.868,3.868,0.0,3.8216,3.7877,0.0,0.0,3.6417,3.6405,3.5855,3.4763,3.468,3.4198,3.3124,3.3124,3.3124,3.3124,3.3124,3.3124,3.3111,3.2717,3.2252,3.1687,0.0,0.0,0.0,2.9711,2.9534,2.9157,2.9624,2.9534,2.9106,2.9106,2.887,2.8383,2.7695,2.7441,2.7441,2.7441,2.7157,2.693,2.7844,2.8096,2.8347,2.9495,2.9495,2.9236,2.9663,2.9456,2.9236,2.9702,2.9792,2.9663,2.9236,2.8394,2.7474,2.6671,2.5462,2.465,2.4835,2.4606,2.4743,2.5769,2.5908,2.5908,2.5908,2.5908,2.5769,2.5358,2.4217,2.3745,2.4337,2.4409,2.419,2.3706,2.3189,2.2653,2.213,2.197,2.1753,2.1396,2.1721,2.1721,2.1396,2.1396,2.1647,2.2082,2.1616,2.1396,3.537,3.5705,3.5918,3.6069,3.529,3.4474,3.4474,3.3759,3.3124,3.3124,3.3124,3.3124,3.3124,3.3124,3.3124,3.3124,3.3219,3.3847,3.5295,3.5633,3.6332,3.7826,3.8002,3.8002,3.8002,3.7864,3.7538,0.0,0.0,0.0,0.0,3.6119,3.5692,3.4751,3.4562,3.4022,3.3124,3.3124,3.3124,3.3124,3.3124,3.2993,3.2805,3.2403,3.1825,3.1135,0.0,0.0,0.0,2.9792,2.9792,2.9792,2.9792,2.9792,2.9792,2.9792,2.9792,2.9702,2.8897,2.8597,2.8597,2.8597,2.8597,2.8597,2.8597,2.8597,2.8767,2.9573,2.9792,2.9792,2.9792,2.9792,2.9792,2.9792,2.9792,2.9792,2.9792,2.894,2.8133,2.7963,2.6572,2.5599,2.6154,2.5815,2.5699,2.6383,2.6499,2.6499,2.6499,2.6499,2.6499,2.6499,2.524,2.466,2.537,2.5441,2.5247,2.4818,2.423,2.3631,2.3115,2.2567,2.2249,2.2249,2.2249,2.2333,2.2534,2.2333,2.2623,2.3358,2.2592,2.2249,3.5056,3.5107,3.4831,3.537,3.468,3.3909,3.3909,3.3483,3.3124,3.3124,3.3124,3.3124,3.3124,3.3124,3.3124,3.3124,3.3533,3.4274,3.5345,3.6006,3.6807,3.7877,3.8002,3.8002,3.8002,3.7513,3.7008,0.0,0.0,0.0,0.0,3.5508,3.5257,3.4738,3.4198,3.3646,3.3124,3.3124,3.3124,3.3124,3.3124,3.278,3.2227,3.2215,3.1637,0.0,0.0,0.0,0.0,2.9792,2.9792,2.9792,2.9792,2.9792,2.9792,2.9792,2.9792,2.9792,2.9792,2.9792,2.9792,2.9792,2.9792,2.9792,2.9792,2.9792,2.9792,2.9792,2.9792,2.9792,2.9792,2.9792,2.9792,2.9792,2.9792,2.9792,2.9792,2.9792,2.9616,2.9001,2.8436,2.7885,2.7381,2.6851,2.6499,2.6499,2.6499,2.6499,2.6499,2.6499,2.6499,2.6499,2.6487,2.6452,2.6487,2.6487,2.5988,2.4863,2.4788,2.4286,2.3158,2.3078,2.3078,2.3078,2.3078,2.3384,2.3991,2.3384,2.3396,2.3979,2.3371,2.3078,3.3232,3.3709,3.411,3.3909,3.3596,3.3332,3.3332,3.3206,3.3124,3.3124,3.3124,3.3124,3.3124,3.3124,3.3206,3.3583,3.3784,3.4286,3.5345,3.5646,3.6069,3.6845,3.6933,3.6933,0.0,0.0,0.0,0.0,0.0,0.0,0.0,3.4781,3.4349,3.4161,3.3985,3.3633,3.3124,3.3124,3.3124,3.3111,3.2679,3.239,3.219,3.1461,0.0,0.0,0.0,0.0,0.0,2.9792,2.9792,2.9792,2.9792,2.9792,2.9792,2.9792,2.9792,2.9792,2.9792,2.9792,2.9792,2.9792,2.9792,2.9792,2.9792,2.9792,2.9792,2.9792,2.9792,2.9792,2.9792,2.9792,2.9792,2.9792,2.9792,2.9792,2.9792,2.9792,2.9741,2.9553,2.9051,2.8499,2.7946,2.7394,2.6927,2.6549,2.6499,2.6499,2.6499,2.6499,2.6499,2.6499,2.6499,2.6499,2.6499,2.6499,2.6021,2.4863,2.4788,2.4286,2.3158,2.3108,2.3296,2.3715,2.3728,2.4004,2.4556,2.4004,2.3584,2.3371,2.3195,2.3108,3.2202,3.2566,3.2918,3.278,3.2591,3.2441,3.2441,3.2604,3.2692,3.2478,3.278,3.3048,3.2792,3.293,3.3194,3.3533,3.3583,3.3972,3.5031,3.5194,3.5516,3.6317,3.6405,0.0,0.0,3.6405,0.0,0.0,0.0,0.0,0.0,3.4274,3.3809,3.3596,3.3583,3.342,3.3124,3.3124,3.3011,3.2754,3.239,3.2001,3.1587,3.0922,0.0,0.0,0.0,0.0,0.0,2.9792,2.9792,2.9792,2.9792,2.9792,2.9792,2.9792,2.9792,2.9792,2.9792,2.9792,2.9792,2.9792,2.9792,2.9792,2.9792,2.9792,2.9792,2.9792,2.9792,2.9792,2.9792,2.9792,2.9792,2.9792,2.9792,2.9792,2.9792,2.9792,2.9792,2.9792,2.9327,2.8787,2.8473,2.7783,2.7203,2.6851,2.6625,2.6499,2.6499,2.6499,2.6499,2.6499,2.6499,2.6499,2.6499,2.6499,2.6109,2.5172,2.4901,2.4474,2.3772,2.3547,2.3697,2.4293,2.4305,2.4569,2.5109,2.4569,2.4017,2.3421,2.3208,2.3108,0.0,3.1687,3.1449,3.1926,3.1687,3.1336,3.1336,3.1763,0.0,3.1499,3.2227,3.2805,3.2303,3.2654,3.3043,3.3119,3.3212,3.3558,3.4575,3.4705,3.5177,3.6279,3.6405,0.0,3.6405,0.0,0.0,0.0,0.0,0.0,0.0,3.3859,3.3608,3.3136,3.3074,3.3061,3.3061,3.3061,3.2729,3.2152,3.2114,3.1574,3.062,3.057,0.0,0.0,0.0,0.0,0.0,2.9792,2.9792,2.9792,2.9792,2.9792,2.9792,2.9792,2.9792,2.9792,2.9792,2.9792,2.9792,2.9792,2.9792,2.9792,2.9792,2.9792,2.9792,2.9792,2.9792,2.9792,2.9792,2.9792,2.9792,2.9792,2.9792,2.9792,2.9792,2.9792,2.9792,2.9792,2.9365,2.8925,2.885,2.8021,2.7318,2.7231,2.6826,2.6499,2.6499,2.6499,2.6499,2.6499,2.6499,2.6499,2.6499,2.6499,2.6248,2.5636,2.5146,2.4825,2.4788,2.433,2.4318,2.4838,2.4888,2.5146,2.5536,2.5059,2.4519,2.3916,2.3358,2.3108,3.0294,0.0,3.0733,3.0432,3.0583,3.0796,0.0,3.1198,3.1549,3.1411,3.1599,3.1876,3.2152,3.2328,3.2704,3.3571,3.406,3.4424,3.4643,3.5044,3.5558,3.6329,3.6405,3.6405,3.6405,0.0,0.0,0.0,0.0,0.0,0.0,3.3495,3.3206,3.3124,3.2641,3.2416,3.2416,3.2416,3.2139,3.1574,3.1185,3.0859,3.0608,3.0181,0.0,0.0,0.0,0.0,2.9792,2.9792,2.9792,2.9792,2.9792,2.9792,2.9792,2.9792,2.9792,2.9792,2.9792,2.9792,2.9792,2.9792,2.9792,2.9792,2.9792,2.9792,2.9792,2.9792,2.9792,2.9792,2.9792,2.9792,2.9792,2.9792,2.9792,2.9792,2.9792,2.9792,2.9792,2.9792,2.9679,2.9315,2.8448,2.8084,2.762,2.6813,2.6575,2.6499,2.6499,2.6499,2.6499,2.6499,2.6499,2.6499,2.6499,2.6499,2.6248,2.5636,2.5485,2.5234,2.4813,2.4662,2.4838,2.541,2.5883,2.5724,2.5008,2.485,2.4274,2.3308,2.317,2.3108,2.9792,3.0193,3.0545,3.0244,3.0394,3.062,3.062,3.0834,3.0959,3.0708,3.1047,3.1486,3.1775,3.2039,3.2503,3.3382,3.3771,3.4148,3.465,3.5157,3.5696,3.6342,3.6405,3.6304,0.0,0.0,0.0,0.0,0.0,0.0,0.0,3.3244,3.3124,3.3124,3.2516,3.2215,3.2215,3.1964,3.1562,3.1035,3.0758,3.0482,3.0231,2.993,0.0,0.0,0.0,0.0,2.9792,2.9792,2.9792,2.9792,2.9792,2.9792,2.9792,2.9792,2.9792,2.9792,2.9792,2.9792,2.9792,2.9792,2.9792,2.9792,2.9792,2.9792,2.9792,2.9792,2.9792,2.9792,2.9792,2.9792,2.9792,2.9792,2.9792,2.9792,2.9792,2.9792,2.9792,2.9792,2.9578,2.9202,2.8586,2.8059,2.7519,2.6964,2.6663,2.6499,2.6499,2.6499,2.6499,2.6499,2.6499,2.6499,2.6499,2.6499,2.6361,2.6047,2.5737,2.5586,2.5573,2.5322,2.5435,2.6021,2.6336,2.6072,2.5172,2.4913,2.4349,2.3496,2.3233,2.3108,2.9892,3.0319,3.0696,3.0532,3.0557,3.0595,3.0507,3.0495,3.0357,2.9892,3.052,3.1198,3.1361,3.1838,3.2428,3.3093,3.3269,3.3709,3.4813,3.5257,3.5671,3.6182,3.6279,0.0,0.0,0.0,0.0,0.0,0.0,0.0,0.0,3.3124,3.3074,3.2955,3.239,3.2051,3.1976,3.1499,3.1009,3.0495,3.0495,3.0244,2.9792,2.9792,2.9792,0.0,0.0,0.0,2.9792,2.9792,2.9792,2.9792,2.9792,2.9792,2.9792,2.9792,2.9792,2.9792,2.9792,2.9792,2.9792,2.9792,2.9792,2.9792,2.9792,2.9792,2.9792,2.9792,2.9792,2.9792,2.9792,2.9792,2.9792,2.9792,2.9792,2.9792,2.9792,2.9792,2.9792,2.9792,2.9402,2.8963,2.88,2.8034,2.7392,2.718,2.6788,2.6499,2.6499,2.6499,2.6499,2.6499,2.6499,2.6499,2.6499,2.6499,2.6499,2.6499,2.6034,2.5984,2.6474,2.6021,2.5996,2.6487,2.6499,2.621,2.5598,2.5071,2.4582,2.4104,2.3409,2.3145,3.0357,3.0871,3.1047,3.0143,3.0269,3.0495,3.003,2.9917,2.9892,2.9817,2.993,3.0319,3.1223,3.1838,3.2554,3.3608,3.4161,3.4851,3.6003,0.0,3.552,3.5621,0.0,0.0,0.0,0.0,0.0,0.0,0.0,0.0,0.0,3.3124,3.2855,3.2353,3.18,3.1298,3.0871,3.0771,3.0457,2.9917,2.9917,2.988,2.9792,2.9792,2.9792,0.0,0.0,2.9792,2.9792,2.9792,2.9792,2.9792,2.9792,2.9792,2.9792,2.9792,2.9792,2.9792,2.9792,2.9792,2.9792,2.9792,2.9792,2.9792,2.9792,2.9792,2.9792,2.9792,2.9792,2.9792,2.9792,2.9792,2.9792,2.9792,2.9792,2.9792,2.9792,2.9792,2.9792,2.9792,2.9729,2.9365,2.8398,2.8097,2.7657,2.6763,2.6549,2.6499,2.6499,2.6499,2.6499,2.6499,2.6499,2.6499,2.6499,2.6499,2.6499,2.6499,2.6411,2.6399,2.6499,2.6411,2.6399,2.6499,2.6499,2.621,2.5598,2.5071,2.475,2.4637,2.3597,2.3358,3.0727,3.1306,3.1746,3.1825,3.1668,3.1411,3.116,3.0871,3.0658,3.0658,3.0658,3.0896,3.1687,3.2039,3.2579,3.3709,3.4361,3.5002,3.5805,3.5454,3.5169,0.0,0.0,0.0,0.0,0.0,0.0,0.0,0.0,0.0,0.0,0.0,3.2353,3.1788,3.1248,3.0859,3.062,3.0319,3.0043,2.9792,2.9792,2.9792,2.9792,2.9792,2.9792,2.9792,0.0,2.9792,2.9792,2.9792,2.9792,2.9792,2.9792,2.9792,2.9792,2.9792,2.9792,2.9792,2.9792,2.9792,2.9792,2.9792,2.9792,2.9792,2.9792,2.9792,2.9792,2.9792,2.9792,2.9792,2.9792,2.9792,2.9792,2.9792,2.9792,2.9792,2.9792,2.9792,2.9792,2.9792,2.9541,2.9164,2.8599,2.8059,2.7494,2.7014,2.6688,2.6499,2.6499,2.6499,2.6499,2.6499,2.6499,2.6499,2.6499,2.6499,2.6499,2.6499,2.6499,2.6499,2.6499,2.6499,2.6499,2.6499,2.6499,2.621,2.5598,2.536,2.5096,2.4775,2.396,2.374,3.1102,3.1532,3.2001,3.3426,3.3101,3.2508,3.2584,3.2031,3.1531,3.1565,3.1486,3.1549,3.2114,3.2428,3.293,3.3935,3.4449,3.4818,3.5245,3.4944,3.4826,0.0,0.0,0.0,0.0,0.0,0.0,0.0,0.0,0.0,0.0,0.0,3.1775,3.1223,3.0821,3.0557,3.0419,3.0005,2.9792,2.9792,2.9792,2.9792,2.9792,2.9792,2.9792,2.9792,2.9792,2.9792,2.9792,2.9792,2.9792,2.9792,2.9792,2.9792,2.9792,2.9792,2.9792,2.9792,2.9792,2.9792,2.9792,2.9792,2.9792,2.9792,2.9792,2.9792,2.9792,2.9792,2.9792,2.9792,2.9792,2.9792,2.9792,2.9792,2.9792,2.9792,2.9792,2.9792,2.9792,2.9792,2.944,2.9051,2.875,2.8034,2.7394,2.7165,2.6763,2.6499,2.6499,2.6499,2.6499,2.6499,2.6499,2.6499,2.6499,2.6499,2.6499,2.6499,2.6499,2.6499,2.6499,2.6499,2.6499,2.6499,2.6499,2.6273,2.5799,2.5661,2.546,2.5184,2.4368,2.4067,3.1548,3.1332,3.129,3.3647,3.3779,3.3373,3.3635,3.2791,3.1993,3.2133,3.175,3.1549,3.2114,3.3068,3.3972,3.4562,3.4655,3.4693,3.4731,0.0,0.0,0.0,0.0,0.0,0.0,0.0,0.0,0.0,0.0,0.0,0.0,0.0,0.0,3.0683,3.0633,3.0369,2.9854,2.9817,2.9792,2.9792,2.9792,2.9792,2.9792,2.9792,2.9792,2.9792,2.9792,2.9792,2.9792,2.9792,2.9792,2.9792,2.9792,2.9792,2.9792,2.9792,2.9792,2.9792,2.9792,2.9792,2.9792,2.9792,2.9792,2.9792,2.9792,2.9792,2.9792,2.9792,2.9792,2.9792,2.9792,2.9792,2.9792,2.9792,2.9792,2.9792,2.9792,2.9792,2.9792,2.9792,2.9754,2.9402,2.8348,2.8097,2.7695,2.6713,2.6512,2.6499,2.6499,2.6499,2.6499,2.6499,2.6499,2.6499,2.6499,2.6499,2.6499,2.6499,2.6499,2.6499,2.6499,2.6499,2.6499,2.6499,2.6499,2.6474,2.6436,2.585,2.585,2.6336,2.4732,2.4268,3.2919,3.3301,3.372,3.5273,3.5508,3.5317,3.5313,3.4393,3.3696,3.4191,3.3598,3.2905,3.2767,3.3382,3.3972,3.4173,3.45,3.468,3.468,0.0,0.0,0.0,0.0,0.0,0.0,0.0,0.0,0.0,0.0,0.0,0.0,0.0,0.0,3.0118,3.0105,3.0005,2.9792,2.9792,2.9792,2.9792,2.9792,2.9792,2.9792,2.9792,2.9792,2.9792,2.9792,2.9792,2.9792,2.9792,2.9792,2.9792,2.9792,2.9792,2.9792,2.9792,2.9792,2.9792,2.9792,2.9792,2.9792,2.9792,2.9792,2.9792,2.9792,2.9792,2.9792,2.9792,2.9792,2.9792,2.9792,2.9792,2.9792,2.9792,2.9792,2.9792,2.9792,2.9792,2.9792,2.9792,2.9792,2.9541,2.875,2.8335,2.7846,2.7115,2.6713,2.6499,2.6499,2.6499,2.6499,2.6499,2.6499,2.6499,2.6499,2.6499,2.6499,2.6499,2.6499,2.6499,2.6499,2.6499,2.6499,2.6499,2.6499,2.6499,2.6499,2.6273,2.6097,2.5933,2.4958,2.4443,3.3739,3.4123,3.4556,3.5882,3.6097,3.6182,3.6759,3.5641,3.474,3.5826,3.4894,3.3828,3.3637,3.3764,3.3827,3.3695,3.4242,3.4571,3.4243,0.0,0.0,0.0,0.0,0.0,0.0,0.0,0.0,0.0,0.0,0.0,0.0,0.0,0.0,0.0,2.9792,2.9792,2.9792,2.9792,2.9792,2.9792,2.9792,2.9792,2.9792,2.9792,2.9792,2.9792,2.9792,2.9792,2.9792,2.9792,2.9792,2.9792,2.9792,2.9792,2.9792,2.9792,2.9792,2.9792,2.9792,2.9792,2.9792,2.9792,2.9792,2.9792,2.9792,2.9792,2.9792,2.9792,2.9792,2.9792,2.9792,2.9792,2.9792,2.9792,2.9792,2.9792,2.9792,2.9792,2.9792,2.9792,2.9792,2.9553,2.8762,2.8348,2.7858,2.7165,2.6738,2.6499,2.6499,2.6499,2.6499,2.6499,2.6499,2.6499,2.6499,2.6499,2.6499,2.6499,2.6499,2.6499,2.6499,2.6499,2.6499,2.6499,2.6499,2.6499,2.6499,2.6311,2.6021,2.5573,2.5128,2.4564,3.3774,3.3345,3.3115,3.5034,3.5257,3.559,3.7888,3.6279,3.4868,3.6738,3.5332,3.3991,3.4586,3.4216,3.3652,3.3224,3.4024,3.4304,0.0,0.0,0.0,0.0,0.0,0.0,0.0,0.0,0.0,0.0,0.0,0.0,0.0,0.0,0.0,0.0,2.9792,2.9792,2.9792,2.9792,2.9792,2.9792,2.9792,2.9792,2.9792,2.9792,2.9792,2.9792,2.9792,2.9792,2.9792,2.9792,2.9792,2.9792,2.9792,2.9792,2.9792,2.9792,2.9792,2.9792,2.9792,2.9792,2.9792,2.9792,2.9792,2.9792,2.9792,2.9792,2.9792,2.9792,2.9792,2.9792,2.9792,2.9792,2.9792,2.9792,2.9792,2.9792,2.9792,2.9792,2.9792,2.9792,2.9792,2.944,2.831,2.8109,2.7733,2.6663,2.6499,2.6499,2.6499,2.6499,2.6499,2.6499,2.6499,2.6499,2.6499,2.6499,2.6499,2.6499,2.6499,2.6499,2.6499,2.6499,2.6499,2.6499,2.6499,2.6499,2.6499,2.5921,2.5598,2.5594,2.5273,2.4736,3.4986,3.5211,3.5379,3.5478,3.6097,3.6887,3.753,3.7179,3.6781,3.7024,3.6222,3.5556,3.5707,3.5624,3.545,3.5319,3.4606,0.0,0.0,0.0,0.0,0.0,0.0,0.0,0.0,0.0,0.0,0.0,0.0,0.0,0.0,0.0,0.0,0.0,2.9792,2.9792,2.9792,2.9792,2.9792,2.9792,2.9792,2.9792,2.9792,2.9792,2.9792,2.9792,2.9792,2.9792,2.9792,2.9792,2.9792,2.9792,2.9792,2.9792,2.9792,2.9792,2.9792,2.9792,2.9792,2.9792,2.9792,2.9792,2.9792,2.9792,2.9792,2.9792,2.9792,2.9792,2.9792,2.9792,2.9792,2.9792,2.9792,2.9792,2.9792,2.9792,2.9792,2.9792,2.9792,2.9792,2.9792,2.9553,2.8775,2.836,2.7858,2.7178,2.6738,2.6499,2.6499,2.6499,2.6499,2.6499,2.6499,2.6499,2.6499,2.6499,2.6499,2.6499,2.6499,2.6499,2.6499,2.6499,2.6499,2.6499,2.6499,2.6499,2.6499,2.6323,2.6075,2.5836,2.6199,2.5857,3.5504,3.5789,3.6073,3.5923,3.6656,3.7554,3.8078,3.8294,3.8185,3.7515,3.6726,3.6178,3.6392,3.6065,0.0,3.5466,3.5011,0.0,0.0,0.0,0.0,0.0,0.0,0.0,0.0,0.0,0.0,0.0,0.0,0.0,0.0,0.0,0.0,0.0,2.9792,2.9792,2.9792,2.9792,2.9792,2.9792,2.9792,2.9792,2.9792,2.9792,2.9792,2.9792,2.9792,2.9792,2.9792,2.9792,2.9792,2.9792,2.9792,2.9792,2.9792,2.9792,2.9792,2.9792,2.9792,2.9792,2.9792,2.9792,2.9792,2.9792,2.9792,2.9792,2.9792,2.9792,2.9792,2.9792,2.9792,2.9792,2.9792,2.9792,2.9792,2.9792,2.9792,2.9792,2.9792,2.9792,2.9792,2.9616,2.8988,2.8612,2.8172,2.7394,2.6851,2.6499,2.6499,2.6499,2.6499,2.6499,2.6499,2.6499,2.6499,2.6499,2.6499,2.6499,2.6499,2.6499,2.6499,2.6499,2.6499,2.6499,2.6499,2.6499,2.6499,2.6357,2.6149,2.5906,2.6745,2.666,3.5457,3.5504,3.5654,3.6252,3.6866,3.7659,3.8945,3.9209,3.8941,3.8043,3.691,3.6266,3.6757,3.597,3.5095,3.4646,0.0,0.0,0.0,0.0,0.0,0.0,0.0,0.0,0.0,0.0,0.0,0.0,0.0,0.0,0.0,0.0,0.0,0.0,2.9792,2.9792,2.9792,2.9792,2.9792,0.0,2.9792,2.9792,2.9792,2.9792,2.9792,2.9792,2.9792,2.9792,2.9792,2.9792,2.9792,2.9792,2.9792,2.9856,2.9934,2.9934,2.9934,2.9934,2.9934,2.9856,2.9792,2.9792,2.9792,2.9792,2.9792,2.9792,2.9792,2.9792,2.9792,2.9792,2.9792,2.9792,2.9792,2.9792,2.9792,2.9792,2.9792,2.9792,2.9792,2.9792,2.9792,2.9628,2.9063,2.8925,2.8549,2.7444,2.6889,2.6549,2.6499,2.6499,2.6499,2.6499,2.6499,2.6499,2.6499,2.6499,2.6521,2.6589,2.6521,2.6521,2.6624,2.6521,2.6499,2.6499,2.6499,2.6521,2.6624,2.6252,2.61,2.625,2.7257,2.7384,3.5177,3.5504,3.5534,3.5684,3.6207,3.6881,3.7659,3.7838,3.7903,3.8198,3.7664,3.7109,3.7258,3.705,3.6833,0.0,0.0,0.0,0.0,0.0,0.0,0.0,0.0,0.0,0.0,0.0,0.0,0.0,0.0,0.0,0.0,0.0,0.0,2.9792,2.9792,2.9792,2.9792,2.9792,2.9792,0.0,2.9792,2.9792,2.9792,2.9792,2.9792,2.9792,2.9792,2.9792,2.9792,2.9792,2.9792,2.9792,2.9792,3.0241,3.0895,3.0895,3.0895,3.0895,3.0895,3.0419,2.9792,2.9792,2.9792,2.9792,2.9792,2.9792,2.9792,2.9792,2.9792,2.9792,2.9792,2.9792,2.9792,2.9792,2.9792,2.9792,2.9792,2.9792,2.9792,2.9792,2.9792,2.9754,2.9628,2.9189,2.8549,2.7444,2.718,2.6989,2.6549,2.6499,2.6499,2.6499,2.6499,2.6499,2.6499,2.6499,2.6782,2.7384,2.685,2.6782,2.7417,2.685,2.6499,2.6499,2.6499,2.6816,2.7451,2.7354,2.7741,2.8573,2.9343,2.9406,3.4054,3.4943,3.5579,3.5893,3.6462,3.7015,3.7345,3.718,3.706,3.7404,3.721,3.6971,3.6971,3.6716,3.6492,0.0,0.0,0.0,0.0,0.0,0.0,0.0,0.0,0.0,0.0,0.0,0.0,0.0,0.0,0.0,0.0,2.9792,2.9792,2.9792,2.9792,2.9792,2.9792,2.9792,2.9792,2.9792,2.9792,2.9792,2.9792,2.9792,2.9792,2.9792,2.9792,2.9792,2.9792,2.9792,2.9792,2.9818,3.0279,3.0758,3.1254,3.1706,3.1852,3.1815,3.1352,3.0871,3.0381,2.9934,2.9792,2.9792,2.9792,2.9792,2.9792,2.9792,2.9792,2.9792,2.9792,2.9792,2.9792,2.9792,2.9792,2.9792,2.9792,2.9792,2.9792,2.9792,2.9792,2.9792,2.9792,2.9315,2.8599,2.7808,2.7457,2.7115,2.6562,2.6499,2.6499,2.6499,2.685,2.6905,2.6521,2.7229,2.7703,2.7703,2.7703,2.7703,2.7703,2.7284,2.6871,2.6499,2.6871,2.7297,2.7703,2.8207,2.8747,2.9303,3.0046,3.0274,3.2259,3.3707,3.5067,3.5885,3.6435,3.6856,3.7041,3.6686,3.6312,3.6312,3.6312,3.6312,3.6312,3.5863,3.5504,0.0,0.0,0.0,0.0,0.0,0.0,0.0,0.0,0.0,0.0,0.0,0.0,0.0,0.0,0.0,2.9792,2.9792,2.9792,2.9792,2.9792,2.9792,2.9792,2.9792,2.9792,2.9792,2.9792,2.9792,2.9792,2.9792,2.9792,2.9792,2.9792,2.9792,2.9792,2.9792,2.9895,3.0113,3.0733,3.1254,3.1742,3.2393,3.2713,3.2749,3.196,3.1462,3.1068,3.0279,2.9934,2.9792,2.9792,2.9792,2.9792,2.9792,2.9792,2.9792,2.9792,2.9792,2.9792,2.9792,2.9792,2.9792,2.9792,2.9792,2.9792,2.9792,2.9792,2.9767,2.9666,2.9353,2.8848,2.8096,2.77,2.7278,2.6596,2.6624,2.6658,2.6499,2.7351,2.7571,2.6782,2.8117,2.8748,2.8182,2.8684,2.8748,2.8182,2.7986,2.7604,2.6939,2.7451,2.7769,2.792,2.8968,2.955,2.9711,3.0361,3.0687,2.9587,3.111,3.2627,3.3998,3.4385,3.4675,3.558,3.5699,3.5639,3.5639,3.5639,3.5639,3.5639,3.5564,0.0,0.0,0.0,0.0,0.0,0.0,0.0,0.0,0.0,0.0,0.0,0.0,0.0,0.0,0.0,0.0,2.9792,2.9792,2.9792,2.9792,2.9792,2.9792,2.9792,2.9792,2.9792,2.9792,2.9792,2.9792,2.9792,2.9792,2.9792,2.9792,2.9792,2.9792,2.9792,2.9792,3.0279,3.0932,3.0241,3.1489,3.3518,3.2855,3.3101,3.3808,3.3671,3.2558,3.118,3.1044,3.0444,2.9792,2.9792,2.9792,2.9792,2.9792,2.9792,2.9792,2.9792,2.9792,2.9792,2.9792,2.9792,2.9792,2.9792,2.9792,2.9792,2.9792,2.9792,2.9628,2.9126,2.9572,2.944,2.7687,2.7936,2.7893,2.6665,2.7095,2.7263,2.6555,2.7887,2.8492,2.7604,2.8427,2.9286,2.9919,2.9348,2.9286,2.9919,2.9223,2.878,2.8684,2.8019,2.8084,2.8844,2.9742,3.0513,3.1217,3.1303,3.1376,2.9148,3.0853,3.2021,3.2982,3.3602,3.4129,3.4543,3.51,3.5504,3.5504,3.5504,3.5504,3.5504,3.5504,0.0,0.0,0.0,0.0,0.0,0.0,0.0,0.0,0.0,0.0,0.0,0.0,0.0,0.0,0.0,2.9792,2.9792,2.9792,2.9792,2.9792,2.9792,2.9792,2.9792,2.9792,2.9792,2.9792,2.9792,2.9792,2.9792,2.9792,2.9792,2.9792,2.9792,2.9792,2.9792,2.9792,3.0037,3.0495,3.1132,3.2119,3.331,3.3973,3.4476,3.4758,3.4211,3.3449,3.2664,3.2177,3.1365,3.0595,3.0595,3.0203,2.9792,2.9792,2.9792,2.9792,2.9792,2.9792,2.9792,2.9792,2.9792,2.9792,2.9792,2.9792,2.9691,2.9365,2.9315,2.9265,2.9186,2.949,2.9345,2.8139,2.8703,2.8726,2.7361,2.792,2.8298,2.7953,2.8556,2.8844,2.846,2.9223,2.9889,3.0269,3.0359,3.0359,3.0299,2.9919,2.9504,2.9002,2.9097,2.9348,2.9721,3.0584,3.1161,3.1511,3.1511,3.1511,2.8151,2.9706,3.0559,3.1768,3.2562,3.3162,3.3559,3.4394,3.5133,3.5133,3.5326,3.5504,3.5504,0.0,0.0,0.0,0.0,0.0,0.0,0.0,0.0,0.0,0.0,0.0,0.0,0.0,0.0,0.0,0.0,3.0139,3.0139,2.9934,2.9792,2.9792,2.9792,2.9792,2.9792,2.9792,2.9792,2.9792,2.9792,2.9792,2.9792,2.9792,2.9792,2.9792,2.9792,2.9792,2.9792,2.9792,2.9934,3.0279,3.1439,3.2321,3.3101,3.4308,3.5067,3.5392,3.4643,3.4211,3.3876,3.3171,3.2321,3.1573,3.1573,3.0908,3.0139,3.0139,2.996,2.9792,2.9792,2.9792,2.9869,3.0113,3.0139,3.0113,2.9856,2.9792,2.9743,2.9542,2.9339,2.9342,2.9684,2.9805,2.9564,2.8759,2.9359,2.9481,2.8203,2.878,2.9254,2.9034,2.938,2.9535,2.9348,3.0103,3.0614,3.0614,3.1161,3.1219,3.0614,3.0614,3.0299,2.9659,3.0269,3.0494,3.0299,3.1117,3.1511,3.1511,3.1511,3.1511,2.5224,2.6069,2.6821,2.9774,3.0546,3.0954,3.2327,3.338,3.4061,3.4061,3.4839,3.5504,3.5504,0.0,0.0,0.0,0.0,0.0,0.0,0.0,0.0,0.0,0.0,0.0,0.0,0.0,0.0,0.0,0.0,3.1143,3.1143,3.0279,2.9792,2.9792,2.9792,2.9792,2.9792,2.9792,2.9792,2.9792,2.9792,2.9792,2.9792,2.9792,2.9792,2.9792,2.9792,2.9792,2.9792,2.9792,3.0317,3.1044,3.0254,3.1599,3.3842,3.3031,3.3905,3.5504,3.5439,3.4806,3.3993,3.3945,3.3276,3.2522,3.2522,3.1852,3.1143,3.1143,3.0482,2.9792,2.9792,2.9792,3.0037,3.0932,3.1143,3.0871,2.9998,2.9792,3.0062,3.0893,3.0558,3.0268,3.0671,3.0899,3.0548,2.9172,2.9716,2.9948,2.9034,2.969,2.9919,2.9097,3.0419,3.1058,3.0299,3.097,3.1438,3.1438,3.1467,3.1467,3.1438,3.1438,3.1409,3.138,3.1409,3.1058,3.0299,3.1117,3.1511,3.1511,3.1511,3.1511,2.2776,2.4422,2.6093,2.7285,2.8993,3.0559,3.107,3.2189,3.3276,3.3876,3.4279,3.4725,3.5392,0.0,0.0,0.0,0.0,0.0,0.0,0.0,0.0,0.0,0.0,0.0,0.0,0.0,0.0,0.0,0.0,0.0,3.1217,3.0317,2.9792,2.9792,2.9792,2.9792,2.9792,2.9792,2.9792,2.9792,2.9792,2.9792,2.9792,2.9792,2.9792,2.9792,2.9792,2.9792,2.9792,2.9792,2.9998,3.0381,3.1267,3.2213,3.3206,3.4124,3.4887,3.5504,3.5504,3.5246,3.4953,3.4953,3.4293,3.3484,3.3484,3.2429,3.1217,3.1217,3.052,2.9792,2.9792,3.0241,3.0945,3.1888,3.177,3.1356,3.1025,3.004,2.9264,2.9437,2.925,2.9401,3.0326,3.0528,3.0436,2.9917,3.0554,3.0777,2.995,3.0554,3.097,3.0644,3.0673,3.0807,3.1058,3.0866,3.097,3.1467,3.1511,3.1511,3.1511,3.1511,3.1511,3.1511,3.1511,3.1351,3.1058,3.1351,3.1511,3.1511,3.1511,3.1511,2.1218,2.2808,2.4601,2.5707,2.7319,2.8875,2.9723,3.0756,3.1774,3.2626,3.3289,3.3984,3.4828,0.0,0.0,0.0,0.0,0.0,0.0,0.0,0.0,0.0,0.0,0.0,0.0,0.0,0.0,0.0,0.0,0.0,3.1669,3.0771,3.0139,2.9792,2.9792,2.9792,2.9792,2.9792,2.9792,2.9792,2.9792,2.9792,2.9792,2.9792,2.9792,2.9792,2.9792,2.9792,2.9792,2.9792,2.9792,2.9972,3.1513,3.2321,3.2784,3.4409,3.5213,3.5504,3.5504,3.5504,3.5504,3.5504,3.5052,3.4509,3.4509,3.3253,3.1896,3.2087,3.1306,3.0475,3.0694,3.1439,3.2321,3.2925,3.2723,3.2269,3.1898,3.0361,2.9176,2.9639,2.9282,2.9389,3.081,3.0849,3.0703,3.0703,3.1161,3.1307,3.0777,3.1161,3.1511,3.1511,3.1029,3.0925,3.1438,3.0999,3.0925,3.1467,3.1511,3.1511,3.1511,3.1511,3.1511,3.1511,3.1511,3.1511,3.1511,3.1511,3.1511,3.1511,3.1511,3.1511,0.0,0.0,0.0,2.5106,2.5505,2.5804,2.8213,2.9093,2.9561,3.0204,3.1799,3.3235,3.3854,0.0,0.0,0.0,0.0,0.0,0.0,0.0,0.0,0.0,0.0,0.0,0.0,0.0,0.0,0.0,0.0,3.3567,3.2629,3.1669,3.072,2.983,2.9792,2.9792,2.9792,2.9792,2.9792,2.9792,2.9792,2.9792,2.9792,2.9779,2.9779,2.9792,2.9779,2.9767,2.9767,2.9779,2.9818,2.9908,3.0857,3.1802,3.2721,3.3691,3.4658,3.5504,3.5504,3.5504,3.5504,3.5489,3.5489,3.5504,3.5489,3.4365,3.3231,3.382,3.2839,3.1764,3.2441,3.331,3.4027,3.4027,3.4013,3.3686,3.2479,3.0784,2.9968,3.1728,3.0843,3.0357,3.2153,3.1929,3.1511,3.1511,3.1511,3.1511,3.1511,3.1511,3.1511,3.1511,3.1511,3.1511,3.1511,3.1511,3.1511,3.1511,3.1511,3.1511,3.1511,3.1511,3.1511,3.1511,3.1511,3.1511,3.1511,3.1511,3.1511,3.1511,3.1511,3.1511,1.9242,0.0,0.0,0.0,0.0,0.0,0.0,2.6008,2.7185,2.8458,2.9158,3.0169,3.2307,0.0,0.0,0.0,0.0,0.0,0.0,0.0,0.0,0.0,0.0,0.0,0.0,0.0,0.0,0.0,3.3939,3.289,3.2593,3.1057,3.0075,2.9792,2.9792,2.9792,2.9792,2.9792,2.9792,2.9792,2.9792,2.9792,2.9779,2.9365,2.9402,2.9767,2.9352,2.9126,2.9202,2.9616,2.9897,3.0223,3.1653,3.252,3.312,3.4563,3.5246,3.5504,3.5504,3.5504,3.5429,3.4921,3.51,3.5415,3.4906,3.3983,3.3231,3.382,3.2839,3.1903,3.3259,3.3808,3.4177,3.4905,3.4715,3.4137,3.3308,3.1861,3.0708,3.0781,3.0444,3.0497,3.1589,3.163,3.1511,3.1511,3.1511,3.1511,3.1511,3.1511,3.1511,3.1511,3.1511,3.1511,3.1511,3.1511,3.1511,3.1511,3.1511,3.1511,3.1511,3.1511,3.1511,3.1511,3.1511,3.1511,3.1511,3.1511,3.1511,3.1511,3.1511,3.1511,1.9023,1.9823,2.0868,2.1272,0.0,0.0,2.3773,2.4278,2.4965,0.0,2.7161,2.8296,3.0154,0.0,0.0,0.0,0.0,0.0,0.0,0.0,0.0,0.0,0.0,0.0,0.0,0.0,0.0,3.5504,3.4442,3.365,3.3206,3.1033,2.9972,3.0381,2.9998,2.9792,2.9792,3.0177,3.0381,3.0381,3.05,3.0568,3.0505,2.9542,2.9281,2.9588,2.8874,2.8586,2.8612,2.9337,2.9906,3.0385,3.1436,3.237,3.3215,3.4288,3.4666,3.4666,3.4666,3.4666,3.4651,3.4548,3.4741,3.5055,3.4936,3.4137,3.3454,3.4361,3.3951,3.3446,3.4374,3.4624,3.4758,3.5359,3.519,3.4726,3.4053,3.2997,3.1907,3.0983,3.0727,3.0932,3.1782,3.1914,3.1914,3.1914,3.1675,3.1511,3.1511,3.1511,3.1511,3.1511,3.1511,3.1511,3.1511,3.1511,3.1511,3.1511,3.1511,3.1511,3.1511,3.1511,3.1511,3.1511,3.1511,3.1511,3.1511,3.1511,3.1511,3.1511,3.1511,3.1511,1.9473,1.9629,2.0216,2.1545,2.1318,0.0,2.3231,2.3156,2.2894,0.0,2.5408,2.6959,2.7687,0.0,0.0,0.0,0.0,0.0,0.0,0.0,0.0,0.0,0.0,0.0,0.0,3.5504,3.5504,3.5504,3.5392,3.4839,3.3739,3.1318,3.0279,3.1007,3.0241,2.9792,2.9792,3.0556,3.0976,3.1111,3.127,3.1391,3.1447,3.0065,2.9469,2.9486,2.8646,2.8286,2.8346,2.9127,2.9817,3.0361,3.0788,3.1787,3.3071,3.3385,3.3499,3.3499,3.3499,3.3499,3.3589,3.4098,3.4384,3.4593,3.504,3.4397,3.3724,3.4861,3.528,3.5385,3.5385,3.5444,3.5504,3.5504,3.5504,3.5295,3.4563,3.3903,3.3095,3.1765,3.1425,3.1592,3.2378,3.2572,3.2617,3.2617,3.2034,3.1615,3.1615,3.1555,3.1511,3.1511,3.1511,3.1511,3.1511,3.1511,3.1511,3.1511,3.1511,3.1511,3.1511,3.1511,3.1511,3.1511,3.1511,3.1511,3.1511,3.1511,3.1511,3.1511,3.1511,3.1511,1.9912,1.9853,1.9891,1.9885,0.0,0.0,1.9849,2.0425,2.1137,0.0,2.268,2.4225,2.5811,0.0,0.0,0.0,0.0,0.0,0.0,0.0,0.0,0.0,0.0,0.0,0.0,3.5504,3.5504,3.5504,3.4758,3.3533,3.1852,3.1217,3.0658,3.0113,2.9895,2.9792,2.9792,2.9505,2.9712,3.0372,3.0007,3.0169,3.078,3.0056,2.9976,3.0331,2.972,2.9483,2.9483,2.965,2.9785,3.0035,3.1335,3.2147,3.2688,3.3274,3.3499,3.3499,3.3499,3.3499,3.3425,3.3021,3.3619,3.4339,3.338,3.3275,3.344,3.317,3.3858,3.4713,3.4713,3.51,3.5504,3.5504,3.5504,3.5175,3.3948,3.3589,3.3095,3.1765,3.1901,3.2303,3.2482,3.2961,3.3305,3.3305,3.2736,3.2288,3.2288,3.1824,3.1511,3.1511,3.1511,3.1511,3.1511,3.1511,3.1511,3.1511,3.1511,3.1511,3.1511,3.1511,3.1511,3.1511,3.1511,3.1511,3.1511,3.1511,3.1511,3.1511,3.1511,3.1511,2.0361,2.0244,0.0,2.0018,0.0,0.0,0.0,1.9949,2.0339,2.0636,2.1476,2.2485,2.3592,0.0,0.0,0.0,0.0,0.0,0.0,0.0,0.0,0.0,0.0,0.0,0.0,3.5831,3.5894,3.5537,3.4576,3.3822,3.3374,3.1974,3.118,3.1206,3.0292,2.9872,2.9995,3.0153,3.0557,3.1137,3.1011,3.1154,3.1524,3.0502,3.02,3.0403,2.9711,2.938,2.9412,2.9873,3.0062,3.0122,3.0888,3.1728,3.2512,3.2512,3.2512,3.2512,3.2512,3.2512,3.2512,3.2512,3.2961,3.344,3.3095,3.323,3.3365,3.2706,3.3215,3.4099,3.4414,3.4758,3.5085,3.5429,3.5504,3.522,3.4203,3.3724,3.32,3.2183,3.2258,3.2617,3.2946,3.3275,3.3604,3.3933,3.3425,3.2886,3.2557,3.2198,3.1869,3.154,3.1511,3.1511,3.1511,3.1511,3.1511,3.1511,3.1511,3.1511,3.1511,3.1511,3.1511,3.1511,3.1511,3.1511,3.1511,3.1511,3.1511,3.1511,3.1511,3.1511,2.0937,0.0,0.0,0.0,0.0,2.0088,0.0,0.0,0.0,2.0302,2.0907,0.0,0.0,0.0,0.0,0.0,0.0,0.0,0.0,0.0,0.0,0.0,0.0,0.0,0.0,3.6023,3.6134,3.5522,3.4758,3.4543,3.518,3.2834,3.1742,3.2321,3.0567,2.982,3.0214,3.0745,3.1304,3.1921,3.2013,3.2169,3.2273,3.1071,3.0524,3.0494,2.9797,2.9473,2.9535,3.0238,3.0524,3.0524,3.0524,3.1249,3.2228,3.1705,3.1511,3.1511,3.1511,3.1511,3.1585,3.2123,3.2303,3.2422,3.3095,3.3215,3.3006,3.2452,3.2796,3.3455,3.4113,3.4414,3.4683,3.534,3.54,3.5115,3.4459,3.3769,3.3155,3.2617,3.2512,3.2677,3.3215,3.341,3.3679,3.4234,3.3724,3.311,3.2557,3.2378,3.2093,3.157,3.1511,3.1511,3.1511,3.1511,3.1511,3.1511,3.1511,3.1511,3.1511,3.1511,3.1511,3.1511,3.1511,3.1511,3.1511,3.1511,3.1511,3.1511,3.1511,3.1511,0.0,0.0,0.0,0.0,2.0566,0.0,0.0,0.0,1.9824,1.9502,0.0,0.0,0.0,0.0,0.0,0.0,0.0,0.0,0.0,0.0,0.0,0.0,0.0,0.0,0.0,0.0,3.5587,3.5504,3.5392,3.4986,3.4211,3.3066,3.2105,3.1389,2.9843,2.9375,3.0178,2.9302,2.9642,3.1211,3.0764,3.091,3.1615,3.1439,3.1351,3.1351,3.1248,3.1219,3.1219,3.1322,3.1351,3.1351,3.1351,3.1453,3.16,3.1525,3.1511,3.1511,3.1511,3.1511,3.1511,3.1585,3.1615,3.1735,3.2392,3.2183,3.1705,3.1645,3.2093,3.2781,3.344,3.4038,3.4683,3.534,3.504,3.4444,3.3754,3.3095,3.2602,3.2497,3.2512,3.2512,3.2617,3.311,3.3529,3.3589,3.3036,3.2602,3.2497,3.1974,3.1585,3.1511,3.1511,3.1511,3.1511,3.1511,3.1511,3.1511,3.1511,3.1511,3.1511,3.1511,3.1511,3.1511,3.1511,3.1511,3.1511,3.1511,3.1511,3.1511,3.1511,3.1511,0.0,0.0,0.0,0.0,0.0,0.0,2.0155,0.0,2.0244,0.0,0.0,0.0,0.0,0.0,0.0,0.0,0.0,0.0,0.0,0.0,0.0,0.0,0.0,0.0,0.0,0.0,0.0,0.0,0.0,3.5326,3.4872,3.3429,3.2429,3.2033,2.999,2.9391,3.0427,2.9659,2.9933,3.1337,3.1087,3.1161,3.1511,3.1511,3.1511,3.1511,3.1511,3.1511,3.1511,3.1511,3.1511,3.1511,3.1511,3.1511,3.1511,3.1511,3.1511,3.1511,3.1511,3.1511,3.1511,3.1511,3.1511,3.1555,3.1824,3.172,3.1511,3.1511,3.1974,3.2662,3.332,3.3978,3.4683,3.534,3.5295,3.4786,3.3724,3.3574,3.3425,3.2662,3.2512,3.2512,3.2512,3.3066,3.3499,3.3499,3.326,3.2946,3.2557,3.2243,3.1929,3.154,3.1511,3.1511,3.1511,3.1511,3.1511,3.1511,3.1511,3.1511,3.1511,3.1511,3.1511,3.1511,3.1511,3.1511,3.1511,3.1511,3.1511,3.1511,3.1511,3.1511,2.2139,0.0,0.0,0.0,0.0,0.0,0.0,0.0,0.0,0.0,0.0,0.0,0.0,0.0,0.0,2.0546,0.0,2.1697,0.0,0.0,0.0,0.0,0.0,0.0,0.0,0.0,0.0,0.0,0.0,0.0,3.5085,3.3754,3.2771,3.2323,3.0207,2.9594,3.0729,2.9955,3.0236,3.1511,3.1511,3.1511,3.1511,3.1511,3.1511,3.1511,3.1511,3.1511,3.1511,3.1511,3.1511,3.1511,3.1511,3.1511,3.1511,3.1511,3.1511,3.1511,3.1511,3.1511,3.1511,3.1511,3.1511,3.1511,3.1511,3.1511,3.1511,3.1511,3.1974,3.2662,3.332,3.3978,3.4638,3.51,3.5085,3.4637,3.3484,3.3604,3.3709,3.2931,3.2781,3.2781,3.2781,3.2886,3.2961,3.2961,3.2961,3.2781,3.2273,3.2213,3.2034,3.1555,3.1511,3.1511,3.1511,3.1511,3.1511,3.1511,3.1511,3.1511,3.1511,3.1511,3.1511,3.1511,3.1511,3.1511,3.1511,3.1511,3.1511,3.1511,3.1511,3.1511,0.0,0.0,0.0,2.1865,0.0,0.0,0.0,0.0,2.0605,0.0,0.0,0.0,0.0,0.0,2.0586,2.0605,2.0644,0.0,0.0,0.0,0.0,0.0,0.0,0.0,0.0,0.0,0.0,0.0,0.0,0.0,3.4066,3.3993,3.3249,3.1681,3.0226,3.0011,3.1077,2.9715,2.9872,3.1511,3.1511,3.1511,3.1511,3.1511,3.1511,3.1511,3.1511,3.1511,3.1511,3.1511,3.1511,3.1511,3.1511,3.1511,3.1511,3.1511,3.1511,3.1511,3.1511,3.1511,3.1511,3.1511,3.1511,3.1511,3.1511,3.1511,3.1511,3.1511,3.1974,3.2662,3.332,3.3978,3.4518,3.4533,3.4054,3.3365,3.2691,3.2557,3.2751,3.335,3.3469,3.3469,3.3469,3.2392,3.157,3.157,3.157,3.157,3.154,3.154,3.1525,3.1511,3.1511,3.1511,3.1511,3.1511,3.1511,3.1511,3.1511,3.1511,3.1511,3.1511,3.1511,3.1511,3.1511,3.1511,3.1511,3.1511,3.1511,3.1511,3.1511,3.1511,0.0,0.0,2.1523,2.1816,0.0,0.0,0.0,0.0,0.0,0.0,0.0,0.0,0.0,0.0,2.0605,2.0605,2.0605,2.0712,0.0,0.0,0.0,0.0,0.0,0.0,0.0,0.0,0.0,0.0,0.0,0.0,0.0,3.3067,3.2021,3.0838,2.8989,2.8757,3.0224,2.9434,2.9858,3.1511,3.1511,3.1511,3.1511,3.1511,3.1511,3.1481,3.1017,3.1077,3.1466,3.1017,3.1092,3.1511,3.1511,3.1511,3.1511,3.1511,3.1511,3.1511,3.1511,3.1511,3.1511,3.1511,3.1511,3.1511,3.1511,3.1809,3.2153,3.2153,3.2961,3.3769,3.3559,3.3978,3.4399,3.3918,3.3978,3.3994,3.3305,3.3858,3.4427,3.4188,3.4174,3.4174,3.4174,3.341,3.2512,3.163,3.1869,3.1989,3.157,3.1511,3.1511,3.1511,3.1511,3.1511,3.1511,3.1511,3.1511,3.1511,3.1511,3.1511,3.1511,3.1511,3.1511,3.1511,3.1511,3.1511,3.1511,3.1511,3.1511,3.1511,3.1511,3.1511,2.32,2.2418,0.0,2.1654,2.1221,0.0,2.0967,0.0,0.0,0.0,0.0,0.0,0.0,0.0,2.0605,2.0605,2.0605,2.0605,0.0,2.1413,0.0,0.0,0.0,0.0,0.0,0.0,3.2306,3.3402,0.0,0.0,0.0,0.0,3.1613,3.0081,2.8562,2.8488,2.9967,2.9323,2.9858,3.1511,3.1511,3.1511,3.1496,3.1256,3.1137,3.1122,3.0702,3.0761,3.1122,3.0956,3.1107,3.1511,3.1511,3.1511,3.1511,3.1511,3.1511,3.1511,3.1511,3.1511,3.1511,3.1511,3.1511,3.1511,3.1511,3.1795,3.2183,3.2422,3.3125,3.3739,3.3544,3.3814,3.4054,3.3589,3.3814,3.4039,3.3589,3.4367,3.5011,3.4593,3.4503,3.4503,3.4503,3.4159,3.3484,3.2392,3.2587,3.2706,3.2258,3.2198,3.2108,3.1869,3.1854,3.1765,3.1525,3.1511,3.1511,3.1511,3.1511,3.1615,3.1854,3.1854,3.1959,3.2198,3.1974,3.1854,3.1854,3.1615,3.1511,3.1511,3.1768,3.1739]}]]